Wetterdaten: Sonntag, 22.07.2018
Datum Zeit Temp. A. Feuchte A. Luftdruck Regen Wind Richtung Richtung Sonnenschein ET UV Solar Taupunkt Windchill Windböen
22.07.2018 00:00 14,9 °C 91 % 1011,5 hPa 0,0 mm 6,6 km/h (2 Bft) W-SW 242 ° 0 min 0,000 mm 0,0 UV-I 0 W/m² 13,4 °C 14,9 °C 11,3 km/h (2 Bft)
22.07.2018 00:01 14,9 °C 91 % 1011,6 hPa 0,0 mm 5,0 km/h (1 Bft) W-SW 245 ° 0 min 0,000 mm 0,0 UV-I 0 W/m² 13,4 °C 14,9 °C 11,3 km/h (2 Bft)
22.07.2018 00:03 14,9 °C 91 % 1011,6 hPa 0,0 mm 2,8 km/h (1 Bft) SW 228 ° 0 min 0,000 mm 0,0 UV-I 0 W/m² 13,4 °C 14,9 °C 9,7 km/h (2 Bft)
22.07.2018 00:04 14,9 °C 91 % 1011,5 hPa 0,0 mm 4,4 km/h (1 Bft) W 263 ° 0 min 0,000 mm 0,0 UV-I 0 W/m² 13,4 °C 14,9 °C 14,5 km/h (3 Bft)
22.07.2018 00:05 14,9 °C 91 % 1011,6 hPa 0,0 mm 4,1 km/h (1 Bft) SW 216 ° 0 min 0,000 mm 0,0 UV-I 0 W/m² 13,4 °C 14,9 °C 11,3 km/h (2 Bft)
22.07.2018 00:06 14,9 °C 91 % 1011,6 hPa 0,0 mm 2,9 km/h (1 Bft) W-SW 254 ° 0 min 0,000 mm 0,0 UV-I 0 W/m² 13,4 °C 14,9 °C 4,8 km/h (1 Bft)
22.07.2018 00:07 14,8 °C 91 % 1011,5 hPa 0,0 mm 1,6 km/h (1 Bft) S-SW 205 ° 0 min 0,000 mm 0,0 UV-I 0 W/m² 13,3 °C 14,8 °C 4,8 km/h (1 Bft)
22.07.2018 00:08 14,8 °C 91 % 1011,6 hPa 0,0 mm 5,7 km/h (1 Bft) W-SW 248 ° 0 min 0,000 mm 0,0 UV-I 0 W/m² 13,3 °C 14,8 °C 11,3 km/h (2 Bft)
22.07.2018 00:09 14,9 °C 91 % 1011,6 hPa 0,0 mm 6,8 km/h (2 Bft) W 266 ° 0 min 0,000 mm 0,0 UV-I 0 W/m² 13,4 °C 14,9 °C 11,3 km/h (2 Bft)
22.07.2018 00:10 14,8 °C 91 % 1011,6 hPa 0,0 mm 3,6 km/h (1 Bft) W-SW 253 ° 0 min 0,000 mm 0,0 UV-I 0 W/m² 13,3 °C 14,8 °C 8,0 km/h (2 Bft)
22.07.2018 00:11 14,9 °C 91 % 1011,6 hPa 0,0 mm 2,4 km/h (1 Bft) W-SW 242 ° 0 min 0,000 mm 0,0 UV-I 0 W/m² 13,4 °C 14,9 °C 4,8 km/h (1 Bft)
22.07.2018 00:12 14,8 °C 91 % 1011,6 hPa 0,0 mm 0,9 km/h (0 Bft) W-NW 296 ° 0 min 0,000 mm 0,0 UV-I 0 W/m² 13,3 °C 14,8 °C 3,2 km/h (1 Bft)
22.07.2018 00:13 14,8 °C 91 % 1011,5 hPa 0,0 mm 1,6 km/h (1 Bft) W-SW 243 ° 0 min 0,000 mm 0,0 UV-I 0 W/m² 13,3 °C 14,8 °C 3,2 km/h (1 Bft)
22.07.2018 00:14 14,8 °C 91 % 1011,5 hPa 0,0 mm 1,3 km/h (1 Bft) W 277 ° 0 min 0,000 mm 0,0 UV-I 0 W/m² 13,3 °C 14,8 °C 4,8 km/h (1 Bft)
22.07.2018 00:15 14,8 °C 91 % 1011,5 hPa 0,0 mm 1,9 km/h (1 Bft) W 277 ° 0 min 0,000 mm 0,0 UV-I 0 W/m² 13,3 °C 14,8 °C 6,4 km/h (2 Bft)
22.07.2018 00:16 14,8 °C 91 % 1011,6 hPa 0,0 mm 0,3 km/h (0 Bft) W 277 ° 0 min 0,000 mm 0,0 UV-I 0 W/m² 13,3 °C 14,8 °C 1,6 km/h (1 Bft)
22.07.2018 00:17 14,8 °C 91 % 1011,5 hPa 0,0 mm 1,9 km/h (1 Bft) W-SW 254 ° 0 min 0,000 mm 0,0 UV-I 0 W/m² 13,3 °C 14,8 °C 3,2 km/h (1 Bft)
22.07.2018 00:18 14,8 °C 91 % 1011,6 hPa 0,0 mm 2,3 km/h (1 Bft) W-SW 254 ° 0 min 0,000 mm 0,0 UV-I 0 W/m² 13,3 °C 14,8 °C 4,8 km/h (1 Bft)
22.07.2018 00:19 14,8 °C 91 % 1011,5 hPa 0,0 mm 0,8 km/h (0 Bft) W-SW 254 ° 0 min 0,000 mm 0,0 UV-I 0 W/m² 13,3 °C 14,8 °C 1,6 km/h (1 Bft)
22.07.2018 00:20 14,8 °C 91 % 1011,5 hPa 0,0 mm 2,2 km/h (1 Bft) W-SW 254 ° 0 min 0,000 mm 0,0 UV-I 0 W/m² 13,3 °C 14,8 °C 4,8 km/h (1 Bft)
22.07.2018 00:21 14,9 °C 91 % 1011,6 hPa 0,0 mm 1,5 km/h (1 Bft) W-SW 254 ° 0 min 0,000 mm 0,0 UV-I 0 W/m² 13,4 °C 14,9 °C 3,2 km/h (1 Bft)
22.07.2018 00:22 14,8 °C 91 % 1011,5 hPa 0,0 mm 2,7 km/h (1 Bft) W-SW 250 ° 0 min 0,000 mm 0,0 UV-I 0 W/m² 13,3 °C 14,8 °C 6,4 km/h (2 Bft)
22.07.2018 00:23 14,8 °C 91 % 1011,5 hPa 0,0 mm 2,1 km/h (1 Bft) W-SW 250 ° 0 min 0,000 mm 0,0 UV-I 0 W/m² 13,3 °C 14,8 °C 4,8 km/h (1 Bft)
22.07.2018 00:24 14,8 °C 91 % 1011,6 hPa 0,0 mm 1,1 km/h (1 Bft) W-SW 250 ° 0 min 0,000 mm 0,0 UV-I 0 W/m² 13,3 °C 14,8 °C 3,2 km/h (1 Bft)
22.07.2018 00:25 14,8 °C 91 % 1011,5 hPa 0,0 mm 3,4 km/h (1 Bft) W-SW 242 ° 0 min 0,000 mm 0,0 UV-I 0 W/m² 13,3 °C 14,8 °C 8,0 km/h (2 Bft)
22.07.2018 00:26 14,8 °C 91 % 1011,6 hPa 0,0 mm 1,5 km/h (1 Bft) W-SW 242 ° 0 min 0,000 mm 0,0 UV-I 0 W/m² 13,3 °C 14,8 °C 6,4 km/h (2 Bft)
22.07.2018 00:27 14,8 °C 91 % 1011,5 hPa 0,0 mm 2,3 km/h (1 Bft) SW 232 ° 0 min 0,000 mm 0,0 UV-I 0 W/m² 13,3 °C 14,8 °C 4,8 km/h (1 Bft)
22.07.2018 00:28 14,8 °C 91 % 1011,5 hPa 0,0 mm 0,3 km/h (0 Bft) SW 232 ° 0 min 0,000 mm 0,0 UV-I 0 W/m² 13,3 °C 14,8 °C 1,6 km/h (1 Bft)
22.07.2018 00:29 14,8 °C 91 % 1011,6 hPa 0,0 mm 2,1 km/h (1 Bft) SW 236 ° 0 min 0,000 mm 0,0 UV-I 0 W/m² 13,3 °C 14,8 °C 4,8 km/h (1 Bft)
22.07.2018 00:30 14,8 °C 91 % 1011,5 hPa 0,0 mm 1,2 km/h (1 Bft) SW 236 ° 0 min 0,000 mm 0,0 UV-I 0 W/m² 13,3 °C 14,8 °C 4,8 km/h (1 Bft)
22.07.2018 00:31 14,8 °C 91 % 1011,5 hPa 0,0 mm 0,0 km/h (0 Bft) SW 236 ° 0 min 0,000 mm 0,0 UV-I 0 W/m² 13,3 °C 14,8 °C 0,0 km/h (0 Bft)
22.07.2018 00:32 14,8 °C 91 % 1011,5 hPa 0,0 mm 0,9 km/h (0 Bft) S-SW 192 ° 0 min 0,000 mm 0,0 UV-I 0 W/m² 13,3 °C 14,8 °C 4,8 km/h (1 Bft)
22.07.2018 00:33 14,8 °C 91 % 1011,5 hPa 0,0 mm 2,3 km/h (1 Bft) SW 225 ° 0 min 0,000 mm 0,0 UV-I 0 W/m² 13,3 °C 14,8 °C 8,0 km/h (2 Bft)
22.07.2018 00:34 14,8 °C 91 % 1011,5 hPa 0,0 mm 1,3 km/h (1 Bft) SW 225 ° 0 min 0,000 mm 0,0 UV-I 0 W/m² 13,3 °C 14,8 °C 3,2 km/h (1 Bft)
22.07.2018 00:35 14,8 °C 91 % 1011,5 hPa 0,0 mm 1,6 km/h (1 Bft) W-SW 249 ° 0 min 0,000 mm 0,0 UV-I 0 W/m² 13,3 °C 14,8 °C 3,2 km/h (1 Bft)
22.07.2018 00:36 14,8 °C 91 % 1011,4 hPa 0,0 mm 1,3 km/h (1 Bft) W-SW 249 ° 0 min 0,000 mm 0,0 UV-I 0 W/m² 13,3 °C 14,8 °C 3,2 km/h (1 Bft)
22.07.2018 00:37 14,8 °C 90 % 1011,5 hPa 0,0 mm 2,1 km/h (1 Bft) SW 225 ° 0 min 0,000 mm 0,0 UV-I 0 W/m² 13,2 °C 14,8 °C 3,2 km/h (1 Bft)
22.07.2018 00:38 14,8 °C 90 % 1011,5 hPa 0,0 mm 1,7 km/h (1 Bft) SW 226 ° 0 min 0,000 mm 0,0 UV-I 0 W/m² 13,2 °C 14,8 °C 9,7 km/h (2 Bft)
22.07.2018 00:39 14,8 °C 90 % 1011,5 hPa 0,0 mm 4,4 km/h (1 Bft) W-SW 244 ° 0 min 0,000 mm 0,0 UV-I 0 W/m² 13,2 °C 14,8 °C 8,0 km/h (2 Bft)
22.07.2018 00:40 14,9 °C 90 % 1011,5 hPa 0,0 mm 2,7 km/h (1 Bft) W-SW 254 ° 0 min 0,000 mm 0,0 UV-I 0 W/m² 13,3 °C 14,9 °C 4,8 km/h (1 Bft)
22.07.2018 00:41 14,9 °C 90 % 1011,5 hPa 0,0 mm 2,5 km/h (1 Bft) S-SW 209 ° 0 min 0,000 mm 0,0 UV-I 0 W/m² 13,3 °C 14,9 °C 4,8 km/h (1 Bft)
22.07.2018 00:42 14,9 °C 90 % 1011,4 hPa 0,0 mm 2,3 km/h (1 Bft) SW 224 ° 0 min 0,000 mm 0,0 UV-I 0 W/m² 13,3 °C 14,9 °C 4,8 km/h (1 Bft)
22.07.2018 00:43 14,9 °C 90 % 1011,5 hPa 0,0 mm 1,5 km/h (1 Bft) SW 224 ° 0 min 0,000 mm 0,0 UV-I 0 W/m² 13,3 °C 14,9 °C 3,2 km/h (1 Bft)
22.07.2018 00:44 14,9 °C 90 % 1011,4 hPa 0,0 mm 2,7 km/h (1 Bft) S-SW 208 ° 0 min 0,000 mm 0,0 UV-I 0 W/m² 13,3 °C 14,9 °C 6,4 km/h (2 Bft)
22.07.2018 00:45 14,9 °C 90 % 1011,5 hPa 0,0 mm 0,9 km/h (0 Bft) W-SW 238 ° 0 min 0,000 mm 0,0 UV-I 0 W/m² 13,3 °C 14,9 °C 3,2 km/h (1 Bft)
22.07.2018 00:46 14,9 °C 90 % 1011,5 hPa 0,0 mm 2,3 km/h (1 Bft) W-SW 242 ° 0 min 0,000 mm 0,0 UV-I 0 W/m² 13,3 °C 14,9 °C 4,8 km/h (1 Bft)
22.07.2018 00:47 14,9 °C 90 % 1011,5 hPa 0,0 mm 4,1 km/h (1 Bft) W-SW 240 ° 0 min 0,000 mm 0,0 UV-I 0 W/m² 13,3 °C 14,9 °C 8,0 km/h (2 Bft)
22.07.2018 00:48 14,9 °C 90 % 1011,5 hPa 0,0 mm 3,6 km/h (1 Bft) S-SW 211 ° 0 min 0,000 mm 0,0 UV-I 0 W/m² 13,3 °C 14,9 °C 4,8 km/h (1 Bft)
22.07.2018 00:49 14,9 °C 90 % 1011,4 hPa 0,0 mm 2,5 km/h (1 Bft) S-SW 206 ° 0 min 0,000 mm 0,0 UV-I 0 W/m² 13,3 °C 14,9 °C 4,8 km/h (1 Bft)
22.07.2018 00:50 14,9 °C 90 % 1011,4 hPa 0,0 mm 4,2 km/h (1 Bft) W 271 ° 0 min 0,000 mm 0,0 UV-I 0 W/m² 13,3 °C 14,9 °C 8,0 km/h (2 Bft)
22.07.2018 00:51 14,9 °C 89 % 1011,4 hPa 0,0 mm 1,8 km/h (1 Bft) W-SW 244 ° 0 min 0,000 mm 0,0 UV-I 0 W/m² 13,1 °C 14,9 °C 4,8 km/h (1 Bft)
22.07.2018 00:52 14,9 °C 89 % 1011,4 hPa 0,0 mm 0,7 km/h (0 Bft) W-SW 244 ° 0 min 0,000 mm 0,0 UV-I 0 W/m² 13,1 °C 14,9 °C 3,2 km/h (1 Bft)
22.07.2018 00:53 14,9 °C 89 % 1011,4 hPa 0,0 mm 3,4 km/h (1 Bft) W-SW 238 ° 0 min 0,000 mm 0,0 UV-I 0 W/m² 13,1 °C 14,9 °C 6,4 km/h (2 Bft)
22.07.2018 00:54 15,0 °C 89 % 1011,5 hPa 0,0 mm 3,2 km/h (1 Bft) W-SW 251 ° 0 min 0,000 mm 0,0 UV-I 0 W/m² 13,2 °C 15,0 °C 4,8 km/h (1 Bft)
22.07.2018 00:55 15,0 °C 89 % 1011,5 hPa 0,0 mm 2,1 km/h (1 Bft) SW 225 ° 0 min 0,000 mm 0,0 UV-I 0 W/m² 13,2 °C 15,0 °C 8,0 km/h (2 Bft)
22.07.2018 00:56 15,0 °C 89 % 1011,5 hPa 0,0 mm 3,0 km/h (1 Bft) W-SW 254 ° 0 min 0,000 mm 0,0 UV-I 0 W/m² 13,2 °C 15,0 °C 8,0 km/h (2 Bft)
22.07.2018 00:57 15,0 °C 89 % 1011,5 hPa 0,0 mm 2,3 km/h (1 Bft) W 281 ° 0 min 0,000 mm 0,0 UV-I 0 W/m² 13,2 °C 15,0 °C 6,4 km/h (2 Bft)
22.07.2018 00:58 15,0 °C 89 % 1011,5 hPa 0,0 mm 2,4 km/h (1 Bft) W-SW 248 ° 0 min 0,000 mm 0,0 UV-I 0 W/m² 13,2 °C 15,0 °C 4,8 km/h (1 Bft)
22.07.2018 00:59 15,0 °C 89 % 1011,5 hPa 0,0 mm 3,8 km/h (1 Bft) S-SW 193 ° 0 min 0,000 mm 0,0 UV-I 0 W/m² 13,2 °C 15,0 °C 6,4 km/h (2 Bft)
22.07.2018 01:00 15,0 °C 89 % 1011,5 hPa 0,0 mm 4,3 km/h (1 Bft) S-SW 204 ° 0 min 0,000 mm 0,0 UV-I 0 W/m² 13,2 °C 15,0 °C 11,3 km/h (2 Bft)
22.07.2018 01:01 15,0 °C 89 % 1011,5 hPa 0,0 mm 1,4 km/h (1 Bft) S 187 ° 0 min 0,000 mm 0,0 UV-I 0 W/m² 13,2 °C 15,0 °C 4,8 km/h (1 Bft)
22.07.2018 01:02 15,0 °C 89 % 1011,5 hPa 0,0 mm 4,8 km/h (1 Bft) S-SW 208 ° 0 min 0,000 mm 0,0 UV-I 0 W/m² 13,2 °C 15,0 °C 11,3 km/h (2 Bft)
22.07.2018 01:03 15,0 °C 89 % 1011,5 hPa 0,0 mm 2,9 km/h (1 Bft) SW 226 ° 0 min 0,000 mm 0,0 UV-I 0 W/m² 13,2 °C 15,0 °C 6,4 km/h (2 Bft)
22.07.2018 01:04 15,1 °C 89 % 1011,5 hPa 0,0 mm 5,5 km/h (1 Bft) W-SW 239 ° 0 min 0,000 mm 0,0 UV-I 0 W/m² 13,3 °C 15,1 °C 11,3 km/h (2 Bft)
22.07.2018 01:05 15,0 °C 89 % 1011,5 hPa 0,0 mm 3,8 km/h (1 Bft) W 263 ° 0 min 0,000 mm 0,0 UV-I 0 W/m² 13,2 °C 15,0 °C 6,4 km/h (2 Bft)
22.07.2018 01:06 15,1 °C 89 % 1011,5 hPa 0,0 mm 0,5 km/h (0 Bft) W-SW 244 ° 0 min 0,000 mm 0,0 UV-I 0 W/m² 13,3 °C 15,1 °C 1,6 km/h (1 Bft)
22.07.2018 01:07 15,1 °C 89 % 1011,5 hPa 0,0 mm 0,5 km/h (0 Bft) W-SW 244 ° 0 min 0,000 mm 0,0 UV-I 0 W/m² 13,3 °C 15,1 °C 1,6 km/h (1 Bft)
22.07.2018 01:08 15,0 °C 89 % 1011,5 hPa 0,0 mm 1,1 km/h (1 Bft) W-SW 244 ° 0 min 0,000 mm 0,0 UV-I 0 W/m² 13,2 °C 15,0 °C 3,2 km/h (1 Bft)
22.07.2018 01:09 15,0 °C 89 % 1011,5 hPa 0,0 mm 0,7 km/h (0 Bft) W-SW 244 ° 0 min 0,000 mm 0,0 UV-I 0 W/m² 13,2 °C 15,0 °C 3,2 km/h (1 Bft)
22.07.2018 01:10 15,0 °C 89 % 1011,5 hPa 0,0 mm 0,8 km/h (0 Bft) W-SW 245 ° 0 min 0,000 mm 0,0 UV-I 0 W/m² 13,2 °C 15,0 °C 1,6 km/h (1 Bft)
22.07.2018 01:11 14,9 °C 89 % 1011,5 hPa 0,0 mm 0,1 km/h (0 Bft) W-SW 245 ° 0 min 0,000 mm 0,0 UV-I 0 W/m² 13,1 °C 14,9 °C 1,6 km/h (1 Bft)
22.07.2018 01:12 14,9 °C 89 % 1011,5 hPa 0,0 mm 3,1 km/h (1 Bft) S-SW 195 ° 0 min 0,000 mm 0,0 UV-I 0 W/m² 13,1 °C 14,9 °C 8,0 km/h (2 Bft)
22.07.2018 01:13 14,9 °C 89 % 1011,5 hPa 0,0 mm 4,2 km/h (1 Bft) S-SW 198 ° 0 min 0,000 mm 0,0 UV-I 0 W/m² 13,1 °C 14,9 °C 6,4 km/h (2 Bft)
22.07.2018 01:14 14,9 °C 89 % 1011,5 hPa 0,0 mm 6,7 km/h (2 Bft) S 188 ° 0 min 0,000 mm 0,0 UV-I 0 W/m² 13,1 °C 14,9 °C 9,7 km/h (2 Bft)
22.07.2018 01:15 14,9 °C 89 % 1011,5 hPa 0,0 mm 2,4 km/h (1 Bft) S 188 ° 0 min 0,000 mm 0,0 UV-I 0 W/m² 13,1 °C 14,9 °C 6,4 km/h (2 Bft)
22.07.2018 01:16 14,9 °C 89 % 1011,5 hPa 0,0 mm 1,8 km/h (1 Bft) S 188 ° 0 min 0,000 mm 0,0 UV-I 0 W/m² 13,1 °C 14,9 °C 4,8 km/h (1 Bft)
22.07.2018 01:17 14,9 °C 89 % 1011,5 hPa 0,0 mm 0,5 km/h (0 Bft) S 188 ° 0 min 0,000 mm 0,0 UV-I 0 W/m² 13,1 °C 14,9 °C 1,6 km/h (1 Bft)
22.07.2018 01:18 14,9 °C 89 % 1011,4 hPa 0,0 mm 5,4 km/h (1 Bft) S 186 ° 0 min 0,000 mm 0,0 UV-I 0 W/m² 13,1 °C 14,9 °C 9,7 km/h (2 Bft)
22.07.2018 01:19 14,9 °C 89 % 1011,5 hPa 0,0 mm 2,3 km/h (1 Bft) SW 214 ° 0 min 0,000 mm 0,0 UV-I 0 W/m² 13,1 °C 14,9 °C 4,8 km/h (1 Bft)
22.07.2018 01:20 14,9 °C 89 % 1011,4 hPa 0,0 mm 2,5 km/h (1 Bft) S-SW 199 ° 0 min 0,000 mm 0,0 UV-I 0 W/m² 13,1 °C 14,9 °C 4,8 km/h (1 Bft)
22.07.2018 01:21 15,0 °C 89 % 1011,4 hPa 0,0 mm 1,0 km/h (0 Bft) S-SW 204 ° 0 min 0,000 mm 0,0 UV-I 0 W/m² 13,2 °C 15,0 °C 3,2 km/h (1 Bft)
22.07.2018 01:22 15,0 °C 89 % 1011,5 hPa 0,0 mm 3,4 km/h (1 Bft) S 184 ° 0 min 0,000 mm 0,0 UV-I 0 W/m² 13,2 °C 15,0 °C 8,0 km/h (2 Bft)
22.07.2018 01:23 15,0 °C 89 % 1011,5 hPa 0,0 mm 2,8 km/h (1 Bft) S-SW 197 ° 0 min 0,000 mm 0,0 UV-I 0 W/m² 13,2 °C 15,0 °C 6,4 km/h (2 Bft)
22.07.2018 01:24 15,0 °C 89 % 1011,5 hPa 0,0 mm 4,7 km/h (1 Bft) S 191 ° 0 min 0,000 mm 0,0 UV-I 0 W/m² 13,2 °C 15,0 °C 6,4 km/h (2 Bft)
22.07.2018 01:25 15,0 °C 89 % 1011,5 hPa 0,0 mm 5,8 km/h (2 Bft) S 190 ° 0 min 0,000 mm 0,0 UV-I 0 W/m² 13,2 °C 15,0 °C 11,3 km/h (2 Bft)
22.07.2018 01:26 15,0 °C 89 % 1011,5 hPa 0,0 mm 2,4 km/h (1 Bft) S-SW 194 ° 0 min 0,000 mm 0,0 UV-I 0 W/m² 13,2 °C 15,0 °C 3,2 km/h (1 Bft)
22.07.2018 01:27 15,0 °C 89 % 1011,4 hPa 0,0 mm 3,1 km/h (1 Bft) W 261 ° 0 min 0,000 mm 0,0 UV-I 0 W/m² 13,2 °C 15,0 °C 6,4 km/h (2 Bft)
22.07.2018 01:28 15,1 °C 89 % 1011,5 hPa 0,0 mm 0,1 km/h (0 Bft) W 269 ° 0 min 0,000 mm 0,0 UV-I 0 W/m² 13,3 °C 15,1 °C 1,6 km/h (1 Bft)
22.07.2018 01:29 15,0 °C 89 % 1011,4 hPa 0,0 mm 0,2 km/h (0 Bft) W-SW 239 ° 0 min 0,000 mm 0,0 UV-I 0 W/m² 13,2 °C 15,0 °C 3,2 km/h (1 Bft)
22.07.2018 01:30 15,0 °C 89 % 1011,4 hPa 0,0 mm 4,9 km/h (1 Bft) SW 230 ° 0 min 0,000 mm 0,0 UV-I 0 W/m² 13,2 °C 15,0 °C 8,0 km/h (2 Bft)
22.07.2018 01:31 15,0 °C 89 % 1011,4 hPa 0,0 mm 2,7 km/h (1 Bft) SW 229 ° 0 min 0,000 mm 0,0 UV-I 0 W/m² 13,2 °C 15,0 °C 6,4 km/h (2 Bft)
22.07.2018 01:32 15,0 °C 89 % 1011,4 hPa 0,0 mm 1,9 km/h (1 Bft) S-SW 192 ° 0 min 0,000 mm 0,0 UV-I 0 W/m² 13,2 °C 15,0 °C 4,8 km/h (1 Bft)
22.07.2018 01:33 15,1 °C 88 % 1011,4 hPa 0,0 mm 2,9 km/h (1 Bft) SW 215 ° 0 min 0,000 mm 0,0 UV-I 0 W/m² 13,1 °C 15,1 °C 6,4 km/h (2 Bft)
22.07.2018 01:34 15,1 °C 88 % 1011,4 hPa 0,0 mm 3,3 km/h (1 Bft) W 281 ° 0 min 0,000 mm 0,0 UV-I 0 W/m² 13,1 °C 15,1 °C 11,3 km/h (2 Bft)
22.07.2018 01:35 15,1 °C 88 % 1011,4 hPa 0,0 mm 4,6 km/h (1 Bft) S-SW 211 ° 0 min 0,000 mm 0,0 UV-I 0 W/m² 13,1 °C 15,1 °C 11,3 km/h (2 Bft)
22.07.2018 01:36 15,1 °C 88 % 1011,4 hPa 0,0 mm 0,9 km/h (0 Bft) S-SW 211 ° 0 min 0,000 mm 0,0 UV-I 0 W/m² 13,1 °C 15,1 °C 3,2 km/h (1 Bft)
22.07.2018 01:37 15,1 °C 88 % 1011,4 hPa 0,0 mm 2,1 km/h (1 Bft) W-SW 252 ° 0 min 0,000 mm 0,0 UV-I 0 W/m² 13,1 °C 15,1 °C 4,8 km/h (1 Bft)
22.07.2018 01:38 15,1 °C 88 % 1011,4 hPa 0,0 mm 1,2 km/h (1 Bft) S-SW 207 ° 0 min 0,000 mm 0,0 UV-I 0 W/m² 13,1 °C 15,1 °C 3,2 km/h (1 Bft)
22.07.2018 01:39 15,1 °C 88 % 1011,5 hPa 0,0 mm 2,0 km/h (1 Bft) W-SW 237 ° 0 min 0,000 mm 0,0 UV-I 0 W/m² 13,1 °C 15,1 °C 4,8 km/h (1 Bft)
22.07.2018 01:40 15,1 °C 88 % 1011,4 hPa 0,0 mm 1,8 km/h (1 Bft) W-SW 250 ° 0 min 0,000 mm 0,0 UV-I 0 W/m² 13,1 °C 15,1 °C 4,8 km/h (1 Bft)
22.07.2018 01:41 15,1 °C 88 % 1011,4 hPa 0,0 mm 1,7 km/h (1 Bft) SW 225 ° 0 min 0,000 mm 0,0 UV-I 0 W/m² 13,1 °C 15,1 °C 4,8 km/h (1 Bft)
22.07.2018 01:42 15,0 °C 89 % 1011,5 hPa 0,0 mm 1,7 km/h (1 Bft) SW 225 ° 0 min 0,000 mm 0,0 UV-I 0 W/m² 13,2 °C 15,0 °C 4,8 km/h (1 Bft)
22.07.2018 01:43 15,0 °C 89 % 1011,4 hPa 0,0 mm 0,5 km/h (0 Bft) SW 225 ° 0 min 0,000 mm 0,0 UV-I 0 W/m² 13,2 °C 15,0 °C 1,6 km/h (1 Bft)
22.07.2018 01:44 14,9 °C 89 % 1011,3 hPa 0,0 mm 0,9 km/h (0 Bft) S-SW 194 ° 0 min 0,000 mm 0,0 UV-I 0 W/m² 13,1 °C 14,9 °C 6,4 km/h (2 Bft)
22.07.2018 01:45 14,9 °C 89 % 1011,4 hPa 0,0 mm 4,5 km/h (1 Bft) S-SW 192 ° 0 min 0,000 mm 0,0 UV-I 0 W/m² 13,1 °C 14,9 °C 6,4 km/h (2 Bft)
22.07.2018 01:46 14,9 °C 89 % 1011,4 hPa 0,0 mm 1,0 km/h (0 Bft) S-SW 192 ° 0 min 0,000 mm 0,0 UV-I 0 W/m² 13,1 °C 14,9 °C 4,8 km/h (1 Bft)
22.07.2018 01:47 14,9 °C 89 % 1011,5 hPa 0,0 mm 0,6 km/h (0 Bft) S-SW 192 ° 0 min 0,000 mm 0,0 UV-I 0 W/m² 13,1 °C 14,9 °C 3,2 km/h (1 Bft)
22.07.2018 01:48 14,9 °C 89 % 1011,4 hPa 0,0 mm 1,7 km/h (1 Bft) S-SW 192 ° 0 min 0,000 mm 0,0 UV-I 0 W/m² 13,1 °C 14,9 °C 3,2 km/h (1 Bft)
22.07.2018 01:49 14,9 °C 89 % 1011,4 hPa 0,0 mm 0,4 km/h (0 Bft) S-SW 192 ° 0 min 0,000 mm 0,0 UV-I 0 W/m² 13,1 °C 14,9 °C 1,6 km/h (1 Bft)
22.07.2018 01:50 14,9 °C 89 % 1011,4 hPa 0,0 mm 1,6 km/h (1 Bft) S-SW 193 ° 0 min 0,000 mm 0,0 UV-I 0 W/m² 13,1 °C 14,9 °C 4,8 km/h (1 Bft)
22.07.2018 01:51 14,9 °C 89 % 1011,4 hPa 0,0 mm 4,0 km/h (1 Bft) S-SW 194 ° 0 min 0,000 mm 0,0 UV-I 0 W/m² 13,1 °C 14,9 °C 8,0 km/h (2 Bft)
22.07.2018 01:52 14,9 °C 89 % 1011,3 hPa 0,0 mm 3,5 km/h (1 Bft) S 190 ° 0 min 0,000 mm 0,0 UV-I 0 W/m² 13,1 °C 14,9 °C 6,4 km/h (2 Bft)
22.07.2018 01:53 14,9 °C 89 % 1011,3 hPa 0,0 mm 0,1 km/h (0 Bft) S 190 ° 0 min 0,000 mm 0,0 UV-I 0 W/m² 13,1 °C 14,9 °C 1,6 km/h (1 Bft)
22.07.2018 01:54 14,9 °C 89 % 1011,3 hPa 0,0 mm 1,9 km/h (1 Bft) S 190 ° 0 min 0,000 mm 0,0 UV-I 0 W/m² 13,1 °C 14,9 °C 4,8 km/h (1 Bft)
22.07.2018 01:55 14,9 °C 89 % 1011,3 hPa 0,0 mm 2,5 km/h (1 Bft) S-SW 200 ° 0 min 0,000 mm 0,0 UV-I 0 W/m² 13,1 °C 14,9 °C 8,0 km/h (2 Bft)
22.07.2018 01:56 14,9 °C 89 % 1011,3 hPa 0,0 mm 5,2 km/h (1 Bft) W-NW 300 ° 0 min 0,000 mm 0,0 UV-I 0 W/m² 13,1 °C 14,9 °C 8,0 km/h (2 Bft)
22.07.2018 01:57 14,9 °C 89 % 1011,3 hPa 0,0 mm 3,7 km/h (1 Bft) S-SW 196 ° 0 min 0,000 mm 0,0 UV-I 0 W/m² 13,1 °C 14,9 °C 6,4 km/h (2 Bft)
22.07.2018 01:58 14,9 °C 89 % 1011,3 hPa 0,0 mm 0,8 km/h (0 Bft) S-SW 196 ° 0 min 0,000 mm 0,0 UV-I 0 W/m² 13,1 °C 14,9 °C 3,2 km/h (1 Bft)
22.07.2018 01:59 15,0 °C 89 % 1011,3 hPa 0,0 mm 1,7 km/h (1 Bft) S 190 ° 0 min 0,000 mm 0,0 UV-I 0 W/m² 13,2 °C 15,0 °C 4,8 km/h (1 Bft)
22.07.2018 02:00 15,1 °C 89 % 1011,3 hPa 0,0 mm 1,1 km/h (1 Bft) S 190 ° 0 min 0,000 mm 0,0 UV-I 0 W/m² 13,3 °C 15,1 °C 3,2 km/h (1 Bft)
22.07.2018 02:01 15,0 °C 89 % 1011,3 hPa 0,0 mm 1,9 km/h (1 Bft) S-SW 207 ° 0 min 0,000 mm 0,0 UV-I 0 W/m² 13,2 °C 15,0 °C 8,0 km/h (2 Bft)
22.07.2018 02:02 15,0 °C 89 % 1011,2 hPa 0,0 mm 5,6 km/h (1 Bft) S-SW 201 ° 0 min 0,000 mm 0,0 UV-I 0 W/m² 13,2 °C 15,0 °C 8,0 km/h (2 Bft)
22.07.2018 02:03 15,1 °C 88 % 1011,2 hPa 0,0 mm 3,8 km/h (1 Bft) S 175 ° 0 min 0,000 mm 0,0 UV-I 0 W/m² 13,1 °C 15,1 °C 6,4 km/h (2 Bft)
22.07.2018 02:04 15,1 °C 88 % 1011,2 hPa 0,0 mm 0,6 km/h (0 Bft) S 184 ° 0 min 0,000 mm 0,0 UV-I 0 W/m² 13,1 °C 15,1 °C 3,2 km/h (1 Bft)
22.07.2018 02:05 15,1 °C 88 % 1011,2 hPa 0,0 mm 1,8 km/h (1 Bft) S-SW 193 ° 0 min 0,000 mm 0,0 UV-I 0 W/m² 13,1 °C 15,1 °C 3,2 km/h (1 Bft)
22.07.2018 02:06 15,0 °C 88 % 1011,2 hPa 0,0 mm 1,2 km/h (1 Bft) S-SW 192 ° 0 min 0,000 mm 0,0 UV-I 0 W/m² 13,0 °C 15,0 °C 1,6 km/h (1 Bft)
22.07.2018 02:07 15,1 °C 88 % 1011,2 hPa 0,0 mm 0,8 km/h (0 Bft) S-SW 193 ° 0 min 0,000 mm 0,0 UV-I 0 W/m² 13,1 °C 15,1 °C 1,6 km/h (1 Bft)
22.07.2018 02:08 15,1 °C 88 % 1011,2 hPa 0,0 mm 2,9 km/h (1 Bft) S 188 ° 0 min 0,000 mm 0,0 UV-I 0 W/m² 13,1 °C 15,1 °C 6,4 km/h (2 Bft)
22.07.2018 02:09 15,1 °C 88 % 1011,2 hPa 0,0 mm 3,4 km/h (1 Bft) SW 232 ° 0 min 0,000 mm 0,0 UV-I 0 W/m² 13,1 °C 15,1 °C 4,8 km/h (1 Bft)
22.07.2018 02:10 15,1 °C 88 % 1011,2 hPa 0,0 mm 2,2 km/h (1 Bft) W-SW 238 ° 0 min 0,000 mm 0,0 UV-I 0 W/m² 13,1 °C 15,1 °C 3,2 km/h (1 Bft)
22.07.2018 02:11 15,1 °C 89 % 1011,2 hPa 0,0 mm 3,4 km/h (1 Bft) W-SW 255 ° 0 min 0,000 mm 0,0 UV-I 0 W/m² 13,3 °C 15,1 °C 4,8 km/h (1 Bft)
22.07.2018 02:12 15,1 °C 88 % 1011,2 hPa 0,0 mm 2,6 km/h (1 Bft) SW 223 ° 0 min 0,000 mm 0,0 UV-I 0 W/m² 13,1 °C 15,1 °C 4,8 km/h (1 Bft)
22.07.2018 02:13 15,1 °C 89 % 1011,2 hPa 0,0 mm 3,6 km/h (1 Bft) W-SW 238 ° 0 min 0,000 mm 0,0 UV-I 0 W/m² 13,3 °C 15,1 °C 4,8 km/h (1 Bft)
22.07.2018 02:14 15,1 °C 89 % 1011,3 hPa 0,0 mm 1,7 km/h (1 Bft) W-SW 238 ° 0 min 0,000 mm 0,0 UV-I 0 W/m² 13,3 °C 15,1 °C 3,2 km/h (1 Bft)
22.07.2018 02:15 15,1 °C 89 % 1011,2 hPa 0,0 mm 1,4 km/h (1 Bft) W-SW 257 ° 0 min 0,000 mm 0,0 UV-I 0 W/m² 13,3 °C 15,1 °C 4,8 km/h (1 Bft)
22.07.2018 02:16 15,0 °C 89 % 1011,3 hPa 0,0 mm 0,5 km/h (0 Bft) W-SW 257 ° 0 min 0,000 mm 0,0 UV-I 0 W/m² 13,2 °C 15,0 °C 3,2 km/h (1 Bft)
22.07.2018 02:17 15,0 °C 89 % 1011,3 hPa 0,0 mm 1,4 km/h (1 Bft) W 278 ° 0 min 0,000 mm 0,0 UV-I 0 W/m² 13,2 °C 15,0 °C 6,4 km/h (2 Bft)
22.07.2018 02:18 15,0 °C 89 % 1011,3 hPa 0,0 mm 2,7 km/h (1 Bft) W-SW 249 ° 0 min 0,000 mm 0,0 UV-I 0 W/m² 13,2 °C 15,0 °C 4,8 km/h (1 Bft)
22.07.2018 02:19 15,0 °C 89 % 1011,3 hPa 0,0 mm 2,9 km/h (1 Bft) W-SW 257 ° 0 min 0,000 mm 0,0 UV-I 0 W/m² 13,2 °C 15,0 °C 4,8 km/h (1 Bft)
22.07.2018 02:20 15,0 °C 90 % 1011,3 hPa 0,0 mm 0,8 km/h (0 Bft) W-SW 257 ° 0 min 0,000 mm 0,0 UV-I 0 W/m² 13,4 °C 15,0 °C 1,6 km/h (1 Bft)
22.07.2018 02:21 14,9 °C 90 % 1011,3 hPa 0,0 mm 1,7 km/h (1 Bft) W-SW 257 ° 0 min 0,000 mm 0,0 UV-I 0 W/m² 13,3 °C 14,9 °C 3,2 km/h (1 Bft)
22.07.2018 02:22 14,9 °C 90 % 1011,3 hPa 0,0 mm 2,6 km/h (1 Bft) W-SW 257 ° 0 min 0,000 mm 0,0 UV-I 0 W/m² 13,3 °C 14,9 °C 4,8 km/h (1 Bft)
22.07.2018 02:23 14,8 °C 90 % 1011,4 hPa 0,0 mm 1,7 km/h (1 Bft) W-SW 257 ° 0 min 0,000 mm 0,0 UV-I 0 W/m² 13,2 °C 14,8 °C 3,2 km/h (1 Bft)
22.07.2018 02:24 14,8 °C 90 % 1011,4 hPa 0,2 mm 0,3 km/h (0 Bft) W-SW 257 ° 0 min 0,000 mm 0,0 UV-I 0 W/m² 13,2 °C 14,8 °C 3,2 km/h (1 Bft)
22.07.2018 02:25 14,8 °C 90 % 1011,4 hPa 0,0 mm 2,3 km/h (1 Bft) W-SW 257 ° 0 min 0,000 mm 0,0 UV-I 0 W/m² 13,2 °C 14,8 °C 4,8 km/h (1 Bft)
22.07.2018 02:26 14,7 °C 91 % 1011,4 hPa 0,0 mm 3,4 km/h (1 Bft) W-SW 240 ° 0 min 0,000 mm 0,0 UV-I 0 W/m² 13,2 °C 14,7 °C 4,8 km/h (1 Bft)
22.07.2018 02:27 14,7 °C 90 % 1011,3 hPa 0,0 mm 2,9 km/h (1 Bft) W-SW 248 ° 0 min 0,000 mm 0,0 UV-I 0 W/m² 13,1 °C 14,7 °C 4,8 km/h (1 Bft)
22.07.2018 02:28 14,6 °C 91 % 1011,3 hPa 0,0 mm 2,2 km/h (1 Bft) W 270 ° 0 min 0,000 mm 0,0 UV-I 0 W/m² 13,1 °C 14,6 °C 6,4 km/h (2 Bft)
22.07.2018 02:29 14,6 °C 91 % 1011,3 hPa 0,2 mm 3,7 km/h (1 Bft) W 277 ° 0 min 0,000 mm 0,0 UV-I 0 W/m² 13,1 °C 14,6 °C 4,8 km/h (1 Bft)
22.07.2018 02:30 14,6 °C 91 % 1011,4 hPa 0,0 mm 2,4 km/h (1 Bft) W 277 ° 0 min 0,000 mm 0,0 UV-I 0 W/m² 13,1 °C 14,6 °C 4,8 km/h (1 Bft)
22.07.2018 02:31 14,5 °C 91 % 1011,4 hPa 0,0 mm 1,9 km/h (1 Bft) W 277 ° 0 min 0,000 mm 0,0 UV-I 0 W/m² 13,0 °C 14,5 °C 3,2 km/h (1 Bft)
22.07.2018 02:32 14,4 °C 91 % 1011,4 hPa 0,2 mm 0,6 km/h (0 Bft) W 277 ° 0 min 0,000 mm 0,0 UV-I 0 W/m² 12,9 °C 14,4 °C 3,2 km/h (1 Bft)
22.07.2018 02:33 14,4 °C 91 % 1011,4 hPa 0,0 mm 0,6 km/h (0 Bft) W 277 ° 0 min 0,000 mm 0,0 UV-I 0 W/m² 12,9 °C 14,4 °C 1,6 km/h (1 Bft)
22.07.2018 02:34 14,4 °C 91 % 1011,4 hPa 0,0 mm 0,6 km/h (0 Bft) W 277 ° 0 min 0,000 mm 0,0 UV-I 0 W/m² 12,9 °C 14,4 °C 1,6 km/h (1 Bft)
22.07.2018 02:35 14,3 °C 91 % 1011,4 hPa 0,0 mm 1,6 km/h (1 Bft) W 277 ° 0 min 0,000 mm 0,0 UV-I 0 W/m² 12,8 °C 14,3 °C 4,8 km/h (1 Bft)
22.07.2018 02:36 14,4 °C 92 % 1011,4 hPa 0,0 mm 1,4 km/h (1 Bft) W 272 ° 0 min 0,000 mm 0,0 UV-I 0 W/m² 13,1 °C 14,4 °C 4,8 km/h (1 Bft)
22.07.2018 02:37 14,3 °C 92 % 1011,4 hPa 0,0 mm 6,4 km/h (2 Bft) SW 227 ° 0 min 0,000 mm 0,0 UV-I 0 W/m² 13,0 °C 14,3 °C 11,3 km/h (2 Bft)
22.07.2018 02:38 14,3 °C 92 % 1011,4 hPa 0,0 mm 3,1 km/h (1 Bft) SW 226 ° 0 min 0,000 mm 0,0 UV-I 0 W/m² 13,0 °C 14,3 °C 4,8 km/h (1 Bft)
22.07.2018 02:39 14,3 °C 92 % 1011,4 hPa 0,0 mm 2,8 km/h (1 Bft) W-SW 257 ° 0 min 0,000 mm 0,0 UV-I 0 W/m² 13,0 °C 14,3 °C 4,8 km/h (1 Bft)
22.07.2018 02:40 14,3 °C 92 % 1011,4 hPa 0,0 mm 4,4 km/h (1 Bft) SW 220 ° 0 min 0,000 mm 0,0 UV-I 0 W/m² 13,0 °C 14,3 °C 9,7 km/h (2 Bft)
22.07.2018 02:41 14,3 °C 92 % 1011,4 hPa 0,0 mm 3,6 km/h (1 Bft) W-SW 257 ° 0 min 0,000 mm 0,0 UV-I 0 W/m² 13,0 °C 14,3 °C 6,4 km/h (2 Bft)
22.07.2018 02:42 14,3 °C 92 % 1011,4 hPa 0,0 mm 2,5 km/h (1 Bft) W-NW 292 ° 0 min 0,000 mm 0,0 UV-I 0 W/m² 13,0 °C 14,3 °C 3,2 km/h (1 Bft)
22.07.2018 02:43 14,3 °C 92 % 1011,4 hPa 0,0 mm 5,1 km/h (1 Bft) SW 236 ° 0 min 0,000 mm 0,0 UV-I 0 W/m² 13,0 °C 14,3 °C 11,3 km/h (2 Bft)
22.07.2018 02:44 14,3 °C 92 % 1011,3 hPa 0,0 mm 7,2 km/h (2 Bft) W 268 ° 0 min 0,000 mm 0,0 UV-I 0 W/m² 13,0 °C 14,3 °C 11,3 km/h (2 Bft)
22.07.2018 02:45 14,3 °C 92 % 1011,3 hPa 0,0 mm 4,9 km/h (1 Bft) W-SW 245 ° 0 min 0,000 mm 0,0 UV-I 0 W/m² 13,0 °C 14,3 °C 8,0 km/h (2 Bft)
22.07.2018 02:46 14,3 °C 92 % 1011,3 hPa 0,0 mm 4,2 km/h (1 Bft) SW 232 ° 0 min 0,000 mm 0,0 UV-I 0 W/m² 13,0 °C 14,3 °C 9,7 km/h (2 Bft)
22.07.2018 02:47 14,3 °C 92 % 1011,3 hPa 0,0 mm 2,9 km/h (1 Bft) SW 233 ° 0 min 0,000 mm 0,0 UV-I 0 W/m² 13,0 °C 14,3 °C 6,4 km/h (2 Bft)
22.07.2018 02:48 14,3 °C 92 % 1011,3 hPa 0,0 mm 0,7 km/h (0 Bft) SW 234 ° 0 min 0,000 mm 0,0 UV-I 0 W/m² 13,0 °C 14,3 °C 3,2 km/h (1 Bft)
22.07.2018 02:49 14,3 °C 92 % 1011,3 hPa 0,0 mm 1,7 km/h (1 Bft) SW 234 ° 0 min 0,000 mm 0,0 UV-I 0 W/m² 13,0 °C 14,3 °C 3,2 km/h (1 Bft)
22.07.2018 02:50 14,3 °C 92 % 1011,3 hPa 0,0 mm 2,8 km/h (1 Bft) W 274 ° 0 min 0,000 mm 0,0 UV-I 0 W/m² 13,0 °C 14,3 °C 4,8 km/h (1 Bft)
22.07.2018 02:51 14,3 °C 92 % 1011,3 hPa 0,0 mm 1,0 km/h (0 Bft) W 274 ° 0 min 0,000 mm 0,0 UV-I 0 W/m² 13,0 °C 14,3 °C 3,2 km/h (1 Bft)
22.07.2018 02:52 14,3 °C 92 % 1011,3 hPa 0,0 mm 2,8 km/h (1 Bft) W-SW 258 ° 0 min 0,000 mm 0,0 UV-I 0 W/m² 13,0 °C 14,3 °C 4,8 km/h (1 Bft)
22.07.2018 02:53 14,3 °C 92 % 1011,3 hPa 0,0 mm 2,4 km/h (1 Bft) W 260 ° 0 min 0,000 mm 0,0 UV-I 0 W/m² 13,0 °C 14,3 °C 4,8 km/h (1 Bft)
22.07.2018 02:54 14,3 °C 92 % 1011,3 hPa 0,0 mm 1,3 km/h (1 Bft) W-SW 244 ° 0 min 0,000 mm 0,0 UV-I 0 W/m² 13,0 °C 14,3 °C 3,2 km/h (1 Bft)
22.07.2018 02:55 14,3 °C 92 % 1011,3 hPa 0,0 mm 0,0 km/h (0 Bft) W-SW 244 ° 0 min 0,000 mm 0,0 UV-I 0 W/m² 13,0 °C 14,3 °C 0,0 km/h (0 Bft)
22.07.2018 02:56 14,3 °C 92 % 1011,3 hPa 0,0 mm 1,9 km/h (1 Bft) W 263 ° 0 min 0,000 mm 0,0 UV-I 0 W/m² 13,0 °C 14,3 °C 4,8 km/h (1 Bft)
22.07.2018 02:57 14,3 °C 92 % 1011,3 hPa 0,0 mm 4,7 km/h (1 Bft) SW 216 ° 0 min 0,000 mm 0,0 UV-I 0 W/m² 13,0 °C 14,3 °C 11,3 km/h (2 Bft)
22.07.2018 02:58 14,3 °C 92 % 1011,4 hPa 0,0 mm 0,3 km/h (0 Bft) SW 217 ° 0 min 0,000 mm 0,0 UV-I 0 W/m² 13,0 °C 14,3 °C 3,2 km/h (1 Bft)
22.07.2018 02:59 14,3 °C 92 % 1011,4 hPa 0,0 mm 2,3 km/h (1 Bft) SW 217 ° 0 min 0,000 mm 0,0 UV-I 0 W/m² 13,0 °C 14,3 °C 4,8 km/h (1 Bft)
22.07.2018 03:00 14,3 °C 92 % 1011,3 hPa 0,0 mm 3,8 km/h (1 Bft) S 180 ° 0 min 0,000 mm 0,0 UV-I 0 W/m² 13,0 °C 14,3 °C 8,0 km/h (2 Bft)
22.07.2018 03:01 14,3 °C 92 % 1011,3 hPa 0,0 mm 5,4 km/h (1 Bft) W 259 ° 0 min 0,000 mm 0,0 UV-I 0 W/m² 13,0 °C 14,3 °C 8,0 km/h (2 Bft)
22.07.2018 03:02 14,3 °C 92 % 1011,3 hPa 0,0 mm 2,5 km/h (1 Bft) SW 220 ° 0 min 0,000 mm 0,0 UV-I 0 W/m² 13,0 °C 14,3 °C 4,8 km/h (1 Bft)
22.07.2018 03:03 14,3 °C 92 % 1011,3 hPa 0,2 mm 4,1 km/h (1 Bft) SW 236 ° 0 min 0,000 mm 0,0 UV-I 0 W/m² 13,0 °C 14,3 °C 12,9 km/h (3 Bft)
22.07.2018 03:04 14,3 °C 92 % 1011,3 hPa 0,0 mm 2,3 km/h (1 Bft) S-SW 209 ° 0 min 0,000 mm 0,0 UV-I 0 W/m² 13,0 °C 14,3 °C 4,8 km/h (1 Bft)
22.07.2018 03:05 14,3 °C 92 % 1011,3 hPa 0,0 mm 1,7 km/h (1 Bft) SW 232 ° 0 min 0,000 mm 0,0 UV-I 0 W/m² 13,0 °C 14,3 °C 4,8 km/h (1 Bft)
22.07.2018 03:06 14,3 °C 92 % 1011,3 hPa 0,0 mm 4,1 km/h (1 Bft) W 264 ° 0 min 0,000 mm 0,0 UV-I 0 W/m² 13,0 °C 14,3 °C 12,9 km/h (3 Bft)
22.07.2018 03:07 14,3 °C 92 % 1011,3 hPa 0,0 mm 2,3 km/h (1 Bft) W 263 ° 0 min 0,000 mm 0,0 UV-I 0 W/m² 13,0 °C 14,3 °C 6,4 km/h (2 Bft)
22.07.2018 03:08 14,3 °C 92 % 1011,2 hPa 0,0 mm 1,4 km/h (1 Bft) W 264 ° 0 min 0,000 mm 0,0 UV-I 0 W/m² 13,0 °C 14,3 °C 3,2 km/h (1 Bft)
22.07.2018 03:09 14,3 °C 92 % 1011,3 hPa 0,0 mm 1,0 km/h (0 Bft) W-SW 238 ° 0 min 0,000 mm 0,0 UV-I 0 W/m² 13,0 °C 14,3 °C 4,8 km/h (1 Bft)
22.07.2018 03:10 14,3 °C 92 % 1011,3 hPa 0,0 mm 4,3 km/h (1 Bft) W 279 ° 0 min 0,000 mm 0,0 UV-I 0 W/m² 13,0 °C 14,3 °C 8,0 km/h (2 Bft)
22.07.2018 03:11 14,3 °C 92 % 1011,2 hPa 0,0 mm 4,6 km/h (1 Bft) W-SW 244 ° 0 min 0,000 mm 0,0 UV-I 0 W/m² 13,0 °C 14,3 °C 6,4 km/h (2 Bft)
22.07.2018 03:12 14,3 °C 92 % 1011,2 hPa 0,0 mm 3,1 km/h (1 Bft) W-SW 254 ° 0 min 0,000 mm 0,0 UV-I 0 W/m² 13,0 °C 14,3 °C 6,4 km/h (2 Bft)
22.07.2018 03:13 14,3 °C 92 % 1011,2 hPa 0,0 mm 2,3 km/h (1 Bft) S 185 ° 0 min 0,000 mm 0,0 UV-I 0 W/m² 13,0 °C 14,3 °C 4,8 km/h (1 Bft)
22.07.2018 03:14 14,3 °C 92 % 1011,2 hPa 0,0 mm 0,0 km/h (0 Bft) S 185 ° 0 min 0,000 mm 0,0 UV-I 0 W/m² 13,0 °C 14,3 °C 0,0 km/h (0 Bft)
22.07.2018 03:15 14,3 °C 92 % 1011,2 hPa 0,0 mm 6,6 km/h (2 Bft) S-SW 207 ° 0 min 0,000 mm 0,0 UV-I 0 W/m² 13,0 °C 14,3 °C 12,9 km/h (3 Bft)
22.07.2018 03:16 14,3 °C 92 % 1011,2 hPa 0,0 mm 5,7 km/h (1 Bft) SW 225 ° 0 min 0,000 mm 0,0 UV-I 0 W/m² 13,0 °C 14,3 °C 11,3 km/h (2 Bft)
22.07.2018 03:17 14,3 °C 92 % 1011,2 hPa 0,0 mm 2,6 km/h (1 Bft) S-SW 208 ° 0 min 0,000 mm 0,0 UV-I 0 W/m² 13,0 °C 14,3 °C 4,8 km/h (1 Bft)
22.07.2018 03:18 14,3 °C 92 % 1011,2 hPa 0,0 mm 7,6 km/h (2 Bft) S-SW 196 ° 0 min 0,000 mm 0,0 UV-I 0 W/m² 13,0 °C 14,3 °C 12,9 km/h (3 Bft)
22.07.2018 03:19 14,4 °C 92 % 1011,2 hPa 0,0 mm 4,8 km/h (1 Bft) S-SW 205 ° 0 min 0,000 mm 0,0 UV-I 0 W/m² 13,1 °C 14,4 °C 9,7 km/h (2 Bft)
22.07.2018 03:20 14,3 °C 92 % 1011,2 hPa 0,0 mm 3,5 km/h (1 Bft) S-SW 194 ° 0 min 0,000 mm 0,0 UV-I 0 W/m² 13,0 °C 14,3 °C 6,4 km/h (2 Bft)
22.07.2018 03:21 14,4 °C 92 % 1011,2 hPa 0,0 mm 4,5 km/h (1 Bft) W-SW 244 ° 0 min 0,000 mm 0,0 UV-I 0 W/m² 13,1 °C 14,4 °C 6,4 km/h (2 Bft)
22.07.2018 03:22 14,3 °C 92 % 1011,1 hPa 0,0 mm 5,0 km/h (1 Bft) W 262 ° 0 min 0,000 mm 0,0 UV-I 0 W/m² 13,0 °C 14,3 °C 11,3 km/h (2 Bft)
22.07.2018 03:23 14,4 °C 92 % 1011,1 hPa 0,0 mm 2,3 km/h (1 Bft) SW 216 ° 0 min 0,000 mm 0,0 UV-I 0 W/m² 13,1 °C 14,4 °C 4,8 km/h (1 Bft)
22.07.2018 03:24 14,4 °C 92 % 1011,2 hPa 0,0 mm 1,6 km/h (1 Bft) W-SW 254 ° 0 min 0,000 mm 0,0 UV-I 0 W/m² 13,1 °C 14,4 °C 3,2 km/h (1 Bft)
22.07.2018 03:25 14,4 °C 92 % 1011,2 hPa 0,0 mm 6,2 km/h (2 Bft) S-SW 204 ° 0 min 0,000 mm 0,0 UV-I 0 W/m² 13,1 °C 14,4 °C 8,0 km/h (2 Bft)
22.07.2018 03:26 14,4 °C 91 % 1011,1 hPa 0,0 mm 1,8 km/h (1 Bft) S-SO 153 ° 0 min 0,000 mm 0,0 UV-I 0 W/m² 12,9 °C 14,4 °C 3,2 km/h (1 Bft)
22.07.2018 03:27 14,4 °C 91 % 1011,1 hPa 0,0 mm 4,2 km/h (1 Bft) W-SW 246 ° 0 min 0,000 mm 0,0 UV-I 0 W/m² 12,9 °C 14,4 °C 8,0 km/h (2 Bft)
22.07.2018 03:28 14,4 °C 91 % 1011,1 hPa 0,0 mm 5,7 km/h (1 Bft) W 260 ° 0 min 0,000 mm 0,0 UV-I 0 W/m² 12,9 °C 14,4 °C 9,7 km/h (2 Bft)
22.07.2018 03:29 14,4 °C 91 % 1011,1 hPa 0,0 mm 4,4 km/h (1 Bft) S-SO 165 ° 0 min 0,000 mm 0,0 UV-I 0 W/m² 12,9 °C 14,4 °C 6,4 km/h (2 Bft)
22.07.2018 03:30 14,4 °C 91 % 1011,1 hPa 0,0 mm 3,0 km/h (1 Bft) S 186 ° 0 min 0,000 mm 0,0 UV-I 0 W/m² 12,9 °C 14,4 °C 6,4 km/h (2 Bft)
22.07.2018 03:31 14,4 °C 91 % 1011,1 hPa 0,0 mm 3,8 km/h (1 Bft) S-SW 194 ° 0 min 0,000 mm 0,0 UV-I 0 W/m² 12,9 °C 14,4 °C 8,0 km/h (2 Bft)
22.07.2018 03:32 14,4 °C 91 % 1011,1 hPa 0,0 mm 1,7 km/h (1 Bft) S-SW 194 ° 0 min 0,000 mm 0,0 UV-I 0 W/m² 12,9 °C 14,4 °C 4,8 km/h (1 Bft)
22.07.2018 03:33 14,4 °C 91 % 1011,1 hPa 0,0 mm 1,3 km/h (1 Bft) S-SW 209 ° 0 min 0,000 mm 0,0 UV-I 0 W/m² 12,9 °C 14,4 °C 3,2 km/h (1 Bft)
22.07.2018 03:34 14,5 °C 91 % 1011,1 hPa 0,0 mm 1,5 km/h (1 Bft) S-SW 209 ° 0 min 0,000 mm 0,0 UV-I 0 W/m² 13,0 °C 14,5 °C 3,2 km/h (1 Bft)
22.07.2018 03:35 14,4 °C 91 % 1011,1 hPa 0,0 mm 2,1 km/h (1 Bft) W-SW 238 ° 0 min 0,000 mm 0,0 UV-I 0 W/m² 12,9 °C 14,4 °C 3,2 km/h (1 Bft)
22.07.2018 03:36 14,4 °C 91 % 1011,1 hPa 0,0 mm 0,6 km/h (0 Bft) W-SW 257 ° 0 min 0,000 mm 0,0 UV-I 0 W/m² 12,9 °C 14,4 °C 3,2 km/h (1 Bft)
22.07.2018 03:37 14,4 °C 91 % 1011,1 hPa 0,0 mm 3,4 km/h (1 Bft) W 259 ° 0 min 0,000 mm 0,0 UV-I 0 W/m² 12,9 °C 14,4 °C 4,8 km/h (1 Bft)
22.07.2018 03:38 14,4 °C 91 % 1011,1 hPa 0,0 mm 4,3 km/h (1 Bft) W 274 ° 0 min 0,000 mm 0,0 UV-I 0 W/m² 12,9 °C 14,4 °C 6,4 km/h (2 Bft)
22.07.2018 03:39 14,5 °C 91 % 1011,0 hPa 0,0 mm 2,1 km/h (1 Bft) W-NW 284 ° 0 min 0,000 mm 0,0 UV-I 0 W/m² 13,0 °C 14,5 °C 6,4 km/h (2 Bft)
22.07.2018 03:40 14,4 °C 91 % 1011,1 hPa 0,0 mm 3,0 km/h (1 Bft) W-SW 254 ° 0 min 0,000 mm 0,0 UV-I 0 W/m² 12,9 °C 14,4 °C 4,8 km/h (1 Bft)
22.07.2018 03:41 14,4 °C 91 % 1011,1 hPa 0,0 mm 1,3 km/h (1 Bft) W-SW 254 ° 0 min 0,000 mm 0,0 UV-I 0 W/m² 12,9 °C 14,4 °C 3,2 km/h (1 Bft)
22.07.2018 03:42 14,5 °C 91 % 1011,1 hPa 0,0 mm 2,1 km/h (1 Bft) W-SW 254 ° 0 min 0,000 mm 0,0 UV-I 0 W/m² 13,0 °C 14,5 °C 4,8 km/h (1 Bft)
22.07.2018 03:43 14,5 °C 92 % 1011,1 hPa 0,0 mm 2,5 km/h (1 Bft) W-SW 254 ° 0 min 0,000 mm 0,0 UV-I 0 W/m² 13,2 °C 14,5 °C 4,8 km/h (1 Bft)
22.07.2018 03:44 14,4 °C 92 % 1011,1 hPa 0,0 mm 1,7 km/h (1 Bft) W-SW 256 ° 0 min 0,000 mm 0,0 UV-I 0 W/m² 13,1 °C 14,4 °C 3,2 km/h (1 Bft)
22.07.2018 03:45 14,4 °C 91 % 1011,1 hPa 0,0 mm 0,3 km/h (0 Bft) W-SW 256 ° 0 min 0,000 mm 0,0 UV-I 0 W/m² 12,9 °C 14,4 °C 1,6 km/h (1 Bft)
22.07.2018 03:46 14,4 °C 91 % 1011,1 hPa 0,0 mm 1,5 km/h (1 Bft) W-SW 256 ° 0 min 0,000 mm 0,0 UV-I 0 W/m² 12,9 °C 14,4 °C 3,2 km/h (1 Bft)
22.07.2018 03:47 14,4 °C 92 % 1011,1 hPa 0,0 mm 0,1 km/h (0 Bft) W-SW 256 ° 0 min 0,000 mm 0,0 UV-I 0 W/m² 13,1 °C 14,4 °C 1,6 km/h (1 Bft)
22.07.2018 03:48 14,4 °C 92 % 1011,1 hPa 0,0 mm 0,5 km/h (0 Bft) W-SW 256 ° 0 min 0,000 mm 0,0 UV-I 0 W/m² 13,1 °C 14,4 °C 1,6 km/h (1 Bft)
22.07.2018 03:49 14,3 °C 92 % 1011,1 hPa 0,0 mm 2,5 km/h (1 Bft) W-SW 256 ° 0 min 0,000 mm 0,0 UV-I 0 W/m² 13,0 °C 14,3 °C 3,2 km/h (1 Bft)
22.07.2018 03:50 14,3 °C 92 % 1011,1 hPa 0,0 mm 1,0 km/h (0 Bft) W-SW 256 ° 0 min 0,000 mm 0,0 UV-I 0 W/m² 13,0 °C 14,3 °C 3,2 km/h (1 Bft)
22.07.2018 03:51 14,3 °C 92 % 1011,1 hPa 0,0 mm 0,1 km/h (0 Bft) W-SW 256 ° 0 min 0,000 mm 0,0 UV-I 0 W/m² 13,0 °C 14,3 °C 1,6 km/h (1 Bft)
22.07.2018 03:52 14,3 °C 92 % 1011,1 hPa 0,0 mm 0,1 km/h (0 Bft) W-SW 256 ° 0 min 0,000 mm 0,0 UV-I 0 W/m² 13,0 °C 14,3 °C 1,6 km/h (1 Bft)
22.07.2018 03:53 14,2 °C 92 % 1011,1 hPa 0,0 mm 0,8 km/h (0 Bft) W-SW 256 ° 0 min 0,000 mm 0,0 UV-I 0 W/m² 12,9 °C 14,2 °C 3,2 km/h (1 Bft)
22.07.2018 03:54 14,2 °C 92 % 1011,0 hPa 0,0 mm 0,7 km/h (0 Bft) W-SW 256 ° 0 min 0,000 mm 0,0 UV-I 0 W/m² 12,9 °C 14,2 °C 1,6 km/h (1 Bft)
22.07.2018 03:55 14,2 °C 92 % 1011,1 hPa 0,0 mm 0,3 km/h (0 Bft) W-SW 256 ° 0 min 0,000 mm 0,0 UV-I 0 W/m² 12,9 °C 14,2 °C 1,6 km/h (1 Bft)
22.07.2018 03:56 14,2 °C 92 % 1011,0 hPa 0,0 mm 0,0 km/h (0 Bft) W-SW 256 ° 0 min 0,000 mm 0,0 UV-I 0 W/m² 12,9 °C 14,2 °C 0,0 km/h (0 Bft)
22.07.2018 03:57 14,2 °C 92 % 1011,0 hPa 0,0 mm 2,5 km/h (1 Bft) W-SW 256 ° 0 min 0,000 mm 0,0 UV-I 0 W/m² 12,9 °C 14,2 °C 4,8 km/h (1 Bft)
22.07.2018 03:58 14,2 °C 92 % 1011,1 hPa 0,0 mm 2,8 km/h (1 Bft) W-SW 256 ° 0 min 0,000 mm 0,0 UV-I 0 W/m² 12,9 °C 14,2 °C 4,8 km/h (1 Bft)
22.07.2018 03:59 14,2 °C 92 % 1011,0 hPa 0,0 mm 0,1 km/h (0 Bft) W-SW 256 ° 0 min 0,000 mm 0,0 UV-I 0 W/m² 12,9 °C 14,2 °C 1,6 km/h (1 Bft)
22.07.2018 04:00 14,2 °C 92 % 1011,0 hPa 0,0 mm 0,0 km/h (0 Bft) W-SW 256 ° 0 min 0,000 mm 0,0 UV-I 0 W/m² 12,9 °C 14,2 °C 0,0 km/h (0 Bft)
22.07.2018 04:01 14,2 °C 92 % 1011,0 hPa 0,0 mm 0,0 km/h (0 Bft) W-SW 256 ° 0 min 0,000 mm 0,0 UV-I 0 W/m² 12,9 °C 14,2 °C 0,0 km/h (0 Bft)
22.07.2018 04:02 14,2 °C 92 % 1011,0 hPa 0,0 mm 0,1 km/h (0 Bft) W-SW 256 ° 0 min 0,000 mm 0,0 UV-I 0 W/m² 12,9 °C 14,2 °C 1,6 km/h (1 Bft)
22.07.2018 04:03 14,2 °C 92 % 1011,0 hPa 0,0 mm 0,1 km/h (0 Bft) W-SW 256 ° 0 min 0,000 mm 0,0 UV-I 0 W/m² 12,9 °C 14,2 °C 1,6 km/h (1 Bft)
22.07.2018 04:04 14,2 °C 92 % 1011,0 hPa 0,0 mm 0,1 km/h (0 Bft) W-SW 256 ° 0 min 0,000 mm 0,0 UV-I 0 W/m² 12,9 °C 14,2 °C 1,6 km/h (1 Bft)
22.07.2018 04:05 14,2 °C 92 % 1011,0 hPa 0,0 mm 0,9 km/h (0 Bft) W-SW 256 ° 0 min 0,000 mm 0,0 UV-I 0 W/m² 12,9 °C 14,2 °C 1,6 km/h (1 Bft)
22.07.2018 04:06 14,2 °C 92 % 1011,0 hPa 0,0 mm 0,0 km/h (0 Bft) W-SW 256 ° 0 min 0,000 mm 0,0 UV-I 0 W/m² 12,9 °C 14,2 °C 0,0 km/h (0 Bft)
22.07.2018 04:07 14,2 °C 92 % 1011,1 hPa 0,0 mm 0,5 km/h (0 Bft) W-SW 256 ° 0 min 0,000 mm 0,0 UV-I 0 W/m² 12,9 °C 14,2 °C 3,2 km/h (1 Bft)
22.07.2018 04:08 14,2 °C 92 % 1011,1 hPa 0,0 mm 1,6 km/h (1 Bft) W-SW 256 ° 0 min 0,000 mm 0,0 UV-I 0 W/m² 12,9 °C 14,2 °C 3,2 km/h (1 Bft)
22.07.2018 04:09 14,2 °C 92 % 1011,0 hPa 0,0 mm 1,5 km/h (1 Bft) W 267 ° 0 min 0,000 mm 0,0 UV-I 0 W/m² 12,9 °C 14,2 °C 3,2 km/h (1 Bft)
22.07.2018 04:10 14,2 °C 92 % 1011,0 hPa 0,0 mm 1,2 km/h (1 Bft) W 265 ° 0 min 0,000 mm 0,0 UV-I 0 W/m² 12,9 °C 14,2 °C 3,2 km/h (1 Bft)
22.07.2018 04:11 14,2 °C 92 % 1011,1 hPa 0,0 mm 2,8 km/h (1 Bft) W 265 ° 0 min 0,000 mm 0,0 UV-I 0 W/m² 12,9 °C 14,2 °C 4,8 km/h (1 Bft)
22.07.2018 04:12 14,2 °C 92 % 1011,0 hPa 0,0 mm 0,8 km/h (0 Bft) W 265 ° 0 min 0,000 mm 0,0 UV-I 0 W/m² 12,9 °C 14,2 °C 4,8 km/h (1 Bft)
22.07.2018 04:13 14,3 °C 92 % 1011,0 hPa 0,0 mm 0,3 km/h (0 Bft) W 265 ° 0 min 0,000 mm 0,0 UV-I 0 W/m² 13,0 °C 14,3 °C 1,6 km/h (1 Bft)
22.07.2018 04:14 14,3 °C 92 % 1011,0 hPa 0,0 mm 1,0 km/h (0 Bft) W 261 ° 0 min 0,000 mm 0,0 UV-I 0 W/m² 13,0 °C 14,3 °C 4,8 km/h (1 Bft)
22.07.2018 04:15 14,3 °C 92 % 1011,0 hPa 0,0 mm 2,8 km/h (1 Bft) W 261 ° 0 min 0,000 mm 0,0 UV-I 0 W/m² 13,0 °C 14,3 °C 4,8 km/h (1 Bft)
22.07.2018 04:16 14,3 °C 92 % 1011,0 hPa 0,0 mm 0,1 km/h (0 Bft) W 261 ° 0 min 0,000 mm 0,0 UV-I 0 W/m² 13,0 °C 14,3 °C 1,6 km/h (1 Bft)
22.07.2018 04:17 14,3 °C 92 % 1011,0 hPa 0,0 mm 1,3 km/h (1 Bft) W 261 ° 0 min 0,000 mm 0,0 UV-I 0 W/m² 13,0 °C 14,3 °C 3,2 km/h (1 Bft)
22.07.2018 04:18 14,3 °C 92 % 1011,0 hPa 0,0 mm 2,7 km/h (1 Bft) W 261 ° 0 min 0,000 mm 0,0 UV-I 0 W/m² 13,0 °C 14,3 °C 4,8 km/h (1 Bft)
22.07.2018 04:19 14,4 °C 92 % 1011,0 hPa 0,0 mm 0,3 km/h (0 Bft) W 261 ° 0 min 0,000 mm 0,0 UV-I 0 W/m² 13,1 °C 14,4 °C 1,6 km/h (1 Bft)
22.07.2018 04:20 14,4 °C 92 % 1011,0 hPa 0,0 mm 2,4 km/h (1 Bft) W-SW 254 ° 0 min 0,000 mm 0,0 UV-I 0 W/m² 13,1 °C 14,4 °C 8,0 km/h (2 Bft)
22.07.2018 04:21 14,4 °C 92 % 1011,0 hPa 0,0 mm 0,1 km/h (0 Bft) W-SW 254 ° 0 min 0,000 mm 0,0 UV-I 0 W/m² 13,1 °C 14,4 °C 1,6 km/h (1 Bft)
22.07.2018 04:22 14,4 °C 92 % 1011,0 hPa 0,0 mm 0,1 km/h (0 Bft) W-SW 254 ° 0 min 0,000 mm 0,0 UV-I 0 W/m² 13,1 °C 14,4 °C 1,6 km/h (1 Bft)
22.07.2018 04:23 14,4 °C 91 % 1011,0 hPa 0,0 mm 3,8 km/h (1 Bft) W-SW 243 ° 0 min 0,000 mm 0,0 UV-I 0 W/m² 12,9 °C 14,4 °C 6,4 km/h (2 Bft)
22.07.2018 04:24 14,4 °C 91 % 1011,1 hPa 0,0 mm 2,1 km/h (1 Bft) W-SW 240 ° 0 min 0,000 mm 0,0 UV-I 0 W/m² 12,9 °C 14,4 °C 6,4 km/h (2 Bft)
22.07.2018 04:25 14,4 °C 91 % 1011,1 hPa 0,0 mm 1,7 km/h (1 Bft) SW 234 ° 0 min 0,000 mm 0,0 UV-I 0 W/m² 12,9 °C 14,4 °C 4,8 km/h (1 Bft)
22.07.2018 04:26 14,4 °C 91 % 1011,1 hPa 0,0 mm 0,0 km/h (0 Bft) SW 234 ° 0 min 0,000 mm 0,0 UV-I 0 W/m² 12,9 °C 14,4 °C 0,0 km/h (0 Bft)
22.07.2018 04:27 14,4 °C 91 % 1011,1 hPa 0,0 mm 0,5 km/h (0 Bft) SW 234 ° 0 min 0,000 mm 0,0 UV-I 0 W/m² 12,9 °C 14,4 °C 1,6 km/h (1 Bft)
22.07.2018 04:28 14,4 °C 91 % 1011,1 hPa 0,0 mm 0,1 km/h (0 Bft) SW 234 ° 0 min 0,000 mm 0,0 UV-I 0 W/m² 12,9 °C 14,4 °C 1,6 km/h (1 Bft)
22.07.2018 04:29 14,4 °C 91 % 1011,0 hPa 0,0 mm 1,3 km/h (1 Bft) SW 234 ° 0 min 0,000 mm 0,0 UV-I 0 W/m² 12,9 °C 14,4 °C 3,2 km/h (1 Bft)
22.07.2018 04:30 14,5 °C 91 % 1011,0 hPa 0,0 mm 0,5 km/h (0 Bft) SW 234 ° 0 min 0,000 mm 0,0 UV-I 0 W/m² 13,0 °C 14,5 °C 1,6 km/h (1 Bft)
22.07.2018 04:31 14,4 °C 91 % 1011,0 hPa 0,0 mm 1,6 km/h (1 Bft) SW 234 ° 0 min 0,000 mm 0,0 UV-I 0 W/m² 12,9 °C 14,4 °C 3,2 km/h (1 Bft)
22.07.2018 04:32 14,5 °C 91 % 1011,0 hPa 0,0 mm 0,7 km/h (0 Bft) SW 234 ° 0 min 0,000 mm 0,0 UV-I 0 W/m² 13,0 °C 14,5 °C 3,2 km/h (1 Bft)
22.07.2018 04:33 14,5 °C 91 % 1011,1 hPa 0,0 mm 1,3 km/h (1 Bft) SW 235 ° 0 min 0,000 mm 0,0 UV-I 0 W/m² 13,0 °C 14,5 °C 3,2 km/h (1 Bft)
22.07.2018 04:34 14,5 °C 91 % 1011,0 hPa 0,0 mm 1,3 km/h (1 Bft) SW 235 ° 0 min 0,000 mm 0,0 UV-I 0 W/m² 13,0 °C 14,5 °C 3,2 km/h (1 Bft)
22.07.2018 04:35 14,5 °C 91 % 1011,0 hPa 0,0 mm 0,7 km/h (0 Bft) SW 235 ° 0 min 0,000 mm 0,0 UV-I 0 W/m² 13,0 °C 14,5 °C 1,6 km/h (1 Bft)
22.07.2018 04:36 14,4 °C 91 % 1011,0 hPa 0,0 mm 0,8 km/h (0 Bft) SW 235 ° 0 min 0,000 mm 0,0 UV-I 0 W/m² 12,9 °C 14,4 °C 3,2 km/h (1 Bft)
22.07.2018 04:37 14,4 °C 91 % 1011,1 hPa 0,0 mm 0,5 km/h (0 Bft) SW 235 ° 0 min 0,000 mm 0,0 UV-I 0 W/m² 12,9 °C 14,4 °C 1,6 km/h (1 Bft)
22.07.2018 04:38 14,4 °C 91 % 1011,1 hPa 0,0 mm 0,7 km/h (0 Bft) SW 235 ° 0 min 0,000 mm 0,0 UV-I 0 W/m² 12,9 °C 14,4 °C 3,2 km/h (1 Bft)
22.07.2018 04:39 14,4 °C 91 % 1011,1 hPa 0,0 mm 2,3 km/h (1 Bft) SW 235 ° 0 min 0,000 mm 0,0 UV-I 0 W/m² 12,9 °C 14,4 °C 6,4 km/h (2 Bft)
22.07.2018 04:40 14,4 °C 91 % 1011,1 hPa 0,0 mm 1,9 km/h (1 Bft) SW 234 ° 0 min 0,000 mm 0,0 UV-I 0 W/m² 12,9 °C 14,4 °C 4,8 km/h (1 Bft)
22.07.2018 04:41 14,4 °C 91 % 1011,1 hPa 0,0 mm 1,4 km/h (1 Bft) SW 234 ° 0 min 0,000 mm 0,0 UV-I 0 W/m² 12,9 °C 14,4 °C 3,2 km/h (1 Bft)
22.07.2018 04:42 14,4 °C 91 % 1011,1 hPa 0,0 mm 2,2 km/h (1 Bft) SW 234 ° 0 min 0,000 mm 0,0 UV-I 0 W/m² 12,9 °C 14,4 °C 6,4 km/h (2 Bft)
22.07.2018 04:43 14,4 °C 91 % 1011,1 hPa 0,0 mm 2,8 km/h (1 Bft) SW 235 ° 0 min 0,000 mm 0,0 UV-I 0 W/m² 12,9 °C 14,4 °C 4,8 km/h (1 Bft)
22.07.2018 04:44 14,4 °C 91 % 1011,1 hPa 0,0 mm 3,3 km/h (1 Bft) W-SW 242 ° 0 min 0,000 mm 0,0 UV-I 0 W/m² 12,9 °C 14,4 °C 4,8 km/h (1 Bft)
22.07.2018 04:45 14,4 °C 91 % 1011,0 hPa 0,0 mm 1,0 km/h (0 Bft) W 259 ° 0 min 0,000 mm 0,0 UV-I 0 W/m² 12,9 °C 14,4 °C 3,2 km/h (1 Bft)
22.07.2018 04:46 14,4 °C 91 % 1011,0 hPa 0,0 mm 3,3 km/h (1 Bft) W 271 ° 0 min 0,000 mm 0,0 UV-I 0 W/m² 12,9 °C 14,4 °C 6,4 km/h (2 Bft)
22.07.2018 04:47 14,4 °C 91 % 1011,1 hPa 0,0 mm 4,2 km/h (1 Bft) W-SW 251 ° 0 min 0,000 mm 0,0 UV-I 0 W/m² 12,9 °C 14,4 °C 9,7 km/h (2 Bft)
22.07.2018 04:48 14,4 °C 91 % 1011,0 hPa 0,0 mm 1,1 km/h (1 Bft) W-SW 251 ° 0 min 0,000 mm 0,0 UV-I 0 W/m² 12,9 °C 14,4 °C 4,8 km/h (1 Bft)
22.07.2018 04:49 14,4 °C 91 % 1011,0 hPa 0,0 mm 0,5 km/h (0 Bft) W-SW 251 ° 0 min 0,000 mm 0,0 UV-I 0 W/m² 12,9 °C 14,4 °C 1,6 km/h (1 Bft)
22.07.2018 04:50 14,4 °C 91 % 1011,1 hPa 0,0 mm 0,3 km/h (0 Bft) W-SW 251 ° 0 min 0,000 mm 0,0 UV-I 0 W/m² 12,9 °C 14,4 °C 1,6 km/h (1 Bft)
22.07.2018 04:51 14,4 °C 91 % 1011,1 hPa 0,0 mm 5,0 km/h (1 Bft) W 259 ° 0 min 0,000 mm 0,0 UV-I 0 W/m² 12,9 °C 14,4 °C 9,7 km/h (2 Bft)
22.07.2018 04:52 14,4 °C 91 % 1011,0 hPa 0,0 mm 2,8 km/h (1 Bft) SW 228 ° 0 min 0,000 mm 0,0 UV-I 0 W/m² 12,9 °C 14,4 °C 8,0 km/h (2 Bft)
22.07.2018 04:53 14,4 °C 91 % 1011,0 hPa 0,0 mm 2,4 km/h (1 Bft) SW 231 ° 0 min 0,000 mm 0,0 UV-I 0 W/m² 12,9 °C 14,4 °C 4,8 km/h (1 Bft)
22.07.2018 04:54 14,4 °C 91 % 1011,1 hPa 0,0 mm 1,5 km/h (1 Bft) SW 231 ° 0 min 0,000 mm 0,0 UV-I 0 W/m² 12,9 °C 14,4 °C 3,2 km/h (1 Bft)
22.07.2018 04:55 14,4 °C 91 % 1011,1 hPa 0,0 mm 0,3 km/h (0 Bft) SW 230 ° 0 min 0,000 mm 0,0 UV-I 0 W/m² 12,9 °C 14,4 °C 1,6 km/h (1 Bft)
22.07.2018 04:56 14,4 °C 92 % 1011,1 hPa 0,0 mm 2,2 km/h (1 Bft) W 269 ° 0 min 0,000 mm 0,0 UV-I 0 W/m² 13,1 °C 14,4 °C 4,8 km/h (1 Bft)
22.07.2018 04:57 14,4 °C 92 % 1011,1 hPa 0,0 mm 1,5 km/h (1 Bft) W 269 ° 0 min 0,000 mm 0,0 UV-I 0 W/m² 13,1 °C 14,4 °C 3,2 km/h (1 Bft)
22.07.2018 04:58 14,3 °C 92 % 1011,1 hPa 0,0 mm 0,5 km/h (0 Bft) W 269 ° 0 min 0,000 mm 0,0 UV-I 0 W/m² 13,0 °C 14,3 °C 3,2 km/h (1 Bft)
22.07.2018 04:59 14,3 °C 92 % 1011,0 hPa 0,0 mm 3,0 km/h (1 Bft) W 271 ° 0 min 0,000 mm 0,0 UV-I 0 W/m² 13,0 °C 14,3 °C 6,4 km/h (2 Bft)
22.07.2018 05:00 14,3 °C 92 % 1011,1 hPa 0,0 mm 0,9 km/h (0 Bft) W 271 ° 0 min 0,000 mm 0,0 UV-I 0 W/m² 13,0 °C 14,3 °C 1,6 km/h (1 Bft)
22.07.2018 05:01 14,3 °C 92 % 1011,1 hPa 0,0 mm 0,5 km/h (0 Bft) W 271 ° 0 min 0,000 mm 0,0 UV-I 0 W/m² 13,0 °C 14,3 °C 1,6 km/h (1 Bft)
22.07.2018 05:02 14,3 °C 92 % 1011,0 hPa 0,0 mm 0,1 km/h (0 Bft) W 271 ° 0 min 0,000 mm 0,0 UV-I 0 W/m² 13,0 °C 14,3 °C 1,6 km/h (1 Bft)
22.07.2018 05:03 14,3 °C 92 % 1011,0 hPa 0,0 mm 0,9 km/h (0 Bft) W 271 ° 0 min 0,000 mm 0,0 UV-I 0 W/m² 13,0 °C 14,3 °C 3,2 km/h (1 Bft)
22.07.2018 05:04 14,3 °C 92 % 1011,0 hPa 0,0 mm 1,1 km/h (1 Bft) W 271 ° 0 min 0,000 mm 0,0 UV-I 0 W/m² 13,0 °C 14,3 °C 3,2 km/h (1 Bft)
22.07.2018 05:05 14,3 °C 92 % 1011,0 hPa 0,0 mm 3,6 km/h (1 Bft) W 270 ° 0 min 0,000 mm 0,0 UV-I 0 W/m² 13,0 °C 14,3 °C 4,8 km/h (1 Bft)
22.07.2018 05:06 14,3 °C 92 % 1011,0 hPa 0,0 mm 1,9 km/h (1 Bft) W 270 ° 0 min 0,000 mm 0,0 UV-I 0 W/m² 13,0 °C 14,3 °C 4,8 km/h (1 Bft)
22.07.2018 05:07 14,3 °C 92 % 1011,0 hPa 0,0 mm 1,4 km/h (1 Bft) W 270 ° 0 min 0,000 mm 0,0 UV-I 0 W/m² 13,0 °C 14,3 °C 1,6 km/h (1 Bft)
22.07.2018 05:08 14,3 °C 92 % 1010,9 hPa 0,0 mm 0,3 km/h (0 Bft) W 270 ° 0 min 0,000 mm 0,0 UV-I 0 W/m² 13,0 °C 14,3 °C 1,6 km/h (1 Bft)
22.07.2018 05:09 14,3 °C 92 % 1010,9 hPa 0,0 mm 1,0 km/h (0 Bft) W 270 ° 0 min 0,000 mm 0,0 UV-I 0 W/m² 13,0 °C 14,3 °C 3,2 km/h (1 Bft)
22.07.2018 05:10 14,3 °C 91 % 1010,9 hPa 0,0 mm 0,1 km/h (0 Bft) W 270 ° 0 min 0,000 mm 0,0 UV-I 0 W/m² 12,8 °C 14,3 °C 1,6 km/h (1 Bft)
22.07.2018 05:11 14,3 °C 91 % 1010,9 hPa 0,0 mm 2,2 km/h (1 Bft) SW 225 ° 0 min 0,000 mm 0,0 UV-I 0 W/m² 12,8 °C 14,3 °C 6,4 km/h (2 Bft)
22.07.2018 05:12 14,3 °C 91 % 1010,9 hPa 0,0 mm 1,5 km/h (1 Bft) SW 236 ° 0 min 0,000 mm 0,0 UV-I 0 W/m² 12,8 °C 14,3 °C 6,4 km/h (2 Bft)
22.07.2018 05:13 14,3 °C 91 % 1010,9 hPa 0,0 mm 2,6 km/h (1 Bft) S-SW 209 ° 0 min 0,000 mm 0,0 UV-I 0 W/m² 12,8 °C 14,3 °C 6,4 km/h (2 Bft)
22.07.2018 05:14 14,3 °C 91 % 1010,9 hPa 0,0 mm 2,6 km/h (1 Bft) S-SW 207 ° 0 min 0,000 mm 0,0 UV-I 0 W/m² 12,8 °C 14,3 °C 4,8 km/h (1 Bft)
22.07.2018 05:15 14,3 °C 91 % 1010,9 hPa 0,0 mm 1,0 km/h (0 Bft) S-SW 207 ° 0 min 0,000 mm 0,0 UV-I 0 W/m² 12,8 °C 14,3 °C 4,8 km/h (1 Bft)
22.07.2018 05:16 14,3 °C 91 % 1010,9 hPa 0,0 mm 2,4 km/h (1 Bft) S-SW 207 ° 0 min 0,000 mm 0,0 UV-I 0 W/m² 12,8 °C 14,3 °C 4,8 km/h (1 Bft)
22.07.2018 05:17 14,4 °C 91 % 1010,9 hPa 0,0 mm 0,1 km/h (0 Bft) S-SW 207 ° 0 min 0,000 mm 0,0 UV-I 0 W/m² 12,9 °C 14,4 °C 1,6 km/h (1 Bft)
22.07.2018 05:18 14,4 °C 91 % 1010,9 hPa 0,0 mm 1,9 km/h (1 Bft) S-SW 205 ° 0 min 0,000 mm 0,0 UV-I 0 W/m² 12,9 °C 14,4 °C 8,0 km/h (2 Bft)
22.07.2018 05:19 14,4 °C 91 % 1010,9 hPa 0,0 mm 0,2 km/h (0 Bft) S-SW 205 ° 0 min 0,000 mm 0,0 UV-I 0 W/m² 12,9 °C 14,4 °C 1,6 km/h (1 Bft)
22.07.2018 05:20 14,4 °C 91 % 1010,9 hPa 0,0 mm 0,3 km/h (0 Bft) S-SW 205 ° 0 min 0,000 mm 0,0 UV-I 0 W/m² 12,9 °C 14,4 °C 1,6 km/h (1 Bft)
22.07.2018 05:21 14,4 °C 91 % 1010,9 hPa 0,0 mm 1,7 km/h (1 Bft) S-SW 205 ° 0 min 0,000 mm 0,0 UV-I 0 W/m² 12,9 °C 14,4 °C 3,2 km/h (1 Bft)
22.07.2018 05:22 14,4 °C 91 % 1010,9 hPa 0,0 mm 2,2 km/h (1 Bft) S-SW 205 ° 0 min 0,000 mm 0,0 UV-I 0 W/m² 12,9 °C 14,4 °C 4,8 km/h (1 Bft)
22.07.2018 05:23 14,4 °C 91 % 1010,9 hPa 0,0 mm 0,3 km/h (0 Bft) S-SW 205 ° 0 min 0,000 mm 0,0 UV-I 0 W/m² 12,9 °C 14,4 °C 1,6 km/h (1 Bft)
22.07.2018 05:24 14,4 °C 91 % 1010,9 hPa 0,0 mm 0,9 km/h (0 Bft) S-SW 205 ° 0 min 0,000 mm 0,0 UV-I 0 W/m² 12,9 °C 14,4 °C 1,6 km/h (1 Bft)
22.07.2018 05:25 14,5 °C 91 % 1011,0 hPa 0,0 mm 2,9 km/h (1 Bft) S-SW 198 ° 0 min 0,000 mm 0,0 UV-I 0 W/m² 13,0 °C 14,5 °C 6,4 km/h (2 Bft)
22.07.2018 05:26 14,5 °C 91 % 1011,0 hPa 0,0 mm 3,0 km/h (1 Bft) S-SW 198 ° 0 min 0,000 mm 0,0 UV-I 0 W/m² 13,0 °C 14,5 °C 4,8 km/h (1 Bft)
22.07.2018 05:27 14,5 °C 91 % 1010,9 hPa 0,0 mm 1,0 km/h (0 Bft) S-SW 198 ° 0 min 0,000 mm 0,0 UV-I 0 W/m² 13,0 °C 14,5 °C 3,2 km/h (1 Bft)
22.07.2018 05:28 14,5 °C 91 % 1010,9 hPa 0,0 mm 2,0 km/h (1 Bft) S 183 ° 0 min 0,000 mm 0,0 UV-I 0 W/m² 13,0 °C 14,5 °C 4,8 km/h (1 Bft)
22.07.2018 05:29 14,4 °C 91 % 1010,9 hPa 0,0 mm 3,6 km/h (1 Bft) S-SW 202 ° 0 min 0,000 mm 0,0 UV-I 0 W/m² 12,9 °C 14,4 °C 6,4 km/h (2 Bft)
22.07.2018 05:30 14,5 °C 91 % 1011,0 hPa 0,0 mm 0,0 km/h (0 Bft) S-SW 202 ° 0 min 0,000 mm 0,0 UV-I 0 W/m² 13,0 °C 14,5 °C 0,0 km/h (0 Bft)
22.07.2018 05:31 14,4 °C 91 % 1010,9 hPa 0,0 mm 1,2 km/h (1 Bft) S 186 ° 0 min 0,000 mm 0,0 UV-I 0 W/m² 12,9 °C 14,4 °C 6,4 km/h (2 Bft)
22.07.2018 05:32 14,4 °C 91 % 1010,9 hPa 0,0 mm 1,9 km/h (1 Bft) S 186 ° 0 min 0,000 mm 0,0 UV-I 0 W/m² 12,9 °C 14,4 °C 6,4 km/h (2 Bft)
22.07.2018 05:33 14,4 °C 91 % 1011,0 hPa 0,0 mm 0,7 km/h (0 Bft) S 187 ° 0 min 0,000 mm 0,0 UV-I 0 W/m² 12,9 °C 14,4 °C 3,2 km/h (1 Bft)
22.07.2018 05:34 14,4 °C 91 % 1011,0 hPa 0,0 mm 1,1 km/h (1 Bft) S 187 ° 0 min 0,000 mm 0,0 UV-I 0 W/m² 12,9 °C 14,4 °C 3,2 km/h (1 Bft)
22.07.2018 05:35 14,4 °C 91 % 1011,0 hPa 0,0 mm 0,7 km/h (0 Bft) S 187 ° 0 min 0,000 mm 0,0 UV-I 0 W/m² 12,9 °C 14,4 °C 1,6 km/h (1 Bft)
22.07.2018 05:36 14,4 °C 91 % 1011,0 hPa 0,0 mm 0,3 km/h (0 Bft) S 187 ° 0 min 0,000 mm 0,0 UV-I 0 W/m² 12,9 °C 14,4 °C 1,6 km/h (1 Bft)
22.07.2018 05:37 14,4 °C 91 % 1011,0 hPa 0,0 mm 0,0 km/h (0 Bft) S 187 ° 0 min 0,000 mm 0,0 UV-I 0 W/m² 12,9 °C 14,4 °C 0,0 km/h (0 Bft)
22.07.2018 05:38 14,4 °C 91 % 1011,0 hPa 0,0 mm 0,0 km/h (0 Bft) S 187 ° 0 min 0,000 mm 0,0 UV-I 0 W/m² 12,9 °C 14,4 °C 0,0 km/h (0 Bft)
22.07.2018 05:39 14,4 °C 91 % 1010,9 hPa 0,0 mm 0,1 km/h (0 Bft) S 187 ° 0 min 0,000 mm 0,0 UV-I 0 W/m² 12,9 °C 14,4 °C 3,2 km/h (1 Bft)
22.07.2018 05:40 14,4 °C 91 % 1010,9 hPa 0,0 mm 0,4 km/h (0 Bft) S 187 ° 0 min 0,000 mm 0,0 UV-I 0 W/m² 12,9 °C 14,4 °C 1,6 km/h (1 Bft)
22.07.2018 05:41 14,4 °C 91 % 1011,0 hPa 0,0 mm 0,0 km/h (0 Bft) S 187 ° 0 min 0,000 mm 0,0 UV-I 0 W/m² 12,9 °C 14,4 °C 0,0 km/h (0 Bft)
22.07.2018 05:42 14,4 °C 91 % 1011,0 hPa 0,0 mm 0,6 km/h (0 Bft) S 187 ° 0 min 0,000 mm 0,0 UV-I 0 W/m² 12,9 °C 14,4 °C 1,6 km/h (1 Bft)
22.07.2018 05:43 14,4 °C 91 % 1011,1 hPa 0,0 mm 0,9 km/h (0 Bft) S 187 ° 0 min 0,000 mm 0,0 UV-I 0 W/m² 12,9 °C 14,4 °C 1,6 km/h (1 Bft)
22.07.2018 05:44 14,4 °C 91 % 1011,0 hPa 0,2 mm 0,3 km/h (0 Bft) S 187 ° 0 min 0,000 mm 0,0 UV-I 0 W/m² 12,9 °C 14,4 °C 1,6 km/h (1 Bft)
22.07.2018 05:45 14,4 °C 91 % 1011,0 hPa 0,0 mm 0,9 km/h (0 Bft) S 187 ° 0 min 0,000 mm 0,0 UV-I 0 W/m² 12,9 °C 14,4 °C 1,6 km/h (1 Bft)
22.07.2018 05:46 14,4 °C 91 % 1011,0 hPa 0,2 mm 0,0 km/h (0 Bft) S 187 ° 0 min 0,000 mm 0,0 UV-I 0 W/m² 12,9 °C 14,4 °C 0,0 km/h (0 Bft)
22.07.2018 05:47 14,3 °C 92 % 1011,0 hPa 0,0 mm 0,0 km/h (0 Bft) S 187 ° 0 min 0,000 mm 0,0 UV-I 0 W/m² 13,0 °C 14,3 °C 0,0 km/h (0 Bft)
22.07.2018 05:48 14,3 °C 92 % 1011,0 hPa 0,0 mm 0,4 km/h (0 Bft) S 187 ° 0 min 0,000 mm 0,0 UV-I 0 W/m² 13,0 °C 14,3 °C 1,6 km/h (1 Bft)
22.07.2018 05:49 14,3 °C 92 % 1011,0 hPa 0,0 mm 0,0 km/h (0 Bft) S 187 ° 0 min 0,000 mm 0,0 UV-I 0 W/m² 13,0 °C 14,3 °C 0,0 km/h (0 Bft)
22.07.2018 05:50 14,2 °C 92 % 1011,0 hPa 0,0 mm 0,0 km/h (0 Bft) S 187 ° 0 min 0,000 mm 0,0 UV-I 0 W/m² 12,9 °C 14,2 °C 0,0 km/h (0 Bft)
22.07.2018 05:51 14,2 °C 92 % 1011,0 hPa 0,0 mm 0,0 km/h (0 Bft) S 187 ° 0 min 0,000 mm 0,0 UV-I 0 W/m² 12,9 °C 14,2 °C 0,0 km/h (0 Bft)
22.07.2018 05:52 14,2 °C 92 % 1011,0 hPa 0,0 mm 0,0 km/h (0 Bft) S 187 ° 0 min 0,000 mm 0,0 UV-I 0 W/m² 12,9 °C 14,2 °C 0,0 km/h (0 Bft)
22.07.2018 05:53 14,1 °C 92 % 1011,0 hPa 0,0 mm 0,0 km/h (0 Bft) S 187 ° 0 min 0,000 mm 0,0 UV-I 0 W/m² 12,8 °C 14,1 °C 0,0 km/h (0 Bft)
22.07.2018 05:54 14,1 °C 92 % 1011,0 hPa 0,0 mm 0,0 km/h (0 Bft) S 187 ° 0 min 0,000 mm 0,0 UV-I 0 W/m² 12,8 °C 14,1 °C 0,0 km/h (0 Bft)
22.07.2018 05:55 14,1 °C 92 % 1011,0 hPa 0,0 mm 0,0 km/h (0 Bft) S 187 ° 0 min 0,000 mm 0,0 UV-I 0 W/m² 12,8 °C 14,1 °C 0,0 km/h (0 Bft)
22.07.2018 05:56 14,1 °C 92 % 1011,0 hPa 0,0 mm 0,0 km/h (0 Bft) S 187 ° 0 min 0,000 mm 0,0 UV-I 0 W/m² 12,8 °C 14,1 °C 0,0 km/h (0 Bft)
22.07.2018 05:57 14,1 °C 93 % 1011,1 hPa 0,0 mm 0,0 km/h (0 Bft) S 187 ° 0 min 0,000 mm 0,0 UV-I 0 W/m² 13,0 °C 14,1 °C 0,0 km/h (0 Bft)
22.07.2018 05:58 14,1 °C 93 % 1011,1 hPa 0,0 mm 0,0 km/h (0 Bft) S 187 ° 0 min 0,000 mm 0,0 UV-I 0 W/m² 13,0 °C 14,1 °C 0,0 km/h (0 Bft)
22.07.2018 05:59 14,1 °C 93 % 1011,1 hPa 0,0 mm 0,0 km/h (0 Bft) S 187 ° 0 min 0,000 mm 0,0 UV-I 0 W/m² 13,0 °C 14,1 °C 0,0 km/h (0 Bft)
22.07.2018 06:00 14,0 °C 93 % 1011,1 hPa 0,0 mm 0,0 km/h (0 Bft) S 187 ° 0 min 0,000 mm 0,0 UV-I 0 W/m² 12,9 °C 14,0 °C 0,0 km/h (0 Bft)
22.07.2018 06:01 14,0 °C 93 % 1011,1 hPa 0,0 mm 0,0 km/h (0 Bft) S 187 ° 0 min 0,000 mm 0,0 UV-I 0 W/m² 12,9 °C 14,0 °C 0,0 km/h (0 Bft)
22.07.2018 06:02 14,0 °C 93 % 1011,1 hPa 0,0 mm 0,0 km/h (0 Bft) S 187 ° 0 min 0,000 mm 0,0 UV-I 0 W/m² 12,9 °C 14,0 °C 0,0 km/h (0 Bft)
22.07.2018 06:03 13,9 °C 93 % 1011,1 hPa 0,0 mm 0,6 km/h (0 Bft) S 187 ° 0 min 0,000 mm 0,0 UV-I 0 W/m² 12,8 °C 13,9 °C 1,6 km/h (1 Bft)
22.07.2018 06:04 13,9 °C 93 % 1011,0 hPa 0,0 mm 0,5 km/h (0 Bft) S 187 ° 0 min 0,000 mm 0,0 UV-I 0 W/m² 12,8 °C 13,9 °C 1,6 km/h (1 Bft)
22.07.2018 06:05 13,9 °C 93 % 1011,1 hPa 0,0 mm 0,5 km/h (0 Bft) S 187 ° 0 min 0,000 mm 0,0 UV-I 0 W/m² 12,8 °C 13,9 °C 1,6 km/h (1 Bft)
22.07.2018 06:06 14,0 °C 93 % 1011,1 hPa 0,0 mm 0,0 km/h (0 Bft) S 187 ° 0 min 0,000 mm 0,0 UV-I 5 W/m² 12,9 °C 14,0 °C 0,0 km/h (0 Bft)
22.07.2018 06:07 14,0 °C 93 % 1011,1 hPa 0,0 mm 0,0 km/h (0 Bft) S 187 ° 0 min 0,000 mm 0,0 UV-I 5 W/m² 12,9 °C 14,0 °C 0,0 km/h (0 Bft)
22.07.2018 06:08 13,9 °C 93 % 1011,1 hPa 0,0 mm 0,0 km/h (0 Bft) S 187 ° 0 min 0,000 mm 0,0 UV-I 5 W/m² 12,8 °C 13,9 °C 0,0 km/h (0 Bft)
22.07.2018 06:09 14,0 °C 93 % 1011,1 hPa 0,0 mm 0,0 km/h (0 Bft) S 187 ° 0 min 0,000 mm 0,0 UV-I 5 W/m² 12,9 °C 14,0 °C 0,0 km/h (0 Bft)
22.07.2018 06:10 14,0 °C 93 % 1011,1 hPa 0,0 mm 0,3 km/h (0 Bft) S 187 ° 0 min 0,000 mm 0,0 UV-I 5 W/m² 12,9 °C 14,0 °C 1,6 km/h (1 Bft)
22.07.2018 06:11 14,1 °C 93 % 1011,1 hPa 0,0 mm 0,0 km/h (0 Bft) S 187 ° 0 min 0,000 mm 0,0 UV-I 5 W/m² 13,0 °C 14,1 °C 0,0 km/h (0 Bft)
22.07.2018 06:12 14,1 °C 93 % 1011,1 hPa 0,0 mm 0,0 km/h (0 Bft) S 187 ° 0 min 0,000 mm 0,0 UV-I 5 W/m² 13,0 °C 14,1 °C 0,0 km/h (0 Bft)
22.07.2018 06:13 14,0 °C 93 % 1011,0 hPa 0,0 mm 0,0 km/h (0 Bft) S 187 ° 0 min 0,000 mm 0,0 UV-I 5 W/m² 12,9 °C 14,0 °C 0,0 km/h (0 Bft)
22.07.2018 06:14 14,1 °C 93 % 1011,0 hPa 0,0 mm 0,0 km/h (0 Bft) S 187 ° 0 min 0,000 mm 0,0 UV-I 5 W/m² 13,0 °C 14,1 °C 0,0 km/h (0 Bft)
22.07.2018 06:15 14,0 °C 93 % 1011,1 hPa 0,0 mm 0,1 km/h (0 Bft) S 187 ° 0 min 0,000 mm 0,0 UV-I 5 W/m² 12,9 °C 14,0 °C 1,6 km/h (1 Bft)
22.07.2018 06:16 14,1 °C 93 % 1011,1 hPa 0,2 mm 0,8 km/h (0 Bft) S 187 ° 0 min 0,000 mm 0,0 UV-I 5 W/m² 13,0 °C 14,1 °C 3,2 km/h (1 Bft)
22.07.2018 06:17 14,0 °C 93 % 1011,1 hPa 0,0 mm 0,0 km/h (0 Bft) S 187 ° 0 min 0,000 mm 0,0 UV-I 5 W/m² 12,9 °C 14,0 °C 0,0 km/h (0 Bft)
22.07.2018 06:18 14,0 °C 93 % 1011,1 hPa 0,0 mm 0,0 km/h (0 Bft) S 187 ° 0 min 0,000 mm 0,0 UV-I 5 W/m² 12,9 °C 14,0 °C 0,0 km/h (0 Bft)
22.07.2018 06:19 14,0 °C 93 % 1011,1 hPa 0,0 mm 0,0 km/h (0 Bft) S 187 ° 0 min 0,000 mm 0,0 UV-I 0 W/m² 12,9 °C 14,0 °C 0,0 km/h (0 Bft)
22.07.2018 06:20 14,0 °C 93 % 1011,2 hPa 0,0 mm 0,0 km/h (0 Bft) S 187 ° 0 min 0,000 mm 0,0 UV-I 0 W/m² 12,9 °C 14,0 °C 0,0 km/h (0 Bft)
22.07.2018 06:21 13,9 °C 93 % 1011,2 hPa 0,0 mm 0,0 km/h (0 Bft) S 187 ° 0 min 0,000 mm 0,0 UV-I 0 W/m² 12,8 °C 13,9 °C 0,0 km/h (0 Bft)
22.07.2018 06:22 13,9 °C 93 % 1011,2 hPa 0,2 mm 0,1 km/h (0 Bft) S 187 ° 0 min 0,000 mm 0,0 UV-I 0 W/m² 12,8 °C 13,9 °C 1,6 km/h (1 Bft)
22.07.2018 06:23 13,9 °C 93 % 1011,2 hPa 0,0 mm 0,0 km/h (0 Bft) S 187 ° 0 min 0,000 mm 0,0 UV-I 0 W/m² 12,8 °C 13,9 °C 0,0 km/h (0 Bft)
22.07.2018 06:24 14,0 °C 93 % 1011,2 hPa 0,0 mm 0,7 km/h (0 Bft) S 187 ° 0 min 0,000 mm 0,0 UV-I 5 W/m² 12,9 °C 14,0 °C 1,6 km/h (1 Bft)
22.07.2018 06:25 14,0 °C 93 % 1011,2 hPa 0,0 mm 0,0 km/h (0 Bft) S 187 ° 0 min 0,000 mm 0,0 UV-I 5 W/m² 12,9 °C 14,0 °C 0,0 km/h (0 Bft)
22.07.2018 06:26 13,9 °C 93 % 1011,1 hPa 0,0 mm 0,0 km/h (0 Bft) S 187 ° 0 min 0,000 mm 0,0 UV-I 5 W/m² 12,8 °C 13,9 °C 0,0 km/h (0 Bft)
22.07.2018 06:27 14,0 °C 93 % 1011,2 hPa 0,2 mm 0,0 km/h (0 Bft) S 187 ° 0 min 0,000 mm 0,0 UV-I 5 W/m² 12,9 °C 14,0 °C 0,0 km/h (0 Bft)
22.07.2018 06:28 14,0 °C 93 % 1011,1 hPa 0,0 mm 0,0 km/h (0 Bft) S 187 ° 0 min 0,000 mm 0,0 UV-I 5 W/m² 12,9 °C 14,0 °C 0,0 km/h (0 Bft)
22.07.2018 06:29 14,0 °C 93 % 1011,1 hPa 0,0 mm 0,3 km/h (0 Bft) S 187 ° 0 min 0,000 mm 0,0 UV-I 5 W/m² 12,9 °C 14,0 °C 1,6 km/h (1 Bft)
22.07.2018 06:30 14,0 °C 93 % 1011,2 hPa 0,0 mm 0,6 km/h (0 Bft) S 187 ° 0 min 0,000 mm 0,0 UV-I 5 W/m² 12,9 °C 14,0 °C 3,2 km/h (1 Bft)
22.07.2018 06:31 14,0 °C 93 % 1011,2 hPa 0,0 mm 0,2 km/h (0 Bft) S 187 ° 0 min 0,000 mm 0,0 UV-I 5 W/m² 12,9 °C 14,0 °C 1,6 km/h (1 Bft)
22.07.2018 06:32 14,0 °C 93 % 1011,2 hPa 0,0 mm 0,0 km/h (0 Bft) S 187 ° 0 min 0,000 mm 0,0 UV-I 5 W/m² 12,9 °C 14,0 °C 0,0 km/h (0 Bft)
22.07.2018 06:33 14,0 °C 93 % 1011,2 hPa 0,2 mm 0,1 km/h (0 Bft) S 187 ° 0 min 0,000 mm 0,0 UV-I 5 W/m² 12,9 °C 14,0 °C 1,6 km/h (1 Bft)
22.07.2018 06:34 14,0 °C 93 % 1011,2 hPa 0,0 mm 0,0 km/h (0 Bft) S 187 ° 0 min 0,000 mm 0,0 UV-I 5 W/m² 12,9 °C 14,0 °C 0,0 km/h (0 Bft)
22.07.2018 06:35 14,0 °C 93 % 1011,2 hPa 0,0 mm 0,0 km/h (0 Bft) S 187 ° 0 min 0,000 mm 0,0 UV-I 5 W/m² 12,9 °C 14,0 °C 0,0 km/h (0 Bft)
22.07.2018 06:36 14,0 °C 93 % 1011,2 hPa 0,0 mm 0,0 km/h (0 Bft) S 187 ° 0 min 0,000 mm 0,0 UV-I 5 W/m² 12,9 °C 14,0 °C 0,0 km/h (0 Bft)
22.07.2018 06:37 14,0 °C 93 % 1011,2 hPa 0,0 mm 0,0 km/h (0 Bft) S 187 ° 0 min 0,000 mm 0,0 UV-I 5 W/m² 12,9 °C 14,0 °C 0,0 km/h (0 Bft)
22.07.2018 06:38 13,9 °C 93 % 1011,2 hPa 0,0 mm 0,0 km/h (0 Bft) S 187 ° 0 min 0,000 mm 0,0 UV-I 5 W/m² 12,8 °C 13,9 °C 0,0 km/h (0 Bft)
22.07.2018 06:39 14,0 °C 93 % 1011,2 hPa 0,0 mm 0,0 km/h (0 Bft) S 187 ° 0 min 0,000 mm 0,0 UV-I 5 W/m² 12,9 °C 14,0 °C 0,0 km/h (0 Bft)
22.07.2018 06:40 13,9 °C 93 % 1011,2 hPa 0,0 mm 0,0 km/h (0 Bft) S 187 ° 0 min 0,000 mm 0,0 UV-I 5 W/m² 12,8 °C 13,9 °C 0,0 km/h (0 Bft)
22.07.2018 06:41 13,9 °C 93 % 1011,2 hPa 0,0 mm 0,0 km/h (0 Bft) S 187 ° 0 min 0,000 mm 0,0 UV-I 5 W/m² 12,8 °C 13,9 °C 0,0 km/h (0 Bft)
22.07.2018 06:42 13,9 °C 93 % 1011,2 hPa 0,0 mm 0,0 km/h (0 Bft) S 187 ° 0 min 0,000 mm 0,0 UV-I 7 W/m² 12,8 °C 13,9 °C 0,0 km/h (0 Bft)
22.07.2018 06:43 13,9 °C 93 % 1011,2 hPa 0,2 mm 0,0 km/h (0 Bft) S 187 ° 0 min 0,000 mm 0,0 UV-I 7 W/m² 12,8 °C 13,9 °C 0,0 km/h (0 Bft)
22.07.2018 06:44 13,9 °C 93 % 1011,2 hPa 0,0 mm 0,0 km/h (0 Bft) S 187 ° 0 min 0,000 mm 0,0 UV-I 7 W/m² 12,8 °C 13,9 °C 0,0 km/h (0 Bft)
22.07.2018 06:45 13,9 °C 93 % 1011,2 hPa 0,0 mm 0,0 km/h (0 Bft) S 187 ° 0 min 0,000 mm 0,0 UV-I 7 W/m² 12,8 °C 13,9 °C 0,0 km/h (0 Bft)
22.07.2018 06:46 13,9 °C 93 % 1011,2 hPa 0,0 mm 0,0 km/h (0 Bft) S 187 ° 0 min 0,000 mm 0,0 UV-I 7 W/m² 12,8 °C 13,9 °C 0,0 km/h (0 Bft)
22.07.2018 06:47 13,9 °C 93 % 1011,3 hPa 0,0 mm 0,0 km/h (0 Bft) S 187 ° 0 min 0,000 mm 0,0 UV-I 9 W/m² 12,8 °C 13,9 °C 0,0 km/h (0 Bft)
22.07.2018 06:48 13,9 °C 93 % 1011,3 hPa 0,2 mm 0,0 km/h (0 Bft) S 187 ° 0 min 0,000 mm 0,0 UV-I 9 W/m² 12,8 °C 13,9 °C 0,0 km/h (0 Bft)
22.07.2018 06:49 13,9 °C 93 % 1011,3 hPa 0,0 mm 0,0 km/h (0 Bft) S 187 ° 0 min 0,000 mm 0,0 UV-I 9 W/m² 12,8 °C 13,9 °C 0,0 km/h (0 Bft)
22.07.2018 06:50 13,9 °C 93 % 1011,3 hPa 0,2 mm 0,1 km/h (0 Bft) S 187 ° 0 min 0,000 mm 0,0 UV-I 9 W/m² 12,8 °C 13,9 °C 1,6 km/h (1 Bft)
22.07.2018 06:51 13,9 °C 93 % 1011,2 hPa 0,0 mm 0,0 km/h (0 Bft) S 187 ° 0 min 0,000 mm 0,0 UV-I 9 W/m² 12,8 °C 13,9 °C 0,0 km/h (0 Bft)
22.07.2018 06:52 13,9 °C 93 % 1011,2 hPa 0,2 mm 0,0 km/h (0 Bft) S 187 ° 0 min 0,000 mm 0,0 UV-I 9 W/m² 12,8 °C 13,9 °C 0,0 km/h (0 Bft)
22.07.2018 06:53 13,9 °C 93 % 1011,2 hPa 0,0 mm 0,0 km/h (0 Bft) S 187 ° 0 min 0,000 mm 0,0 UV-I 9 W/m² 12,8 °C 13,9 °C 0,0 km/h (0 Bft)
22.07.2018 06:54 13,9 °C 93 % 1011,2 hPa 0,2 mm 0,1 km/h (0 Bft) S 187 ° 0 min 0,000 mm 0,0 UV-I 9 W/m² 12,8 °C 13,9 °C 1,6 km/h (1 Bft)
22.07.2018 06:55 13,9 °C 93 % 1011,3 hPa 0,0 mm 2,5 km/h (1 Bft) S 187 ° 0 min 0,000 mm 0,0 UV-I 9 W/m² 12,8 °C 13,9 °C 4,8 km/h (1 Bft)
22.07.2018 06:56 13,9 °C 93 % 1011,3 hPa 0,0 mm 0,5 km/h (0 Bft) S 187 ° 0 min 0,000 mm 0,0 UV-I 9 W/m² 12,8 °C 13,9 °C 1,6 km/h (1 Bft)
22.07.2018 06:57 13,8 °C 94 % 1011,3 hPa 0,0 mm 0,2 km/h (0 Bft) S 187 ° 0 min 0,000 mm 0,0 UV-I 7 W/m² 12,9 °C 13,8 °C 1,6 km/h (1 Bft)
22.07.2018 06:58 13,8 °C 94 % 1011,3 hPa 0,0 mm 5,0 km/h (1 Bft) S-SW 193 ° 0 min 0,000 mm 0,0 UV-I 7 W/m² 12,9 °C 13,8 °C 8,0 km/h (2 Bft)
22.07.2018 06:59 13,8 °C 93 % 1011,3 hPa 0,0 mm 2,4 km/h (1 Bft) S-SW 210 ° 0 min 0,000 mm 0,0 UV-I 7 W/m² 12,7 °C 13,8 °C 3,2 km/h (1 Bft)
22.07.2018 07:00 13,9 °C 93 % 1011,3 hPa 0,0 mm 0,2 km/h (0 Bft) S-SW 210 ° 0 min 0,000 mm 0,0 UV-I 7 W/m² 12,8 °C 13,9 °C 1,6 km/h (1 Bft)
22.07.2018 07:01 13,9 °C 94 % 1011,3 hPa 0,0 mm 0,0 km/h (0 Bft) S-SW 213 ° 0 min 0,000 mm 0,0 UV-I 7 W/m² 12,9 °C 13,9 °C 0,0 km/h (0 Bft)
22.07.2018 07:02 13,8 °C 93 % 1011,3 hPa 0,2 mm 0,0 km/h (0 Bft) S-SW 213 ° 0 min 0,000 mm 0,0 UV-I 9 W/m² 12,7 °C 13,8 °C 0,0 km/h (0 Bft)
22.07.2018 07:03 13,9 °C 93 % 1011,3 hPa 0,0 mm 0,0 km/h (0 Bft) S-SW 213 ° 0 min 0,000 mm 0,0 UV-I 9 W/m² 12,8 °C 13,9 °C 0,0 km/h (0 Bft)
22.07.2018 07:04 13,9 °C 93 % 1011,3 hPa 0,0 mm 0,0 km/h (0 Bft) S-SW 213 ° 0 min 0,000 mm 0,0 UV-I 11 W/m² 12,8 °C 13,9 °C 0,0 km/h (0 Bft)
22.07.2018 07:05 13,9 °C 93 % 1011,3 hPa 0,0 mm 0,0 km/h (0 Bft) S-SW 213 ° 0 min 0,000 mm 0,0 UV-I 11 W/m² 12,8 °C 13,9 °C 0,0 km/h (0 Bft)
22.07.2018 07:06 13,9 °C 93 % 1011,4 hPa 0,0 mm 0,7 km/h (0 Bft) S-SW 213 ° 0 min 0,000 mm 0,0 UV-I 11 W/m² 12,8 °C 13,9 °C 1,6 km/h (1 Bft)
22.07.2018 07:07 13,9 °C 93 % 1011,4 hPa 0,0 mm 1,9 km/h (1 Bft) SW 223 ° 0 min 0,000 mm 0,0 UV-I 12 W/m² 12,8 °C 13,9 °C 4,8 km/h (1 Bft)
22.07.2018 07:08 13,9 °C 93 % 1011,4 hPa 0,0 mm 1,5 km/h (1 Bft) SW 223 ° 0 min 0,000 mm 0,0 UV-I 12 W/m² 12,8 °C 13,9 °C 3,2 km/h (1 Bft)
22.07.2018 07:09 13,9 °C 93 % 1011,4 hPa 0,0 mm 0,0 km/h (0 Bft) SW 223 ° 0 min 0,000 mm 0,0 UV-I 14 W/m² 12,8 °C 13,9 °C 0,0 km/h (0 Bft)
22.07.2018 07:10 13,9 °C 93 % 1011,4 hPa 0,0 mm 0,0 km/h (0 Bft) SW 223 ° 0 min 0,000 mm 0,0 UV-I 14 W/m² 12,8 °C 13,9 °C 0,0 km/h (0 Bft)
22.07.2018 07:11 13,9 °C 93 % 1011,4 hPa 0,0 mm 0,1 km/h (0 Bft) SW 224 ° 0 min 0,000 mm 0,0 UV-I 14 W/m² 12,8 °C 13,9 °C 1,6 km/h (1 Bft)
22.07.2018 07:12 13,9 °C 93 % 1011,4 hPa 0,0 mm 0,4 km/h (0 Bft) SW 224 ° 0 min 0,000 mm 0,0 UV-I 14 W/m² 12,8 °C 13,9 °C 3,2 km/h (1 Bft)
22.07.2018 07:13 13,9 °C 93 % 1011,4 hPa 0,0 mm 0,0 km/h (0 Bft) SW 224 ° 0 min 0,000 mm 0,0 UV-I 16 W/m² 12,8 °C 13,9 °C 0,0 km/h (0 Bft)
22.07.2018 07:14 13,9 °C 93 % 1011,5 hPa 0,0 mm 0,1 km/h (0 Bft) SW 224 ° 0 min 0,000 mm 0,0 UV-I 16 W/m² 12,8 °C 13,9 °C 1,6 km/h (1 Bft)
22.07.2018 07:15 13,9 °C 93 % 1011,4 hPa 0,0 mm 0,0 km/h (0 Bft) SW 224 ° 0 min 0,000 mm 0,0 UV-I 18 W/m² 12,8 °C 13,9 °C 0,0 km/h (0 Bft)
22.07.2018 07:16 13,9 °C 93 % 1011,5 hPa 0,0 mm 0,2 km/h (0 Bft) SW 224 ° 0 min 0,000 mm 0,0 UV-I 19 W/m² 12,8 °C 13,9 °C 1,6 km/h (1 Bft)
22.07.2018 07:17 13,9 °C 93 % 1011,4 hPa 0,0 mm 0,5 km/h (0 Bft) SW 224 ° 0 min 0,000 mm 0,0 UV-I 19 W/m² 12,8 °C 13,9 °C 1,6 km/h (1 Bft)
22.07.2018 07:18 14,0 °C 93 % 1011,5 hPa 0,0 mm 0,1 km/h (0 Bft) SW 224 ° 0 min 0,000 mm 0,0 UV-I 21 W/m² 12,9 °C 14,0 °C 1,6 km/h (1 Bft)
22.07.2018 07:19 13,9 °C 93 % 1011,5 hPa 0,0 mm 0,5 km/h (0 Bft) SW 224 ° 0 min 0,000 mm 0,0 UV-I 21 W/m² 12,8 °C 13,9 °C 1,6 km/h (1 Bft)
22.07.2018 07:20 13,9 °C 93 % 1011,4 hPa 0,0 mm 0,0 km/h (0 Bft) SW 224 ° 0 min 0,000 mm 0,0 UV-I 23 W/m² 12,8 °C 13,9 °C 0,0 km/h (0 Bft)
22.07.2018 07:21 14,0 °C 93 % 1011,5 hPa 0,0 mm 0,0 km/h (0 Bft) SW 224 ° 0 min 0,000 mm 0,0 UV-I 23 W/m² 12,9 °C 14,0 °C 0,0 km/h (0 Bft)
22.07.2018 07:22 14,0 °C 93 % 1011,5 hPa 0,0 mm 0,3 km/h (0 Bft) SW 224 ° 0 min 0,000 mm 0,0 UV-I 25 W/m² 12,9 °C 14,0 °C 1,6 km/h (1 Bft)
22.07.2018 07:23 14,0 °C 93 % 1011,5 hPa 0,0 mm 1,0 km/h (0 Bft) SW 224 ° 0 min 0,000 mm 0,0 UV-I 26 W/m² 12,9 °C 14,0 °C 3,2 km/h (1 Bft)
22.07.2018 07:24 14,0 °C 94 % 1011,4 hPa 0,0 mm 0,0 km/h (0 Bft) SW 224 ° 0 min 0,000 mm 0,0 UV-I 26 W/m² 13,0 °C 14,0 °C 0,0 km/h (0 Bft)
22.07.2018 07:25 14,1 °C 94 % 1011,4 hPa 0,0 mm 0,0 km/h (0 Bft) SW 224 ° 0 min 0,000 mm 0,0 UV-I 28 W/m² 13,1 °C 14,1 °C 0,0 km/h (0 Bft)
22.07.2018 07:26 14,1 °C 94 % 1011,4 hPa 0,0 mm 0,0 km/h (0 Bft) SW 224 ° 0 min 0,000 mm 0,0 UV-I 30 W/m² 13,1 °C 14,1 °C 0,0 km/h (0 Bft)
22.07.2018 07:27 14,1 °C 94 % 1011,3 hPa 0,0 mm 1,3 km/h (1 Bft) SW 224 ° 0 min 0,000 mm 0,0 UV-I 32 W/m² 13,1 °C 14,1 °C 3,2 km/h (1 Bft)
22.07.2018 07:28 14,1 °C 94 % 1011,4 hPa 0,0 mm 0,0 km/h (0 Bft) SW 224 ° 0 min 0,000 mm 0,0 UV-I 33 W/m² 13,1 °C 14,1 °C 0,0 km/h (0 Bft)
22.07.2018 07:29 14,1 °C 94 % 1011,4 hPa 0,0 mm 0,0 km/h (0 Bft) SW 224 ° 0 min 0,000 mm 0,0 UV-I 35 W/m² 13,1 °C 14,1 °C 0,0 km/h (0 Bft)
22.07.2018 07:30 14,1 °C 94 % 1011,3 hPa 0,0 mm 0,0 km/h (0 Bft) SW 224 ° 0 min 0,000 mm 0,0 UV-I 39 W/m² 13,1 °C 14,1 °C 0,0 km/h (0 Bft)
22.07.2018 07:31 14,1 °C 94 % 1011,3 hPa 0,0 mm 1,6 km/h (1 Bft) SW 224 ° 0 min 0,000 mm 0,0 UV-I 46 W/m² 13,1 °C 14,1 °C 4,8 km/h (1 Bft)
22.07.2018 07:32 14,1 °C 94 % 1011,3 hPa 0,0 mm 3,0 km/h (1 Bft) SW 225 ° 0 min 0,000 mm 0,0 UV-I 51 W/m² 13,1 °C 14,1 °C 4,8 km/h (1 Bft)
22.07.2018 07:33 14,1 °C 94 % 1011,3 hPa 0,0 mm 3,0 km/h (1 Bft) SW 233 ° 0 min 0,000 mm 0,0 UV-I 54 W/m² 13,1 °C 14,1 °C 4,8 km/h (1 Bft)
22.07.2018 07:34 14,2 °C 94 % 1011,3 hPa 0,0 mm 2,7 km/h (1 Bft) SW 233 ° 0 min 0,000 mm 0,0 UV-I 58 W/m² 13,2 °C 14,2 °C 4,8 km/h (1 Bft)
22.07.2018 07:35 14,2 °C 93 % 1011,3 hPa 0,0 mm 1,0 km/h (0 Bft) SW 233 ° 0 min 0,000 mm 0,0 UV-I 62 W/m² 13,1 °C 14,2 °C 3,2 km/h (1 Bft)
22.07.2018 07:36 14,2 °C 93 % 1011,3 hPa 0,0 mm 0,5 km/h (0 Bft) SW 233 ° 0 min 0,000 mm 0,0 UV-I 65 W/m² 13,1 °C 14,2 °C 1,6 km/h (1 Bft)
22.07.2018 07:37 14,2 °C 93 % 1011,4 hPa 0,0 mm 0,0 km/h (0 Bft) SW 233 ° 0 min 0,000 mm 0,0 UV-I 67 W/m² 13,1 °C 14,2 °C 0,0 km/h (0 Bft)
22.07.2018 07:38 14,3 °C 94 % 1011,3 hPa 0,0 mm 0,1 km/h (0 Bft) SW 233 ° 0 min 0,000 mm 0,5 UV-I 67 W/m² 13,3 °C 14,3 °C 1,6 km/h (1 Bft)
22.07.2018 07:39 14,3 °C 93 % 1011,4 hPa 0,0 mm 1,7 km/h (1 Bft) SW 233 ° 0 min 0,000 mm 0,5 UV-I 65 W/m² 13,2 °C 14,3 °C 3,2 km/h (1 Bft)
22.07.2018 07:40 14,3 °C 93 % 1011,4 hPa 0,0 mm 2,6 km/h (1 Bft) SW 233 ° 0 min 0,000 mm 0,5 UV-I 65 W/m² 13,2 °C 14,3 °C 3,2 km/h (1 Bft)
22.07.2018 07:41 14,3 °C 93 % 1011,4 hPa 0,0 mm 0,7 km/h (0 Bft) SW 233 ° 0 min 0,000 mm 0,5 UV-I 67 W/m² 13,2 °C 14,3 °C 1,6 km/h (1 Bft)
22.07.2018 07:42 14,3 °C 94 % 1011,4 hPa 0,0 mm 0,1 km/h (0 Bft) SW 233 ° 0 min 0,000 mm 0,5 UV-I 67 W/m² 13,3 °C 14,3 °C 1,6 km/h (1 Bft)
22.07.2018 07:43 14,4 °C 93 % 1011,4 hPa 0,0 mm 1,3 km/h (1 Bft) SW 233 ° 0 min 0,000 mm 0,5 UV-I 70 W/m² 13,3 °C 14,4 °C 3,2 km/h (1 Bft)
22.07.2018 07:44 14,4 °C 93 % 1011,4 hPa 0,0 mm 0,7 km/h (0 Bft) SW 233 ° 0 min 0,000 mm 0,5 UV-I 72 W/m² 13,3 °C 14,4 °C 1,6 km/h (1 Bft)
22.07.2018 07:45 14,4 °C 94 % 1011,5 hPa 0,0 mm 1,5 km/h (1 Bft) SW 233 ° 0 min 0,000 mm 0,5 UV-I 72 W/m² 13,4 °C 14,4 °C 3,2 km/h (1 Bft)
22.07.2018 07:46 14,4 °C 93 % 1011,5 hPa 0,0 mm 0,0 km/h (0 Bft) SW 233 ° 0 min 0,000 mm 0,5 UV-I 72 W/m² 13,3 °C 14,4 °C 0,0 km/h (0 Bft)
22.07.2018 07:47 14,4 °C 93 % 1011,5 hPa 0,0 mm 0,9 km/h (0 Bft) SW 233 ° 0 min 0,000 mm 0,5 UV-I 72 W/m² 13,3 °C 14,4 °C 3,2 km/h (1 Bft)
22.07.2018 07:48 14,4 °C 93 % 1011,5 hPa 0,0 mm 2,3 km/h (1 Bft) W-SW 250 ° 0 min 0,000 mm 0,5 UV-I 70 W/m² 13,3 °C 14,4 °C 4,8 km/h (1 Bft)
22.07.2018 07:49 14,4 °C 93 % 1011,5 hPa 0,0 mm 0,7 km/h (0 Bft) W-SW 250 ° 0 min 0,000 mm 0,5 UV-I 69 W/m² 13,3 °C 14,4 °C 3,2 km/h (1 Bft)
22.07.2018 07:50 14,4 °C 93 % 1011,5 hPa 0,0 mm 4,8 km/h (1 Bft) W-SW 248 ° 0 min 0,000 mm 0,5 UV-I 65 W/m² 13,3 °C 14,4 °C 8,0 km/h (2 Bft)
22.07.2018 07:51 14,4 °C 93 % 1011,5 hPa 0,0 mm 3,8 km/h (1 Bft) W-SW 240 ° 0 min 0,000 mm 0,0 UV-I 60 W/m² 13,3 °C 14,4 °C 6,4 km/h (2 Bft)
22.07.2018 07:52 14,4 °C 93 % 1011,5 hPa 0,0 mm 2,5 km/h (1 Bft) W-SW 238 ° 0 min 0,000 mm 0,0 UV-I 46 W/m² 13,3 °C 14,4 °C 4,8 km/h (1 Bft)
22.07.2018 07:53 14,4 °C 93 % 1011,5 hPa 0,0 mm 2,6 km/h (1 Bft) W-SW 250 ° 0 min 0,000 mm 0,0 UV-I 32 W/m² 13,3 °C 14,4 °C 4,8 km/h (1 Bft)
22.07.2018 07:54 14,4 °C 93 % 1011,6 hPa 0,0 mm 4,4 km/h (1 Bft) W-SW 246 ° 0 min 0,000 mm 0,0 UV-I 25 W/m² 13,3 °C 14,4 °C 9,7 km/h (2 Bft)
22.07.2018 07:55 14,5 °C 93 % 1011,6 hPa 0,0 mm 4,3 km/h (1 Bft) SW 224 ° 0 min 0,000 mm 0,0 UV-I 26 W/m² 13,4 °C 14,5 °C 6,4 km/h (2 Bft)
22.07.2018 07:56 14,5 °C 93 % 1011,6 hPa 0,0 mm 2,6 km/h (1 Bft) W 271 ° 0 min 0,000 mm 0,0 UV-I 30 W/m² 13,4 °C 14,5 °C 4,8 km/h (1 Bft)
22.07.2018 07:57 14,5 °C 93 % 1011,6 hPa 0,0 mm 4,4 km/h (1 Bft) W 267 ° 0 min 0,000 mm 0,0 UV-I 30 W/m² 13,4 °C 14,5 °C 6,4 km/h (2 Bft)
22.07.2018 07:58 14,5 °C 93 % 1011,6 hPa 0,0 mm 3,2 km/h (1 Bft) W 263 ° 0 min 0,000 mm 0,0 UV-I 28 W/m² 13,4 °C 14,5 °C 9,7 km/h (2 Bft)
22.07.2018 07:59 14,5 °C 93 % 1011,5 hPa 0,0 mm 2,0 km/h (1 Bft) W 280 ° 0 min 0,000 mm 0,0 UV-I 33 W/m² 13,4 °C 14,5 °C 4,8 km/h (1 Bft)
22.07.2018 08:00 14,5 °C 92 % 1011,5 hPa 0,2 mm 5,5 km/h (1 Bft) W-SW 248 ° 0 min 0,000 mm 0,0 UV-I 46 W/m² 13,2 °C 14,5 °C 11,3 km/h (2 Bft)
22.07.2018 08:01 14,4 °C 92 % 1011,6 hPa 0,0 mm 1,2 km/h (1 Bft) W-SW 248 ° 0 min 0,025 mm 0,0 UV-I 54 W/m² 13,1 °C 14,4 °C 3,2 km/h (1 Bft)
22.07.2018 08:02 14,4 °C 92 % 1011,6 hPa 0,0 mm 1,1 km/h (1 Bft) W-SW 245 ° 0 min 0,000 mm 0,5 UV-I 58 W/m² 13,1 °C 14,4 °C 4,8 km/h (1 Bft)
22.07.2018 08:03 14,5 °C 93 % 1011,6 hPa 0,0 mm 4,6 km/h (1 Bft) W 275 ° 0 min 0,000 mm 0,5 UV-I 63 W/m² 13,4 °C 14,5 °C 4,8 km/h (1 Bft)
22.07.2018 08:04 14,4 °C 93 % 1011,6 hPa 0,0 mm 3,5 km/h (1 Bft) S-SW 209 ° 0 min 0,000 mm 0,5 UV-I 67 W/m² 13,3 °C 14,4 °C 6,4 km/h (2 Bft)
22.07.2018 08:05 14,4 °C 92 % 1011,6 hPa 0,0 mm 5,2 km/h (1 Bft) W-SW 258 ° 0 min 0,000 mm 0,6 UV-I 72 W/m² 13,1 °C 14,4 °C 9,7 km/h (2 Bft)
22.07.2018 08:06 14,4 °C 92 % 1011,6 hPa 0,0 mm 3,3 km/h (1 Bft) SW 232 ° 0 min 0,000 mm 0,6 UV-I 74 W/m² 13,1 °C 14,4 °C 6,4 km/h (2 Bft)
22.07.2018 08:07 14,4 °C 92 % 1011,6 hPa 0,0 mm 5,7 km/h (1 Bft) W 274 ° 0 min 0,000 mm 0,6 UV-I 69 W/m² 13,1 °C 14,4 °C 11,3 km/h (2 Bft)
22.07.2018 08:08 14,5 °C 92 % 1011,6 hPa 0,0 mm 4,6 km/h (1 Bft) W 267 ° 0 min 0,000 mm 0,5 UV-I 67 W/m² 13,2 °C 14,5 °C 9,7 km/h (2 Bft)
22.07.2018 08:09 14,6 °C 93 % 1011,6 hPa 0,0 mm 5,1 km/h (1 Bft) W 267 ° 0 min 0,000 mm 0,5 UV-I 67 W/m² 13,5 °C 14,6 °C 6,4 km/h (2 Bft)
22.07.2018 08:10 14,6 °C 92 % 1011,6 hPa 0,0 mm 1,7 km/h (1 Bft) W 267 ° 0 min 0,000 mm 0,6 UV-I 72 W/m² 13,3 °C 14,6 °C 4,8 km/h (1 Bft)
22.07.2018 08:11 14,6 °C 92 % 1011,6 hPa 0,0 mm 1,6 km/h (1 Bft) W 266 ° 0 min 0,000 mm 0,6 UV-I 79 W/m² 13,3 °C 14,6 °C 3,2 km/h (1 Bft)
22.07.2018 08:12 14,6 °C 92 % 1011,6 hPa 0,0 mm 4,8 km/h (1 Bft) W-SW 238 ° 0 min 0,000 mm 0,7 UV-I 84 W/m² 13,3 °C 14,6 °C 9,7 km/h (2 Bft)
22.07.2018 08:13 14,6 °C 92 % 1011,7 hPa 0,0 mm 1,4 km/h (1 Bft) W-SW 238 ° 0 min 0,000 mm 0,7 UV-I 84 W/m² 13,3 °C 14,6 °C 4,8 km/h (1 Bft)
22.07.2018 08:14 14,6 °C 92 % 1011,7 hPa 0,0 mm 1,2 km/h (1 Bft) W-SW 238 ° 0 min 0,000 mm 0,7 UV-I 86 W/m² 13,3 °C 14,6 °C 3,2 km/h (1 Bft)
22.07.2018 08:15 14,6 °C 92 % 1011,6 hPa 0,0 mm 0,1 km/h (0 Bft) W-SW 238 ° 0 min 0,000 mm 0,7 UV-I 84 W/m² 13,3 °C 14,6 °C 1,6 km/h (1 Bft)
22.07.2018 08:16 14,6 °C 92 % 1011,6 hPa 0,0 mm 3,2 km/h (1 Bft) W 273 ° 0 min 0,000 mm 0,7 UV-I 84 W/m² 13,3 °C 14,6 °C 6,4 km/h (2 Bft)
22.07.2018 08:17 14,7 °C 92 % 1011,7 hPa 0,0 mm 1,4 km/h (1 Bft) W 273 ° 0 min 0,000 mm 0,6 UV-I 83 W/m² 13,4 °C 14,7 °C 3,2 km/h (1 Bft)
22.07.2018 08:18 14,7 °C 92 % 1011,8 hPa 0,0 mm 0,1 km/h (0 Bft) W 273 ° 0 min 0,000 mm 0,6 UV-I 76 W/m² 13,4 °C 14,7 °C 1,6 km/h (1 Bft)
22.07.2018 08:19 14,7 °C 93 % 1011,7 hPa 0,0 mm 2,3 km/h (1 Bft) W 273 ° 0 min 0,000 mm 0,5 UV-I 70 W/m² 13,6 °C 14,7 °C 9,7 km/h (2 Bft)
22.07.2018 08:20 14,7 °C 93 % 1011,8 hPa 0,0 mm 6,9 km/h (2 Bft) W 268 ° 0 min 0,000 mm 0,5 UV-I 62 W/m² 13,6 °C 14,7 °C 11,3 km/h (2 Bft)
22.07.2018 08:21 14,7 °C 92 % 1011,7 hPa 0,0 mm 6,2 km/h (2 Bft) W-NW 290 ° 0 min 0,000 mm 0,0 UV-I 54 W/m² 13,4 °C 14,7 °C 9,7 km/h (2 Bft)
22.07.2018 08:22 14,7 °C 92 % 1011,7 hPa 0,0 mm 2,1 km/h (1 Bft) W-NW 290 ° 0 min 0,000 mm 0,0 UV-I 46 W/m² 13,4 °C 14,7 °C 3,2 km/h (1 Bft)
22.07.2018 08:23 14,7 °C 92 % 1011,8 hPa 0,0 mm 1,9 km/h (1 Bft) W-SW 251 ° 0 min 0,000 mm 0,0 UV-I 40 W/m² 13,4 °C 14,7 °C 4,8 km/h (1 Bft)
22.07.2018 08:24 14,7 °C 92 % 1011,8 hPa 0,0 mm 3,0 km/h (1 Bft) W-NW 292 ° 0 min 0,000 mm 0,0 UV-I 35 W/m² 13,4 °C 14,7 °C 8,0 km/h (2 Bft)
22.07.2018 08:25 14,7 °C 92 % 1011,8 hPa 0,0 mm 3,8 km/h (1 Bft) SW 216 ° 0 min 0,000 mm 0,0 UV-I 35 W/m² 13,4 °C 14,7 °C 6,4 km/h (2 Bft)
22.07.2018 08:26 14,6 °C 92 % 1011,8 hPa 0,0 mm 1,8 km/h (1 Bft) S-SW 213 ° 0 min 0,000 mm 0,0 UV-I 33 W/m² 13,3 °C 14,6 °C 3,2 km/h (1 Bft)
22.07.2018 08:27 14,6 °C 92 % 1011,8 hPa 0,0 mm 0,6 km/h (0 Bft) S-SW 213 ° 0 min 0,000 mm 0,0 UV-I 30 W/m² 13,3 °C 14,6 °C 3,2 km/h (1 Bft)
22.07.2018 08:28 14,6 °C 92 % 1011,8 hPa 0,0 mm 1,6 km/h (1 Bft) S-SW 213 ° 0 min 0,000 mm 0,0 UV-I 26 W/m² 13,3 °C 14,6 °C 3,2 km/h (1 Bft)
22.07.2018 08:29 14,6 °C 92 % 1011,8 hPa 0,0 mm 4,6 km/h (1 Bft) W 280 ° 0 min 0,000 mm 0,0 UV-I 26 W/m² 13,3 °C 14,6 °C 6,4 km/h (2 Bft)
22.07.2018 08:30 14,6 °C 92 % 1011,8 hPa 0,2 mm 1,1 km/h (1 Bft) W-SW 257 ° 0 min 0,000 mm 0,0 UV-I 33 W/m² 13,3 °C 14,6 °C 3,2 km/h (1 Bft)
22.07.2018 08:31 14,6 °C 92 % 1011,8 hPa 0,0 mm 2,1 km/h (1 Bft) W 261 ° 0 min 0,000 mm 0,0 UV-I 35 W/m² 13,3 °C 14,6 °C 3,2 km/h (1 Bft)
22.07.2018 08:32 14,5 °C 92 % 1011,8 hPa 0,0 mm 0,5 km/h (0 Bft) W 261 ° 0 min 0,000 mm 0,0 UV-I 37 W/m² 13,2 °C 14,5 °C 1,6 km/h (1 Bft)
22.07.2018 08:33 14,5 °C 92 % 1011,9 hPa 0,0 mm 1,7 km/h (1 Bft) W 261 ° 0 min 0,000 mm 0,0 UV-I 39 W/m² 13,2 °C 14,5 °C 3,2 km/h (1 Bft)
22.07.2018 08:34 14,5 °C 92 % 1011,8 hPa 0,0 mm 3,9 km/h (1 Bft) W-SW 250 ° 0 min 0,000 mm 0,0 UV-I 42 W/m² 13,2 °C 14,5 °C 9,7 km/h (2 Bft)
22.07.2018 08:35 14,5 °C 92 % 1011,8 hPa 0,0 mm 5,4 km/h (1 Bft) W-SW 248 ° 0 min 0,000 mm 0,0 UV-I 46 W/m² 13,2 °C 14,5 °C 8,0 km/h (2 Bft)
22.07.2018 08:36 14,5 °C 92 % 1011,8 hPa 0,0 mm 6,4 km/h (2 Bft) SW 232 ° 0 min 0,000 mm 0,0 UV-I 49 W/m² 13,2 °C 14,5 °C 11,3 km/h (2 Bft)
22.07.2018 08:37 14,4 °C 92 % 1011,8 hPa 0,0 mm 2,7 km/h (1 Bft) SW 232 ° 0 min 0,000 mm 0,0 UV-I 49 W/m² 13,1 °C 14,4 °C 4,8 km/h (1 Bft)
22.07.2018 08:38 14,4 °C 92 % 1011,8 hPa 0,0 mm 3,6 km/h (1 Bft) W 270 ° 0 min 0,000 mm 0,0 UV-I 46 W/m² 13,1 °C 14,4 °C 4,8 km/h (1 Bft)
22.07.2018 08:39 14,4 °C 92 % 1011,8 hPa 0,0 mm 2,4 km/h (1 Bft) W-SW 238 ° 0 min 0,000 mm 0,0 UV-I 44 W/m² 13,1 °C 14,4 °C 9,7 km/h (2 Bft)
22.07.2018 08:40 14,4 °C 92 % 1011,8 hPa 0,0 mm 4,4 km/h (1 Bft) S-SW 196 ° 0 min 0,000 mm 0,0 UV-I 44 W/m² 13,1 °C 14,4 °C 8,0 km/h (2 Bft)
22.07.2018 08:41 14,4 °C 92 % 1011,9 hPa 0,0 mm 3,1 km/h (1 Bft) W-SW 252 ° 0 min 0,000 mm 0,0 UV-I 46 W/m² 13,1 °C 14,4 °C 4,8 km/h (1 Bft)
22.07.2018 08:42 14,4 °C 92 % 1011,8 hPa 0,0 mm 4,5 km/h (1 Bft) W 259 ° 0 min 0,000 mm 0,0 UV-I 53 W/m² 13,1 °C 14,4 °C 11,3 km/h (2 Bft)
22.07.2018 08:43 14,4 °C 92 % 1011,8 hPa 0,0 mm 4,1 km/h (1 Bft) W-SW 250 ° 0 min 0,000 mm 0,0 UV-I 56 W/m² 13,1 °C 14,4 °C 6,4 km/h (2 Bft)
22.07.2018 08:44 14,4 °C 92 % 1011,8 hPa 0,0 mm 3,2 km/h (1 Bft) W 281 ° 0 min 0,000 mm 0,5 UV-I 60 W/m² 13,1 °C 14,4 °C 11,3 km/h (2 Bft)
22.07.2018 08:45 14,4 °C 92 % 1011,8 hPa 0,0 mm 2,7 km/h (1 Bft) W 259 ° 0 min 0,000 mm 0,5 UV-I 63 W/m² 13,1 °C 14,4 °C 6,4 km/h (2 Bft)
22.07.2018 08:46 14,4 °C 92 % 1011,8 hPa 0,0 mm 0,9 km/h (0 Bft) SW 221 ° 0 min 0,000 mm 0,5 UV-I 67 W/m² 13,1 °C 14,4 °C 3,2 km/h (1 Bft)
22.07.2018 08:47 14,4 °C 92 % 1011,8 hPa 0,0 mm 0,2 km/h (0 Bft) SW 222 ° 0 min 0,000 mm 0,6 UV-I 70 W/m² 13,1 °C 14,4 °C 1,6 km/h (1 Bft)
22.07.2018 08:48 14,4 °C 92 % 1011,8 hPa 0,0 mm 4,3 km/h (1 Bft) W 263 ° 0 min 0,000 mm 0,6 UV-I 79 W/m² 13,1 °C 14,4 °C 6,4 km/h (2 Bft)
22.07.2018 08:49 14,6 °C 92 % 1011,8 hPa 0,0 mm 7,3 km/h (2 Bft) SW 227 ° 0 min 0,000 mm 0,7 UV-I 84 W/m² 13,3 °C 14,6 °C 11,3 km/h (2 Bft)
22.07.2018 08:50 14,5 °C 92 % 1011,8 hPa 0,0 mm 2,4 km/h (1 Bft) SW 216 ° 0 min 0,000 mm 0,7 UV-I 90 W/m² 13,2 °C 14,5 °C 4,8 km/h (1 Bft)
22.07.2018 08:51 14,4 °C 92 % 1011,8 hPa 0,0 mm 3,4 km/h (1 Bft) W-SW 257 ° 0 min 0,000 mm 0,8 UV-I 97 W/m² 13,1 °C 14,4 °C 6,4 km/h (2 Bft)
22.07.2018 08:52 14,5 °C 92 % 1011,8 hPa 0,0 mm 3,4 km/h (1 Bft) W 259 ° 0 min 0,000 mm 0,9 UV-I 104 W/m² 13,2 °C 14,5 °C 6,4 km/h (2 Bft)
22.07.2018 08:53 14,5 °C 92 % 1011,8 hPa 0,0 mm 0,9 km/h (0 Bft) W 259 ° 0 min 0,000 mm 0,9 UV-I 118 W/m² 13,2 °C 14,5 °C 3,2 km/h (1 Bft)
22.07.2018 08:54 14,6 °C 92 % 1011,8 hPa 0,0 mm 0,7 km/h (0 Bft) SW 223 ° 0 min 0,000 mm 1,0 UV-I 121 W/m² 13,3 °C 14,6 °C 1,6 km/h (1 Bft)
22.07.2018 08:55 14,6 °C 92 % 1011,8 hPa 0,0 mm 1,0 km/h (0 Bft) SW 223 ° 0 min 0,000 mm 1,0 UV-I 121 W/m² 13,3 °C 14,6 °C 3,2 km/h (1 Bft)
22.07.2018 08:56 14,6 °C 92 % 1011,8 hPa 0,0 mm 2,0 km/h (1 Bft) SW 223 ° 0 min 0,000 mm 1,0 UV-I 118 W/m² 13,3 °C 14,6 °C 3,2 km/h (1 Bft)
22.07.2018 08:57 14,6 °C 92 % 1011,8 hPa 0,0 mm 2,5 km/h (1 Bft) SW 229 ° 0 min 0,000 mm 0,9 UV-I 113 W/m² 13,3 °C 14,6 °C 4,8 km/h (1 Bft)
22.07.2018 08:58 14,7 °C 92 % 1011,9 hPa 0,0 mm 2,2 km/h (1 Bft) W 280 ° 0 min 0,000 mm 0,8 UV-I 102 W/m² 13,4 °C 14,7 °C 4,8 km/h (1 Bft)
22.07.2018 08:59 14,8 °C 92 % 1011,9 hPa 0,0 mm 2,8 km/h (1 Bft) W-SW 254 ° 0 min 0,000 mm 0,7 UV-I 77 W/m² 13,5 °C 14,8 °C 6,4 km/h (2 Bft)
22.07.2018 09:00 14,8 °C 92 % 1011,9 hPa 0,0 mm 2,7 km/h (1 Bft) W 262 ° 0 min 0,026 mm 0,5 UV-I 67 W/m² 13,5 °C 14,8 °C 4,8 km/h (1 Bft)
22.07.2018 09:01 14,8 °C 92 % 1011,9 hPa 0,0 mm 0,8 km/h (0 Bft) W 263 ° 0 min 0,000 mm 0,5 UV-I 62 W/m² 13,5 °C 14,8 °C 3,2 km/h (1 Bft)
22.07.2018 09:02 14,8 °C 92 % 1011,9 hPa 0,0 mm 3,1 km/h (1 Bft) W-SW 238 ° 0 min 0,000 mm 0,5 UV-I 58 W/m² 13,5 °C 14,8 °C 6,4 km/h (2 Bft)
22.07.2018 09:03 14,8 °C 92 % 1011,9 hPa 0,0 mm 2,4 km/h (1 Bft) W-SW 238 ° 0 min 0,000 mm 0,5 UV-I 56 W/m² 13,5 °C 14,8 °C 4,8 km/h (1 Bft)
22.07.2018 09:04 14,8 °C 92 % 1011,9 hPa 0,0 mm 5,1 km/h (1 Bft) W-SW 242 ° 0 min 0,000 mm 0,0 UV-I 53 W/m² 13,5 °C 14,8 °C 9,7 km/h (2 Bft)
22.07.2018 09:05 14,8 °C 92 % 1011,9 hPa 0,0 mm 1,4 km/h (1 Bft) W-SW 250 ° 0 min 0,000 mm 0,0 UV-I 46 W/m² 13,5 °C 14,8 °C 4,8 km/h (1 Bft)
22.07.2018 09:06 14,8 °C 92 % 1011,9 hPa 0,0 mm 7,4 km/h (2 Bft) W-SW 253 ° 0 min 0,000 mm 0,0 UV-I 46 W/m² 13,5 °C 14,8 °C 12,9 km/h (3 Bft)
22.07.2018 09:07 14,7 °C 92 % 1011,9 hPa 0,0 mm 4,4 km/h (1 Bft) W-SW 250 ° 0 min 0,000 mm 0,0 UV-I 47 W/m² 13,4 °C 14,7 °C 8,0 km/h (2 Bft)
22.07.2018 09:08 14,7 °C 92 % 1012,0 hPa 0,0 mm 3,6 km/h (1 Bft) W-SW 257 ° 0 min 0,000 mm 0,0 UV-I 51 W/m² 13,4 °C 14,7 °C 4,8 km/h (1 Bft)
22.07.2018 09:09 14,7 °C 92 % 1011,9 hPa 0,0 mm 5,2 km/h (1 Bft) W-SW 247 ° 0 min 0,000 mm 0,0 UV-I 51 W/m² 13,4 °C 14,7 °C 9,7 km/h (2 Bft)
22.07.2018 09:10 14,7 °C 92 % 1012,0 hPa 0,0 mm 11,6 km/h (2 Bft) W 261 ° 0 min 0,000 mm 0,0 UV-I 47 W/m² 13,4 °C 14,7 °C 16,1 km/h (3 Bft)
22.07.2018 09:11 14,7 °C 92 % 1012,0 hPa 0,0 mm 5,7 km/h (1 Bft) W 262 ° 0 min 0,000 mm 0,0 UV-I 53 W/m² 13,4 °C 14,7 °C 11,3 km/h (2 Bft)
22.07.2018 09:12 14,7 °C 92 % 1012,0 hPa 0,0 mm 6,6 km/h (2 Bft) W 261 ° 0 min 0,000 mm 0,0 UV-I 54 W/m² 13,4 °C 14,7 °C 11,3 km/h (2 Bft)
22.07.2018 09:13 14,7 °C 92 % 1012,0 hPa 0,0 mm 8,4 km/h (2 Bft) W 267 ° 0 min 0,000 mm 0,0 UV-I 54 W/m² 13,4 °C 14,7 °C 12,9 km/h (3 Bft)
22.07.2018 09:14 14,7 °C 92 % 1012,0 hPa 0,0 mm 5,0 km/h (1 Bft) W-SW 244 ° 0 min 0,000 mm 0,5 UV-I 56 W/m² 13,4 °C 14,7 °C 9,7 km/h (2 Bft)
22.07.2018 09:15 14,7 °C 92 % 1012,0 hPa 0,0 mm 3,4 km/h (1 Bft) W 275 ° 0 min 0,000 mm 0,5 UV-I 60 W/m² 13,4 °C 14,7 °C 9,7 km/h (2 Bft)
22.07.2018 09:16 14,7 °C 92 % 1012,0 hPa 0,2 mm 7,5 km/h (2 Bft) W 263 ° 0 min 0,000 mm 0,5 UV-I 63 W/m² 13,4 °C 14,7 °C 12,9 km/h (3 Bft)
22.07.2018 09:17 14,7 °C 92 % 1012,0 hPa 0,0 mm 6,9 km/h (2 Bft) W 261 ° 0 min 0,000 mm 0,5 UV-I 65 W/m² 13,4 °C 14,7 °C 11,3 km/h (2 Bft)
22.07.2018 09:18 14,7 °C 92 % 1012,0 hPa 0,0 mm 6,6 km/h (2 Bft) W 267 ° 0 min 0,000 mm 0,5 UV-I 63 W/m² 13,4 °C 14,7 °C 11,3 km/h (2 Bft)
22.07.2018 09:19 14,7 °C 92 % 1012,1 hPa 0,0 mm 4,4 km/h (1 Bft) W 279 ° 0 min 0,000 mm 0,5 UV-I 63 W/m² 13,4 °C 14,7 °C 6,4 km/h (2 Bft)
22.07.2018 09:20 14,7 °C 92 % 1012,0 hPa 0,0 mm 3,8 km/h (1 Bft) W 276 ° 0 min 0,000 mm 0,6 UV-I 67 W/m² 13,4 °C 14,7 °C 9,7 km/h (2 Bft)
22.07.2018 09:21 14,6 °C 92 % 1012,0 hPa 0,0 mm 2,6 km/h (1 Bft) W-NW 296 ° 0 min 0,000 mm 0,6 UV-I 72 W/m² 13,3 °C 14,6 °C 6,4 km/h (2 Bft)
22.07.2018 09:22 14,6 °C 92 % 1012,0 hPa 0,0 mm 5,1 km/h (1 Bft) W-SW 242 ° 0 min 0,000 mm 0,7 UV-I 77 W/m² 13,3 °C 14,6 °C 12,9 km/h (3 Bft)
22.07.2018 09:23 14,6 °C 92 % 1012,1 hPa 0,0 mm 7,0 km/h (2 Bft) W 263 ° 0 min 0,000 mm 0,7 UV-I 83 W/m² 13,3 °C 14,6 °C 11,3 km/h (2 Bft)
22.07.2018 09:24 14,6 °C 92 % 1012,1 hPa 0,0 mm 3,7 km/h (1 Bft) SW 220 ° 0 min 0,000 mm 0,7 UV-I 83 W/m² 13,3 °C 14,6 °C 11,3 km/h (2 Bft)
22.07.2018 09:25 14,6 °C 92 % 1012,1 hPa 0,0 mm 1,4 km/h (1 Bft) SW 220 ° 0 min 0,000 mm 0,7 UV-I 79 W/m² 13,3 °C 14,6 °C 3,2 km/h (1 Bft)
22.07.2018 09:26 14,6 °C 92 % 1012,1 hPa 0,0 mm 2,9 km/h (1 Bft) W-SW 249 ° 0 min 0,000 mm 0,6 UV-I 76 W/m² 13,3 °C 14,6 °C 6,4 km/h (2 Bft)
22.07.2018 09:27 14,6 °C 92 % 1012,0 hPa 0,0 mm 8,9 km/h (2 Bft) W-SW 238 ° 0 min 0,000 mm 0,6 UV-I 72 W/m² 13,3 °C 14,6 °C 16,1 km/h (3 Bft)
22.07.2018 09:28 14,7 °C 92 % 1012,0 hPa 0,0 mm 5,5 km/h (1 Bft) W-NW 296 ° 0 min 0,000 mm 0,6 UV-I 72 W/m² 13,4 °C 14,7 °C 9,7 km/h (2 Bft)
22.07.2018 09:29 14,7 °C 92 % 1012,0 hPa 0,0 mm 5,9 km/h (2 Bft) SW 233 ° 0 min 0,000 mm 0,6 UV-I 76 W/m² 13,4 °C 14,7 °C 9,7 km/h (2 Bft)
22.07.2018 09:30 14,6 °C 92 % 1011,9 hPa 0,0 mm 4,6 km/h (1 Bft) W 263 ° 0 min 0,000 mm 0,7 UV-I 79 W/m² 13,3 °C 14,6 °C 16,1 km/h (3 Bft)
22.07.2018 09:31 14,7 °C 92 % 1011,9 hPa 0,0 mm 5,3 km/h (1 Bft) W-SW 243 ° 0 min 0,000 mm 0,7 UV-I 83 W/m² 13,4 °C 14,7 °C 11,3 km/h (2 Bft)
22.07.2018 09:32 14,6 °C 92 % 1012,0 hPa 0,0 mm 3,2 km/h (1 Bft) W 269 ° 0 min 0,000 mm 0,7 UV-I 88 W/m² 13,3 °C 14,6 °C 4,8 km/h (1 Bft)
22.07.2018 09:33 14,6 °C 92 % 1012,0 hPa 0,0 mm 3,8 km/h (1 Bft) SW 225 ° 0 min 0,000 mm 0,8 UV-I 95 W/m² 13,3 °C 14,6 °C 6,4 km/h (2 Bft)
22.07.2018 09:34 14,6 °C 92 % 1012,0 hPa 0,0 mm 9,5 km/h (2 Bft) SW 236 ° 0 min 0,000 mm 0,9 UV-I 104 W/m² 13,3 °C 14,6 °C 14,5 km/h (3 Bft)
22.07.2018 09:35 14,7 °C 92 % 1012,0 hPa 0,0 mm 5,1 km/h (1 Bft) W 267 ° 0 min 0,000 mm 1,0 UV-I 121 W/m² 13,4 °C 14,7 °C 11,3 km/h (2 Bft)
22.07.2018 09:36 14,7 °C 92 % 1012,0 hPa 0,0 mm 4,4 km/h (1 Bft) W 271 ° 0 min 0,000 mm 1,1 UV-I 127 W/m² 13,4 °C 14,7 °C 6,4 km/h (2 Bft)
22.07.2018 09:37 14,7 °C 92 % 1012,0 hPa 0,0 mm 8,6 km/h (2 Bft) W 271 ° 0 min 0,000 mm 1,1 UV-I 128 W/m² 13,4 °C 14,7 °C 14,5 km/h (3 Bft)
22.07.2018 09:38 14,8 °C 92 % 1012,0 hPa 0,0 mm 6,2 km/h (2 Bft) W-SW 257 ° 0 min 0,000 mm 1,1 UV-I 132 W/m² 13,5 °C 14,8 °C 11,3 km/h (2 Bft)
22.07.2018 09:39 14,8 °C 92 % 1012,0 hPa 0,0 mm 5,6 km/h (1 Bft) W 259 ° 0 min 0,000 mm 1,1 UV-I 135 W/m² 13,5 °C 14,8 °C 9,7 km/h (2 Bft)
22.07.2018 09:40 14,8 °C 92 % 1012,0 hPa 0,0 mm 2,0 km/h (1 Bft) SW 227 ° 0 min 0,000 mm 1,2 UV-I 144 W/m² 13,5 °C 14,8 °C 3,2 km/h (1 Bft)
22.07.2018 09:41 14,8 °C 92 % 1012,0 hPa 0,0 mm 3,0 km/h (1 Bft) NW 304 ° 0 min 0,000 mm 1,2 UV-I 149 W/m² 13,5 °C 14,8 °C 6,4 km/h (2 Bft)
22.07.2018 09:42 14,9 °C 92 % 1012,0 hPa 0,0 mm 4,6 km/h (1 Bft) W-SW 255 ° 0 min 0,000 mm 1,3 UV-I 153 W/m² 13,6 °C 14,9 °C 11,3 km/h (2 Bft)
22.07.2018 09:43 14,9 °C 92 % 1012,0 hPa 0,0 mm 6,7 km/h (2 Bft) S-SW 193 ° 0 min 0,000 mm 1,3 UV-I 155 W/m² 13,6 °C 14,9 °C 14,5 km/h (3 Bft)
22.07.2018 09:44 15,0 °C 92 % 1012,0 hPa 0,0 mm 2,5 km/h (1 Bft) SW 236 ° 0 min 0,000 mm 1,3 UV-I 155 W/m² 13,7 °C 15,0 °C 4,8 km/h (1 Bft)
22.07.2018 09:45 15,0 °C 92 % 1012,0 hPa 0,0 mm 2,1 km/h (1 Bft) W 266 ° 0 min 0,000 mm 1,2 UV-I 148 W/m² 13,7 °C 15,0 °C 4,8 km/h (1 Bft)
22.07.2018 09:46 15,0 °C 92 % 1012,0 hPa 0,0 mm 4,0 km/h (1 Bft) SW 217 ° 0 min 0,000 mm 1,0 UV-I 120 W/m² 13,7 °C 15,0 °C 6,4 km/h (2 Bft)
22.07.2018 09:47 15,0 °C 92 % 1012,0 hPa 0,0 mm 6,4 km/h (2 Bft) W-SW 258 ° 0 min 0,000 mm 1,1 UV-I 128 W/m² 13,7 °C 15,0 °C 11,3 km/h (2 Bft)
22.07.2018 09:48 15,0 °C 92 % 1012,0 hPa 0,0 mm 4,8 km/h (1 Bft) S-SW 211 ° 0 min 0,000 mm 1,1 UV-I 137 W/m² 13,7 °C 15,0 °C 6,4 km/h (2 Bft)
22.07.2018 09:49 15,1 °C 92 % 1012,0 hPa 0,0 mm 3,6 km/h (1 Bft) W-SW 240 ° 0 min 0,000 mm 1,1 UV-I 139 W/m² 13,8 °C 15,1 °C 8,0 km/h (2 Bft)
22.07.2018 09:50 15,1 °C 92 % 1012,0 hPa 0,0 mm 7,0 km/h (2 Bft) SW 234 ° 0 min 0,000 mm 1,1 UV-I 135 W/m² 13,8 °C 15,1 °C 9,7 km/h (2 Bft)
22.07.2018 09:51 15,1 °C 92 % 1011,9 hPa 0,0 mm 8,2 km/h (2 Bft) W 273 ° 0 min 0,000 mm 1,0 UV-I 127 W/m² 13,8 °C 15,1 °C 12,9 km/h (3 Bft)
22.07.2018 09:52 15,1 °C 92 % 1012,0 hPa 0,0 mm 6,6 km/h (2 Bft) W 267 ° 0 min 0,000 mm 1,1 UV-I 135 W/m² 13,8 °C 15,1 °C 12,9 km/h (3 Bft)
22.07.2018 09:53 15,1 °C 92 % 1012,0 hPa 0,0 mm 3,3 km/h (1 Bft) W 272 ° 0 min 0,000 mm 1,1 UV-I 134 W/m² 13,8 °C 15,1 °C 4,8 km/h (1 Bft)
22.07.2018 09:54 15,1 °C 92 % 1012,0 hPa 0,0 mm 3,5 km/h (1 Bft) W-SW 252 ° 0 min 0,000 mm 1,0 UV-I 121 W/m² 13,8 °C 15,1 °C 6,4 km/h (2 Bft)
22.07.2018 09:55 15,2 °C 92 % 1012,0 hPa 0,0 mm 5,1 km/h (1 Bft) W 271 ° 0 min 0,000 mm 1,0 UV-I 123 W/m² 13,9 °C 15,2 °C 9,7 km/h (2 Bft)
22.07.2018 09:56 15,2 °C 92 % 1012,0 hPa 0,0 mm 3,7 km/h (1 Bft) W-SW 257 ° 0 min 0,000 mm 1,1 UV-I 130 W/m² 13,9 °C 15,2 °C 6,4 km/h (2 Bft)
22.07.2018 09:57 15,2 °C 92 % 1012,0 hPa 0,0 mm 2,0 km/h (1 Bft) W-SW 254 ° 0 min 0,000 mm 1,1 UV-I 132 W/m² 13,9 °C 15,2 °C 3,2 km/h (1 Bft)
22.07.2018 09:58 15,2 °C 92 % 1012,0 hPa 0,0 mm 1,7 km/h (1 Bft) SW 232 ° 0 min 0,000 mm 1,0 UV-I 109 W/m² 13,9 °C 15,2 °C 4,8 km/h (1 Bft)
22.07.2018 09:59 15,2 °C 92 % 1012,0 hPa 0,0 mm 5,7 km/h (1 Bft) W-SW 249 ° 0 min 0,000 mm 0,9 UV-I 105 W/m² 13,9 °C 15,2 °C 12,9 km/h (3 Bft)
22.07.2018 10:00 15,2 °C 92 % 1012,1 hPa 0,0 mm 4,2 km/h (1 Bft) W 267 ° 0 min 0,000 mm 1,0 UV-I 120 W/m² 13,9 °C 15,2 °C 6,4 km/h (2 Bft)
22.07.2018 10:01 15,2 °C 92 % 1012,0 hPa 0,0 mm 3,8 km/h (1 Bft) W 267 ° 0 min 0,051 mm 1,0 UV-I 123 W/m² 13,9 °C 15,2 °C 4,8 km/h (1 Bft)
22.07.2018 10:02 15,2 °C 92 % 1012,1 hPa 0,0 mm 3,2 km/h (1 Bft) W 272 ° 0 min 0,000 mm 0,9 UV-I 114 W/m² 13,9 °C 15,2 °C 4,8 km/h (1 Bft)
22.07.2018 10:03 15,3 °C 92 % 1012,1 hPa 0,0 mm 8,0 km/h (2 Bft) W 268 ° 0 min 0,000 mm 0,9 UV-I 113 W/m² 14,0 °C 15,3 °C 11,3 km/h (2 Bft)
22.07.2018 10:04 15,3 °C 92 % 1012,0 hPa 0,0 mm 3,8 km/h (1 Bft) W 264 ° 0 min 0,000 mm 1,0 UV-I 123 W/m² 14,0 °C 15,3 °C 6,4 km/h (2 Bft)
22.07.2018 10:05 15,3 °C 92 % 1012,0 hPa 0,0 mm 0,5 km/h (0 Bft) W 264 ° 0 min 0,000 mm 0,9 UV-I 111 W/m² 14,0 °C 15,3 °C 3,2 km/h (1 Bft)
22.07.2018 10:06 15,3 °C 91 % 1012,1 hPa 0,0 mm 1,3 km/h (1 Bft) W 264 ° 0 min 0,000 mm 0,9 UV-I 102 W/m² 13,8 °C 15,3 °C 3,2 km/h (1 Bft)
22.07.2018 10:07 15,3 °C 92 % 1012,1 hPa 0,0 mm 3,8 km/h (1 Bft) W 264 ° 0 min 0,000 mm 0,9 UV-I 102 W/m² 14,0 °C 15,3 °C 6,4 km/h (2 Bft)
22.07.2018 10:08 15,3 °C 91 % 1012,0 hPa 0,0 mm 4,3 km/h (1 Bft) W 261 ° 0 min 0,000 mm 0,9 UV-I 100 W/m² 13,8 °C 15,3 °C 11,3 km/h (2 Bft)
22.07.2018 10:09 15,3 °C 91 % 1012,1 hPa 0,0 mm 3,4 km/h (1 Bft) W-SW 258 ° 0 min 0,000 mm 0,8 UV-I 88 W/m² 13,8 °C 15,3 °C 8,0 km/h (2 Bft)
22.07.2018 10:10 15,3 °C 91 % 1012,1 hPa 0,0 mm 2,7 km/h (1 Bft) W-SW 253 ° 0 min 0,000 mm 0,7 UV-I 81 W/m² 13,8 °C 15,3 °C 4,8 km/h (1 Bft)
22.07.2018 10:11 15,3 °C 91 % 1012,0 hPa 0,0 mm 2,3 km/h (1 Bft) W-SW 252 ° 0 min 0,000 mm 0,6 UV-I 74 W/m² 13,8 °C 15,3 °C 4,8 km/h (1 Bft)
22.07.2018 10:12 15,3 °C 91 % 1012,1 hPa 0,0 mm 2,8 km/h (1 Bft) S-SW 198 ° 0 min 0,000 mm 0,6 UV-I 74 W/m² 13,8 °C 15,3 °C 8,0 km/h (2 Bft)
22.07.2018 10:13 15,3 °C 91 % 1012,0 hPa 0,0 mm 2,1 km/h (1 Bft) W-NW 284 ° 0 min 0,000 mm 0,6 UV-I 74 W/m² 13,8 °C 15,3 °C 4,8 km/h (1 Bft)
22.07.2018 10:14 15,3 °C 91 % 1012,1 hPa 0,0 mm 9,1 km/h (2 Bft) W 263 ° 0 min 0,000 mm 0,6 UV-I 72 W/m² 13,8 °C 15,3 °C 11,3 km/h (2 Bft)
22.07.2018 10:15 15,3 °C 91 % 1012,1 hPa 0,0 mm 4,6 km/h (1 Bft) W 267 ° 0 min 0,000 mm 0,6 UV-I 72 W/m² 13,8 °C 15,3 °C 9,7 km/h (2 Bft)
22.07.2018 10:16 15,3 °C 91 % 1012,2 hPa 0,0 mm 7,3 km/h (2 Bft) W 269 ° 0 min 0,000 mm 0,6 UV-I 76 W/m² 13,8 °C 15,3 °C 11,3 km/h (2 Bft)
22.07.2018 10:17 15,3 °C 91 % 1012,2 hPa 0,0 mm 5,0 km/h (1 Bft) SW 228 ° 0 min 0,000 mm 0,7 UV-I 83 W/m² 13,8 °C 15,3 °C 8,0 km/h (2 Bft)
22.07.2018 10:18 15,3 °C 91 % 1012,1 hPa 0,0 mm 8,3 km/h (2 Bft) W 260 ° 0 min 0,000 mm 0,8 UV-I 93 W/m² 13,8 °C 15,3 °C 12,9 km/h (3 Bft)
22.07.2018 10:19 15,3 °C 91 % 1012,1 hPa 0,0 mm 6,8 km/h (2 Bft) W 259 ° 0 min 0,000 mm 0,8 UV-I 95 W/m² 13,8 °C 15,3 °C 11,3 km/h (2 Bft)
22.07.2018 10:20 15,3 °C 91 % 1012,1 hPa 0,0 mm 2,9 km/h (1 Bft) W-SW 253 ° 0 min 0,000 mm 0,8 UV-I 93 W/m² 13,8 °C 15,3 °C 4,8 km/h (1 Bft)
22.07.2018 10:21 15,3 °C 91 % 1012,1 hPa 0,0 mm 3,4 km/h (1 Bft) W-SW 253 ° 0 min 0,000 mm 0,8 UV-I 104 W/m² 13,8 °C 15,3 °C 4,8 km/h (1 Bft)
22.07.2018 10:22 15,3 °C 91 % 1012,1 hPa 0,0 mm 3,3 km/h (1 Bft) W-SW 254 ° 0 min 0,000 mm 0,9 UV-I 111 W/m² 13,8 °C 15,3 °C 4,8 km/h (1 Bft)
22.07.2018 10:23 15,3 °C 92 % 1012,1 hPa 0,0 mm 3,1 km/h (1 Bft) W 273 ° 0 min 0,000 mm 1,0 UV-I 118 W/m² 14,0 °C 15,3 °C 4,8 km/h (1 Bft)
22.07.2018 10:24 15,3 °C 92 % 1012,1 hPa 0,0 mm 3,0 km/h (1 Bft) W 275 ° 0 min 0,000 mm 1,1 UV-I 127 W/m² 14,0 °C 15,3 °C 4,8 km/h (1 Bft)
22.07.2018 10:25 15,4 °C 91 % 1012,1 hPa 0,0 mm 1,8 km/h (1 Bft) W 275 ° 0 min 0,000 mm 1,1 UV-I 130 W/m² 13,9 °C 15,4 °C 3,2 km/h (1 Bft)
22.07.2018 10:26 15,4 °C 91 % 1012,1 hPa 0,0 mm 3,4 km/h (1 Bft) W 275 ° 0 min 0,000 mm 1,1 UV-I 128 W/m² 13,9 °C 15,4 °C 6,4 km/h (2 Bft)
22.07.2018 10:27 15,4 °C 92 % 1012,1 hPa 0,0 mm 2,1 km/h (1 Bft) W 275 ° 0 min 0,000 mm 1,0 UV-I 113 W/m² 14,1 °C 15,4 °C 4,8 km/h (1 Bft)
22.07.2018 10:28 15,4 °C 91 % 1012,1 hPa 0,0 mm 3,0 km/h (1 Bft) W-NW 300 ° 0 min 0,000 mm 1,0 UV-I 113 W/m² 13,9 °C 15,4 °C 4,8 km/h (1 Bft)
22.07.2018 10:29 15,4 °C 91 % 1012,1 hPa 0,0 mm 3,6 km/h (1 Bft) W 277 ° 0 min 0,000 mm 1,0 UV-I 114 W/m² 13,9 °C 15,4 °C 6,4 km/h (2 Bft)
22.07.2018 10:30 15,4 °C 91 % 1012,1 hPa 0,0 mm 4,3 km/h (1 Bft) W-SW 254 ° 0 min 0,000 mm 1,0 UV-I 114 W/m² 13,9 °C 15,4 °C 8,0 km/h (2 Bft)
22.07.2018 10:31 15,4 °C 91 % 1012,1 hPa 0,0 mm 5,2 km/h (1 Bft) S-SW 203 ° 0 min 0,000 mm 1,0 UV-I 118 W/m² 13,9 °C 15,4 °C 9,7 km/h (2 Bft)
22.07.2018 10:32 15,4 °C 91 % 1012,1 hPa 0,0 mm 1,6 km/h (1 Bft) W 267 ° 0 min 0,000 mm 1,1 UV-I 121 W/m² 13,9 °C 15,4 °C 4,8 km/h (1 Bft)
22.07.2018 10:33 15,5 °C 91 % 1012,1 hPa 0,0 mm 3,0 km/h (1 Bft) W 267 ° 0 min 0,000 mm 1,1 UV-I 127 W/m² 14,0 °C 15,5 °C 4,8 km/h (1 Bft)
22.07.2018 10:34 15,6 °C 91 % 1012,1 hPa 0,0 mm 2,3 km/h (1 Bft) W-SW 258 ° 0 min 0,000 mm 1,1 UV-I 127 W/m² 14,1 °C 15,6 °C 3,2 km/h (1 Bft)
22.07.2018 10:35 15,6 °C 91 % 1012,1 hPa 0,0 mm 4,8 km/h (1 Bft) W 263 ° 0 min 0,000 mm 1,2 UV-I 130 W/m² 14,1 °C 15,6 °C 6,4 km/h (2 Bft)
22.07.2018 10:36 15,6 °C 91 % 1012,1 hPa 0,0 mm 5,0 km/h (1 Bft) W 260 ° 0 min 0,000 mm 1,2 UV-I 135 W/m² 14,1 °C 15,6 °C 9,7 km/h (2 Bft)
22.07.2018 10:37 15,6 °C 91 % 1012,1 hPa 0,0 mm 6,0 km/h (2 Bft) W 274 ° 0 min 0,000 mm 1,3 UV-I 142 W/m² 14,1 °C 15,6 °C 9,7 km/h (2 Bft)
22.07.2018 10:38 15,6 °C 91 % 1012,1 hPa 0,0 mm 3,7 km/h (1 Bft) W-SW 255 ° 0 min 0,000 mm 1,3 UV-I 149 W/m² 14,1 °C 15,6 °C 6,4 km/h (2 Bft)
22.07.2018 10:39 15,6 °C 91 % 1012,1 hPa 0,0 mm 3,4 km/h (1 Bft) W 259 ° 0 min 0,000 mm 1,4 UV-I 153 W/m² 14,1 °C 15,6 °C 9,7 km/h (2 Bft)
22.07.2018 10:40 15,7 °C 91 % 1012,1 hPa 0,0 mm 3,7 km/h (1 Bft) W 269 ° 0 min 0,000 mm 1,3 UV-I 149 W/m² 14,2 °C 15,7 °C 6,4 km/h (2 Bft)
22.07.2018 10:41 15,7 °C 91 % 1012,1 hPa 0,0 mm 2,5 km/h (1 Bft) W 269 ° 0 min 0,000 mm 1,3 UV-I 146 W/m² 14,2 °C 15,7 °C 3,2 km/h (1 Bft)
22.07.2018 10:42 15,7 °C 91 % 1012,2 hPa 0,0 mm 7,1 km/h (2 Bft) SW 223 ° 0 min 0,000 mm 1,3 UV-I 142 W/m² 14,2 °C 15,7 °C 17,7 km/h (3 Bft)
22.07.2018 10:43 15,7 °C 91 % 1012,2 hPa 0,0 mm 7,6 km/h (2 Bft) W 264 ° 0 min 0,000 mm 1,3 UV-I 139 W/m² 14,2 °C 15,7 °C 11,3 km/h (2 Bft)
22.07.2018 10:44 15,8 °C 91 % 1012,1 hPa 0,0 mm 5,4 km/h (1 Bft) W-NW 282 ° 0 min 0,000 mm 1,3 UV-I 135 W/m² 14,3 °C 15,8 °C 9,7 km/h (2 Bft)
22.07.2018 10:45 15,7 °C 91 % 1012,1 hPa 0,0 mm 2,2 km/h (1 Bft) W 271 ° 0 min 0,000 mm 1,2 UV-I 127 W/m² 14,2 °C 15,7 °C 4,8 km/h (1 Bft)
22.07.2018 10:46 15,7 °C 91 % 1012,1 hPa 0,0 mm 9,0 km/h (2 Bft) W 275 ° 0 min 0,000 mm 1,2 UV-I 121 W/m² 14,2 °C 15,7 °C 11,3 km/h (2 Bft)
22.07.2018 10:47 15,8 °C 90 % 1012,1 hPa 0,0 mm 2,2 km/h (1 Bft) W 260 ° 0 min 0,000 mm 1,1 UV-I 118 W/m² 14,2 °C 15,8 °C 3,2 km/h (1 Bft)
22.07.2018 10:48 15,8 °C 90 % 1012,1 hPa 0,0 mm 1,3 km/h (1 Bft) W 264 ° 0 min 0,000 mm 1,1 UV-I 116 W/m² 14,2 °C 15,8 °C 3,2 km/h (1 Bft)
22.07.2018 10:49 15,8 °C 91 % 1012,2 hPa 0,0 mm 5,0 km/h (1 Bft) W 273 ° 0 min 0,000 mm 1,1 UV-I 114 W/m² 14,3 °C 15,8 °C 11,3 km/h (2 Bft)
22.07.2018 10:50 15,8 °C 90 % 1012,1 hPa 0,0 mm 8,0 km/h (2 Bft) W-SW 247 ° 0 min 0,000 mm 1,0 UV-I 107 W/m² 14,2 °C 15,8 °C 14,5 km/h (3 Bft)
22.07.2018 10:51 15,8 °C 91 % 1012,1 hPa 0,0 mm 9,9 km/h (2 Bft) W 260 ° 0 min 0,000 mm 1,0 UV-I 104 W/m² 14,3 °C 15,8 °C 14,5 km/h (3 Bft)
22.07.2018 10:52 15,8 °C 90 % 1012,1 hPa 0,0 mm 6,1 km/h (2 Bft) W-SW 246 ° 0 min 0,000 mm 1,0 UV-I 104 W/m² 14,2 °C 15,8 °C 12,9 km/h (3 Bft)
22.07.2018 10:53 15,8 °C 90 % 1012,1 hPa 0,0 mm 6,4 km/h (2 Bft) W 278 ° 0 min 0,000 mm 1,0 UV-I 107 W/m² 14,2 °C 15,8 °C 11,3 km/h (2 Bft)
22.07.2018 10:54 15,8 °C 90 % 1012,2 hPa 0,0 mm 6,4 km/h (2 Bft) W 261 ° 0 min 0,000 mm 1,0 UV-I 109 W/m² 14,2 °C 15,8 °C 9,7 km/h (2 Bft)
22.07.2018 10:55 15,8 °C 90 % 1012,1 hPa 0,0 mm 5,5 km/h (1 Bft) W 265 ° 0 min 0,000 mm 1,1 UV-I 113 W/m² 14,2 °C 15,8 °C 9,7 km/h (2 Bft)
22.07.2018 10:56 15,8 °C 90 % 1012,2 hPa 0,0 mm 6,0 km/h (2 Bft) W 260 ° 0 min 0,000 mm 1,1 UV-I 113 W/m² 14,2 °C 15,8 °C 11,3 km/h (2 Bft)
22.07.2018 10:57 15,8 °C 90 % 1012,1 hPa 0,0 mm 6,2 km/h (2 Bft) W-NW 301 ° 0 min 0,000 mm 1,0 UV-I 111 W/m² 14,2 °C 15,8 °C 8,0 km/h (2 Bft)
22.07.2018 10:58 15,8 °C 90 % 1012,1 hPa 0,0 mm 7,0 km/h (2 Bft) W-SW 254 ° 0 min 0,000 mm 1,0 UV-I 107 W/m² 14,2 °C 15,8 °C 11,3 km/h (2 Bft)
22.07.2018 10:59 15,8 °C 91 % 1012,1 hPa 0,0 mm 6,4 km/h (2 Bft) W 263 ° 0 min 0,000 mm 1,0 UV-I 105 W/m² 14,3 °C 15,8 °C 11,3 km/h (2 Bft)
22.07.2018 11:00 15,8 °C 91 % 1012,2 hPa 0,0 mm 2,3 km/h (1 Bft) W 271 ° 0 min 0,076 mm 0,9 UV-I 104 W/m² 14,3 °C 15,8 °C 3,2 km/h (1 Bft)
22.07.2018 11:01 15,8 °C 90 % 1012,2 hPa 0,0 mm 6,1 km/h (2 Bft) W 266 ° 0 min 0,000 mm 0,9 UV-I 102 W/m² 14,2 °C 15,8 °C 14,5 km/h (3 Bft)
22.07.2018 11:02 15,8 °C 90 % 1012,2 hPa 0,0 mm 5,8 km/h (2 Bft) S-SW 205 ° 0 min 0,000 mm 0,9 UV-I 102 W/m² 14,2 °C 15,8 °C 11,3 km/h (2 Bft)
22.07.2018 11:03 15,8 °C 90 % 1012,2 hPa 0,0 mm 2,2 km/h (1 Bft) W 276 ° 0 min 0,000 mm 0,9 UV-I 105 W/m² 14,2 °C 15,8 °C 6,4 km/h (2 Bft)
22.07.2018 11:04 15,8 °C 90 % 1012,2 hPa 0,0 mm 8,8 km/h (2 Bft) W 267 ° 0 min 0,000 mm 1,0 UV-I 111 W/m² 14,2 °C 15,8 °C 12,9 km/h (3 Bft)
22.07.2018 11:05 15,8 °C 90 % 1012,2 hPa 0,0 mm 5,6 km/h (1 Bft) W 263 ° 0 min 0,000 mm 1,1 UV-I 116 W/m² 14,2 °C 15,8 °C 6,4 km/h (2 Bft)
22.07.2018 11:06 15,8 °C 90 % 1012,2 hPa 0,0 mm 3,5 km/h (1 Bft) W 268 ° 0 min 0,000 mm 1,1 UV-I 120 W/m² 14,2 °C 15,8 °C 4,8 km/h (1 Bft)
22.07.2018 11:07 15,8 °C 90 % 1012,2 hPa 0,0 mm 2,8 km/h (1 Bft) W-SW 241 ° 0 min 0,000 mm 1,1 UV-I 120 W/m² 14,2 °C 15,8 °C 4,8 km/h (1 Bft)
22.07.2018 11:08 15,9 °C 90 % 1012,2 hPa 0,0 mm 5,6 km/h (1 Bft) W-NW 290 ° 0 min 0,000 mm 1,1 UV-I 123 W/m² 14,3 °C 15,9 °C 8,0 km/h (2 Bft)
22.07.2018 11:09 15,9 °C 91 % 1012,2 hPa 0,0 mm 4,2 km/h (1 Bft) W 278 ° 0 min 0,000 mm 1,1 UV-I 125 W/m² 14,4 °C 15,9 °C 6,4 km/h (2 Bft)
22.07.2018 11:10 15,9 °C 91 % 1012,2 hPa 0,0 mm 3,5 km/h (1 Bft) NW 311 ° 0 min 0,000 mm 1,2 UV-I 128 W/m² 14,4 °C 15,9 °C 4,8 km/h (1 Bft)
22.07.2018 11:11 15,9 °C 91 % 1012,2 hPa 0,0 mm 4,3 km/h (1 Bft) W 277 ° 0 min 0,000 mm 1,2 UV-I 132 W/m² 14,4 °C 15,9 °C 8,0 km/h (2 Bft)
22.07.2018 11:12 16,0 °C 91 % 1012,2 hPa 0,0 mm 8,1 km/h (2 Bft) W 267 ° 0 min 0,000 mm 1,3 UV-I 137 W/m² 14,5 °C 16,0 °C 14,5 km/h (3 Bft)
22.07.2018 11:13 16,0 °C 91 % 1012,2 hPa 0,0 mm 5,1 km/h (1 Bft) W 259 ° 0 min 0,000 mm 1,3 UV-I 139 W/m² 14,5 °C 16,0 °C 12,9 km/h (3 Bft)
22.07.2018 11:14 16,1 °C 91 % 1012,2 hPa 0,0 mm 3,1 km/h (1 Bft) W-SW 254 ° 0 min 0,000 mm 1,3 UV-I 148 W/m² 14,6 °C 16,1 °C 4,8 km/h (1 Bft)
22.07.2018 11:15 16,1 °C 91 % 1012,2 hPa 0,0 mm 2,9 km/h (1 Bft) W-SW 254 ° 0 min 0,000 mm 1,5 UV-I 156 W/m² 14,6 °C 16,1 °C 4,8 km/h (1 Bft)
22.07.2018 11:16 16,1 °C 91 % 1012,2 hPa 0,0 mm 1,7 km/h (1 Bft) W-SW 255 ° 0 min 0,000 mm 1,6 UV-I 167 W/m² 14,6 °C 16,1 °C 4,8 km/h (1 Bft)
22.07.2018 11:17 16,1 °C 91 % 1012,2 hPa 0,0 mm 9,2 km/h (2 Bft) W 264 ° 0 min 0,000 mm 1,6 UV-I 174 W/m² 14,6 °C 16,1 °C 12,9 km/h (3 Bft)
22.07.2018 11:18 16,2 °C 91 % 1012,2 hPa 0,0 mm 8,0 km/h (2 Bft) W 265 ° 0 min 0,000 mm 1,7 UV-I 179 W/m² 14,7 °C 16,2 °C 11,3 km/h (2 Bft)
22.07.2018 11:19 16,2 °C 91 % 1012,2 hPa 0,0 mm 4,4 km/h (1 Bft) W-SW 253 ° 0 min 0,000 mm 1,7 UV-I 181 W/m² 14,7 °C 16,2 °C 9,7 km/h (2 Bft)
22.07.2018 11:20 16,2 °C 91 % 1012,2 hPa 0,0 mm 3,5 km/h (1 Bft) W-SW 244 ° 0 min 0,000 mm 1,7 UV-I 178 W/m² 14,7 °C 16,2 °C 6,4 km/h (2 Bft)
22.07.2018 11:21 16,3 °C 90 % 1012,3 hPa 0,0 mm 1,7 km/h (1 Bft) W-SW 244 ° 0 min 0,000 mm 1,7 UV-I 179 W/m² 14,7 °C 16,3 °C 3,2 km/h (1 Bft)
22.07.2018 11:22 16,3 °C 91 % 1012,3 hPa 0,0 mm 6,8 km/h (2 Bft) W 267 ° 0 min 0,000 mm 1,8 UV-I 188 W/m² 14,8 °C 16,3 °C 9,7 km/h (2 Bft)
22.07.2018 11:23 16,3 °C 90 % 1012,2 hPa 0,0 mm 3,4 km/h (1 Bft) S-SW 211 ° 0 min 0,000 mm 1,9 UV-I 199 W/m² 14,7 °C 16,3 °C 4,8 km/h (1 Bft)
22.07.2018 11:24 16,3 °C 90 % 1012,2 hPa 0,0 mm 4,6 km/h (1 Bft) W 277 ° 0 min 0,000 mm 1,9 UV-I 207 W/m² 14,7 °C 16,3 °C 4,8 km/h (1 Bft)
22.07.2018 11:25 16,3 °C 90 % 1012,3 hPa 0,0 mm 5,4 km/h (1 Bft) W-NW 288 ° 0 min 0,000 mm 1,9 UV-I 207 W/m² 14,7 °C 16,3 °C 9,7 km/h (2 Bft)
22.07.2018 11:26 16,3 °C 90 % 1012,3 hPa 0,0 mm 5,5 km/h (1 Bft) W 273 ° 0 min 0,000 mm 1,9 UV-I 200 W/m² 14,7 °C 16,3 °C 6,4 km/h (2 Bft)
22.07.2018 11:27 16,3 °C 90 % 1012,3 hPa 0,0 mm 7,6 km/h (2 Bft) W-NW 295 ° 0 min 0,000 mm 1,8 UV-I 199 W/m² 14,7 °C 16,3 °C 12,9 km/h (3 Bft)
22.07.2018 11:28 16,3 °C 89 % 1012,3 hPa 0,0 mm 5,4 km/h (1 Bft) W-NW 286 ° 0 min 0,000 mm 1,9 UV-I 199 W/m² 14,5 °C 16,3 °C 11,3 km/h (2 Bft)
22.07.2018 11:29 16,4 °C 90 % 1012,3 hPa 0,0 mm 6,4 km/h (2 Bft) W 271 ° 0 min 0,000 mm 1,9 UV-I 202 W/m² 14,8 °C 16,4 °C 9,7 km/h (2 Bft)
22.07.2018 11:30 16,4 °C 90 % 1012,3 hPa 0,0 mm 4,2 km/h (1 Bft) W 279 ° 0 min 0,000 mm 1,9 UV-I 207 W/m² 14,8 °C 16,4 °C 6,4 km/h (2 Bft)
22.07.2018 11:31 16,4 °C 90 % 1012,3 hPa 0,0 mm 3,8 km/h (1 Bft) W 273 ° 0 min 0,000 mm 2,0 UV-I 209 W/m² 14,8 °C 16,4 °C 6,4 km/h (2 Bft)
22.07.2018 11:32 16,5 °C 90 % 1012,3 hPa 0,0 mm 3,9 km/h (1 Bft) W-NW 287 ° 0 min 0,000 mm 2,0 UV-I 214 W/m² 14,9 °C 16,5 °C 8,0 km/h (2 Bft)
22.07.2018 11:33 16,6 °C 90 % 1012,3 hPa 0,0 mm 4,8 km/h (1 Bft) W-SW 246 ° 0 min 0,000 mm 2,0 UV-I 216 W/m² 15,0 °C 16,6 °C 6,4 km/h (2 Bft)
22.07.2018 11:34 16,6 °C 90 % 1012,3 hPa 0,0 mm 5,0 km/h (1 Bft) W 262 ° 0 min 0,000 mm 2,0 UV-I 218 W/m² 15,0 °C 16,6 °C 6,4 km/h (2 Bft)
22.07.2018 11:35 16,6 °C 90 % 1012,3 hPa 0,0 mm 2,6 km/h (1 Bft) W-NW 285 ° 0 min 0,000 mm 2,0 UV-I 216 W/m² 15,0 °C 16,6 °C 6,4 km/h (2 Bft)
22.07.2018 11:36 16,7 °C 90 % 1012,3 hPa 0,0 mm 5,2 km/h (1 Bft) W 271 ° 0 min 0,000 mm 2,0 UV-I 211 W/m² 15,0 °C 16,7 °C 9,7 km/h (2 Bft)
22.07.2018 11:37 16,6 °C 90 % 1012,3 hPa 0,0 mm 3,9 km/h (1 Bft) W 277 ° 0 min 0,000 mm 1,9 UV-I 202 W/m² 15,0 °C 16,6 °C 8,0 km/h (2 Bft)
22.07.2018 11:38 16,6 °C 89 % 1012,3 hPa 0,0 mm 4,6 km/h (1 Bft) W-NW 297 ° 0 min 0,000 mm 1,9 UV-I 197 W/m² 14,8 °C 16,6 °C 14,5 km/h (3 Bft)
22.07.2018 11:39 16,6 °C 89 % 1012,3 hPa 0,0 mm 5,4 km/h (1 Bft) W-NW 287 ° 0 min 0,000 mm 1,8 UV-I 192 W/m² 14,8 °C 16,6 °C 12,9 km/h (3 Bft)
22.07.2018 11:40 16,6 °C 90 % 1012,3 hPa 0,0 mm 3,5 km/h (1 Bft) W-NW 286 ° 0 min 0,000 mm 1,8 UV-I 190 W/m² 15,0 °C 16,6 °C 6,4 km/h (2 Bft)
22.07.2018 11:41 16,6 °C 90 % 1012,4 hPa 0,0 mm 9,0 km/h (2 Bft) W-SW 251 ° 0 min 0,000 mm 1,8 UV-I 190 W/m² 15,0 °C 16,6 °C 14,5 km/h (3 Bft)
22.07.2018 11:42 16,6 °C 90 % 1012,4 hPa 0,0 mm 6,6 km/h (2 Bft) W 266 ° 0 min 0,000 mm 1,8 UV-I 188 W/m² 15,0 °C 16,6 °C 9,7 km/h (2 Bft)
22.07.2018 11:43 16,7 °C 90 % 1012,3 hPa 0,0 mm 3,0 km/h (1 Bft) W-SW 241 ° 0 min 0,000 mm 1,7 UV-I 185 W/m² 15,0 °C 16,7 °C 6,4 km/h (2 Bft)
22.07.2018 11:44 16,7 °C 90 % 1012,3 hPa 0,0 mm 5,1 km/h (1 Bft) W-SW 257 ° 0 min 0,000 mm 1,7 UV-I 181 W/m² 15,0 °C 16,7 °C 11,3 km/h (2 Bft)
22.07.2018 11:45 16,7 °C 90 % 1012,3 hPa 0,0 mm 4,6 km/h (1 Bft) W-SW 255 ° 0 min 0,000 mm 1,7 UV-I 181 W/m² 15,0 °C 16,7 °C 8,0 km/h (2 Bft)
22.07.2018 11:46 16,6 °C 89 % 1012,4 hPa 0,0 mm 3,5 km/h (1 Bft) W 281 ° 0 min 0,000 mm 1,7 UV-I 181 W/m² 14,8 °C 16,6 °C 4,8 km/h (1 Bft)
22.07.2018 11:47 16,6 °C 89 % 1012,4 hPa 0,0 mm 8,5 km/h (2 Bft) W 260 ° 0 min 0,000 mm 1,7 UV-I 179 W/m² 14,8 °C 16,6 °C 12,9 km/h (3 Bft)
22.07.2018 11:48 16,6 °C 90 % 1012,4 hPa 0,0 mm 4,6 km/h (1 Bft) W 269 ° 0 min 0,000 mm 1,7 UV-I 181 W/m² 15,0 °C 16,6 °C 14,5 km/h (3 Bft)
22.07.2018 11:49 16,6 °C 89 % 1012,4 hPa 0,0 mm 9,7 km/h (2 Bft) W-NW 286 ° 0 min 0,000 mm 1,8 UV-I 195 W/m² 14,8 °C 16,6 °C 17,7 km/h (3 Bft)
22.07.2018 11:50 16,6 °C 89 % 1012,4 hPa 0,0 mm 4,6 km/h (1 Bft) W 259 ° 0 min 0,000 mm 1,8 UV-I 199 W/m² 14,8 °C 16,6 °C 6,4 km/h (2 Bft)
22.07.2018 11:51 16,6 °C 89 % 1012,4 hPa 0,0 mm 4,2 km/h (1 Bft) W-SW 239 ° 0 min 0,000 mm 1,9 UV-I 202 W/m² 14,8 °C 16,6 °C 8,0 km/h (2 Bft)
22.07.2018 11:52 16,6 °C 89 % 1012,4 hPa 0,0 mm 1,6 km/h (1 Bft) W-SW 252 ° 0 min 0,000 mm 1,9 UV-I 206 W/m² 14,8 °C 16,6 °C 3,2 km/h (1 Bft)
22.07.2018 11:53 16,6 °C 89 % 1012,4 hPa 0,0 mm 3,1 km/h (1 Bft) W 271 ° 0 min 0,000 mm 1,9 UV-I 207 W/m² 14,8 °C 16,6 °C 4,8 km/h (1 Bft)
22.07.2018 11:54 16,6 °C 89 % 1012,4 hPa 0,0 mm 5,1 km/h (1 Bft) W-SW 252 ° 0 min 0,000 mm 1,9 UV-I 211 W/m² 14,8 °C 16,6 °C 9,7 km/h (2 Bft)
22.07.2018 11:55 16,7 °C 89 % 1012,4 hPa 0,0 mm 5,6 km/h (1 Bft) W 263 ° 0 min 0,000 mm 1,9 UV-I 216 W/m² 14,9 °C 16,7 °C 11,3 km/h (2 Bft)
22.07.2018 11:56 16,7 °C 89 % 1012,5 hPa 0,0 mm 10,6 km/h (2 Bft) W 264 ° 0 min 0,000 mm 2,0 UV-I 221 W/m² 14,9 °C 16,7 °C 12,9 km/h (3 Bft)
22.07.2018 11:57 16,6 °C 89 % 1012,4 hPa 0,0 mm 6,7 km/h (2 Bft) W 279 ° 0 min 0,000 mm 2,1 UV-I 230 W/m² 14,8 °C 16,6 °C 14,5 km/h (3 Bft)
22.07.2018 11:58 16,7 °C 89 % 1012,4 hPa 0,0 mm 5,6 km/h (1 Bft) W 269 ° 0 min 0,000 mm 2,2 UV-I 239 W/m² 14,9 °C 16,7 °C 11,3 km/h (2 Bft)
22.07.2018 11:59 16,7 °C 89 % 1012,4 hPa 0,0 mm 2,1 km/h (1 Bft) W 263 ° 0 min 0,000 mm 2,3 UV-I 248 W/m² 14,9 °C 16,7 °C 4,8 km/h (1 Bft)
22.07.2018 12:00 16,7 °C 89 % 1012,4 hPa 0,0 mm 6,2 km/h (2 Bft) W 263 ° 0 min 0,000 mm 2,3 UV-I 255 W/m² 14,9 °C 16,7 °C 9,7 km/h (2 Bft)
22.07.2018 12:01 16,8 °C 89 % 1012,4 hPa 0,0 mm 11,0 km/h (2 Bft) NW 306 ° 0 min 0,101 mm 2,3 UV-I 255 W/m² 15,0 °C 16,8 °C 16,1 km/h (3 Bft)
22.07.2018 12:02 16,8 °C 89 % 1012,4 hPa 0,0 mm 11,4 km/h (2 Bft) W 279 ° 0 min 0,000 mm 2,3 UV-I 253 W/m² 15,0 °C 16,8 °C 16,1 km/h (3 Bft)
22.07.2018 12:03 16,8 °C 89 % 1012,4 hPa 0,0 mm 10,0 km/h (2 Bft) W 267 ° 0 min 0,000 mm 2,2 UV-I 246 W/m² 15,0 °C 16,8 °C 14,5 km/h (3 Bft)
22.07.2018 12:04 16,8 °C 88 % 1012,4 hPa 0,0 mm 8,1 km/h (2 Bft) W 263 ° 0 min 0,000 mm 2,2 UV-I 241 W/m² 14,8 °C 16,8 °C 14,5 km/h (3 Bft)
22.07.2018 12:05 16,8 °C 88 % 1012,4 hPa 0,0 mm 9,2 km/h (2 Bft) W-NW 284 ° 0 min 0,000 mm 2,2 UV-I 239 W/m² 14,8 °C 16,8 °C 12,9 km/h (3 Bft)
22.07.2018 12:06 16,7 °C 88 % 1012,4 hPa 0,0 mm 9,1 km/h (2 Bft) W 261 ° 0 min 0,000 mm 2,2 UV-I 237 W/m² 14,7 °C 16,7 °C 17,7 km/h (3 Bft)
22.07.2018 12:07 16,7 °C 88 % 1012,4 hPa 0,0 mm 7,9 km/h (2 Bft) W-SW 255 ° 0 min 0,000 mm 2,2 UV-I 243 W/m² 14,7 °C 16,7 °C 11,3 km/h (2 Bft)
22.07.2018 12:08 16,8 °C 89 % 1012,4 hPa 0,0 mm 6,1 km/h (2 Bft) W 270 ° 0 min 0,000 mm 2,3 UV-I 250 W/m² 15,0 °C 16,8 °C 14,5 km/h (3 Bft)
22.07.2018 12:09 16,8 °C 89 % 1012,4 hPa 0,0 mm 12,9 km/h (3 Bft) SW 232 ° 0 min 0,000 mm 2,4 UV-I 257 W/m² 15,0 °C 16,8 °C 16,1 km/h (3 Bft)
22.07.2018 12:10 16,8 °C 89 % 1012,4 hPa 0,0 mm 11,1 km/h (2 Bft) W-SW 245 ° 0 min 0,000 mm 2,4 UV-I 264 W/m² 15,0 °C 16,8 °C 14,5 km/h (3 Bft)
22.07.2018 12:11 16,9 °C 88 % 1012,4 hPa 0,0 mm 8,9 km/h (2 Bft) W-NW 287 ° 0 min 0,000 mm 2,4 UV-I 264 W/m² 14,9 °C 16,9 °C 14,5 km/h (3 Bft)
22.07.2018 12:12 16,9 °C 88 % 1012,4 hPa 0,0 mm 5,4 km/h (1 Bft) W 275 ° 0 min 0,000 mm 2,4 UV-I 262 W/m² 14,9 °C 16,9 °C 11,3 km/h (2 Bft)
22.07.2018 12:13 16,9 °C 89 % 1012,4 hPa 0,0 mm 8,2 km/h (2 Bft) W-NW 294 ° 0 min 0,000 mm 2,3 UV-I 250 W/m² 15,1 °C 16,9 °C 16,1 km/h (3 Bft)
22.07.2018 12:14 16,9 °C 89 % 1012,4 hPa 0,0 mm 9,0 km/h (2 Bft) W 271 ° 0 min 0,000 mm 2,2 UV-I 241 W/m² 15,1 °C 16,9 °C 14,5 km/h (3 Bft)
22.07.2018 12:15 16,9 °C 88 % 1012,4 hPa 0,0 mm 6,2 km/h (2 Bft) W 275 ° 0 min 0,000 mm 2,1 UV-I 236 W/m² 14,9 °C 16,9 °C 11,3 km/h (2 Bft)
22.07.2018 12:16 17,0 °C 88 % 1012,4 hPa 0,0 mm 6,4 km/h (2 Bft) W-NW 287 ° 0 min 0,000 mm 2,1 UV-I 232 W/m² 15,0 °C 17,0 °C 11,3 km/h (2 Bft)
22.07.2018 12:17 17,0 °C 88 % 1012,4 hPa 0,0 mm 7,2 km/h (2 Bft) W-NW 296 ° 0 min 0,000 mm 2,1 UV-I 230 W/m² 15,0 °C 17,0 °C 11,3 km/h (2 Bft)
22.07.2018 12:18 17,0 °C 88 % 1012,4 hPa 0,0 mm 4,0 km/h (1 Bft) W 263 ° 0 min 0,000 mm 2,1 UV-I 229 W/m² 15,0 °C 17,0 °C 6,4 km/h (2 Bft)
22.07.2018 12:19 17,0 °C 88 % 1012,4 hPa 0,0 mm 3,5 km/h (1 Bft) W 268 ° 0 min 0,000 mm 2,1 UV-I 227 W/m² 15,0 °C 17,0 °C 9,7 km/h (2 Bft)
22.07.2018 12:20 17,1 °C 89 % 1012,4 hPa 0,0 mm 6,8 km/h (2 Bft) NW 309 ° 0 min 0,000 mm 2,0 UV-I 223 W/m² 15,3 °C 17,1 °C 11,3 km/h (2 Bft)
22.07.2018 12:21 17,1 °C 88 % 1012,4 hPa 0,0 mm 9,2 km/h (2 Bft) W-NW 294 ° 0 min 0,000 mm 2,0 UV-I 221 W/m² 15,1 °C 17,1 °C 12,9 km/h (3 Bft)
22.07.2018 12:22 17,1 °C 88 % 1012,4 hPa 0,0 mm 4,2 km/h (1 Bft) W 264 ° 0 min 0,000 mm 2,0 UV-I 221 W/m² 15,1 °C 17,1 °C 6,4 km/h (2 Bft)
22.07.2018 12:23 17,1 °C 89 % 1012,4 hPa 0,0 mm 7,2 km/h (2 Bft) W-NW 286 ° 0 min 0,000 mm 2,0 UV-I 223 W/m² 15,3 °C 17,1 °C 16,1 km/h (3 Bft)
22.07.2018 12:24 17,1 °C 87 % 1012,4 hPa 0,0 mm 8,8 km/h (2 Bft) W-SW 243 ° 0 min 0,000 mm 2,0 UV-I 230 W/m² 14,9 °C 17,1 °C 14,5 km/h (3 Bft)
22.07.2018 12:25 17,1 °C 88 % 1012,4 hPa 0,0 mm 7,4 km/h (2 Bft) W 263 ° 0 min 0,000 mm 2,2 UV-I 237 W/m² 15,1 °C 17,1 °C 17,7 km/h (3 Bft)
22.07.2018 12:26 17,1 °C 88 % 1012,4 hPa 0,0 mm 10,4 km/h (2 Bft) W-SW 252 ° 0 min 0,000 mm 2,2 UV-I 243 W/m² 15,1 °C 17,1 °C 14,5 km/h (3 Bft)
22.07.2018 12:27 17,1 °C 87 % 1012,3 hPa 0,0 mm 5,3 km/h (1 Bft) W 259 ° 0 min 0,000 mm 2,2 UV-I 246 W/m² 14,9 °C 17,1 °C 9,7 km/h (2 Bft)
22.07.2018 12:28 17,1 °C 88 % 1012,3 hPa 0,0 mm 9,9 km/h (2 Bft) W 273 ° 0 min 0,000 mm 2,2 UV-I 246 W/m² 15,1 °C 17,1 °C 16,1 km/h (3 Bft)
22.07.2018 12:29 17,1 °C 87 % 1012,3 hPa 0,0 mm 9,5 km/h (2 Bft) W 261 ° 0 min 0,000 mm 2,2 UV-I 244 W/m² 14,9 °C 17,1 °C 16,1 km/h (3 Bft)
22.07.2018 12:30 17,1 °C 87 % 1012,4 hPa 0,0 mm 8,1 km/h (2 Bft) W 261 ° 0 min 0,000 mm 2,2 UV-I 244 W/m² 14,9 °C 17,1 °C 14,5 km/h (3 Bft)
22.07.2018 12:31 17,1 °C 88 % 1012,4 hPa 0,0 mm 5,0 km/h (1 Bft) NW 304 ° 0 min 0,000 mm 2,2 UV-I 246 W/m² 15,1 °C 17,1 °C 11,3 km/h (2 Bft)
22.07.2018 12:32 17,1 °C 87 % 1012,4 hPa 0,0 mm 9,8 km/h (2 Bft) W 275 ° 0 min 0,000 mm 2,2 UV-I 250 W/m² 14,9 °C 17,1 °C 14,5 km/h (3 Bft)
22.07.2018 12:33 17,1 °C 87 % 1012,4 hPa 0,0 mm 6,3 km/h (2 Bft) W-NW 291 ° 0 min 0,000 mm 2,3 UV-I 257 W/m² 14,9 °C 17,1 °C 11,3 km/h (2 Bft)
22.07.2018 12:34 17,1 °C 87 % 1012,4 hPa 0,0 mm 12,3 km/h (3 Bft) W-SW 257 ° 0 min 0,000 mm 2,3 UV-I 262 W/m² 14,9 °C 17,1 °C 16,1 km/h (3 Bft)
22.07.2018 12:35 17,0 °C 87 % 1012,4 hPa 0,0 mm 8,1 km/h (2 Bft) W-SW 257 ° 0 min 0,000 mm 2,3 UV-I 264 W/m² 14,8 °C 17,0 °C 14,5 km/h (3 Bft)
22.07.2018 12:36 17,0 °C 87 % 1012,4 hPa 0,0 mm 5,1 km/h (1 Bft) W 275 ° 0 min 0,000 mm 2,2 UV-I 246 W/m² 14,8 °C 17,0 °C 11,3 km/h (2 Bft)
22.07.2018 12:37 17,0 °C 87 % 1012,4 hPa 0,0 mm 9,7 km/h (2 Bft) W 281 ° 0 min 0,000 mm 2,0 UV-I 236 W/m² 14,8 °C 17,0 °C 14,5 km/h (3 Bft)
22.07.2018 12:38 17,1 °C 88 % 1012,4 hPa 0,0 mm 8,2 km/h (2 Bft) W 269 ° 0 min 0,000 mm 1,9 UV-I 225 W/m² 15,1 °C 17,1 °C 12,9 km/h (3 Bft)
22.07.2018 12:39 17,1 °C 88 % 1012,4 hPa 0,0 mm 4,8 km/h (1 Bft) W-SW 240 ° 0 min 0,000 mm 1,9 UV-I 220 W/m² 15,1 °C 17,1 °C 9,7 km/h (2 Bft)
22.07.2018 12:40 17,1 °C 88 % 1012,4 hPa 0,0 mm 8,7 km/h (2 Bft) W-NW 290 ° 0 min 0,000 mm 1,8 UV-I 206 W/m² 15,1 °C 17,1 °C 12,9 km/h (3 Bft)
22.07.2018 12:41 17,1 °C 87 % 1012,4 hPa 0,0 mm 10,6 km/h (2 Bft) W 272 ° 0 min 0,000 mm 1,6 UV-I 185 W/m² 14,9 °C 17,1 °C 14,5 km/h (3 Bft)
22.07.2018 12:42 17,0 °C 87 % 1012,5 hPa 0,0 mm 13,0 km/h (3 Bft) W 261 ° 0 min 0,000 mm 1,4 UV-I 153 W/m² 14,8 °C 17,0 °C 16,1 km/h (3 Bft)
22.07.2018 12:43 16,9 °C 87 % 1012,5 hPa 0,0 mm 5,4 km/h (1 Bft) W 265 ° 0 min 0,000 mm 1,3 UV-I 142 W/m² 14,7 °C 16,9 °C 12,9 km/h (3 Bft)
22.07.2018 12:44 16,9 °C 88 % 1012,5 hPa 0,0 mm 6,2 km/h (2 Bft) W-SW 247 ° 0 min 0,000 mm 1,2 UV-I 135 W/m² 14,9 °C 16,9 °C 11,3 km/h (2 Bft)
22.07.2018 12:45 16,9 °C 87 % 1012,5 hPa 0,0 mm 5,5 km/h (1 Bft) SW 224 ° 0 min 0,000 mm 1,2 UV-I 128 W/m² 14,7 °C 16,9 °C 11,3 km/h (2 Bft)
22.07.2018 12:46 16,8 °C 87 % 1012,5 hPa 0,0 mm 7,3 km/h (2 Bft) W 261 ° 0 min 0,000 mm 1,1 UV-I 121 W/m² 14,6 °C 16,8 °C 9,7 km/h (2 Bft)
22.07.2018 12:47 16,8 °C 88 % 1012,5 hPa 0,0 mm 7,2 km/h (2 Bft) NW 315 ° 0 min 0,000 mm 1,1 UV-I 118 W/m² 14,8 °C 16,8 °C 12,9 km/h (3 Bft)
22.07.2018 12:48 16,8 °C 88 % 1012,5 hPa 0,0 mm 7,8 km/h (2 Bft) W-SW 242 ° 0 min 0,000 mm 1,0 UV-I 95 W/m² 14,8 °C 16,8 °C 12,9 km/h (3 Bft)
22.07.2018 12:49 16,8 °C 88 % 1012,5 hPa 0,0 mm 8,0 km/h (2 Bft) W 273 ° 0 min 0,000 mm 0,8 UV-I 90 W/m² 14,8 °C 16,8 °C 14,5 km/h (3 Bft)
22.07.2018 12:50 16,7 °C 88 % 1012,5 hPa 0,0 mm 6,9 km/h (2 Bft) W 275 ° 0 min 0,000 mm 0,9 UV-I 93 W/m² 14,7 °C 16,7 °C 16,1 km/h (3 Bft)
22.07.2018 12:51 16,7 °C 88 % 1012,5 hPa 0,0 mm 13,4 km/h (3 Bft) SW 227 ° 0 min 0,000 mm 0,9 UV-I 97 W/m² 14,7 °C 16,7 °C 20,9 km/h (4 Bft)
22.07.2018 12:52 16,7 °C 88 % 1012,6 hPa 0,0 mm 13,9 km/h (3 Bft) W-NW 285 ° 0 min 0,000 mm 0,9 UV-I 100 W/m² 14,7 °C 16,7 °C 17,7 km/h (3 Bft)
22.07.2018 12:53 16,6 °C 88 % 1012,5 hPa 0,0 mm 9,1 km/h (2 Bft) W-NW 284 ° 0 min 0,000 mm 0,8 UV-I 91 W/m² 14,6 °C 16,6 °C 14,5 km/h (3 Bft)
22.07.2018 12:54 16,6 °C 88 % 1012,5 hPa 0,0 mm 9,3 km/h (2 Bft) W 260 ° 0 min 0,000 mm 0,8 UV-I 88 W/m² 14,6 °C 16,6 °C 14,5 km/h (3 Bft)
22.07.2018 12:55 16,4 °C 88 % 1012,5 hPa 0,0 mm 10,7 km/h (2 Bft) W-SW 250 ° 0 min 0,000 mm 0,8 UV-I 86 W/m² 14,4 °C 16,4 °C 16,1 km/h (3 Bft)
22.07.2018 12:56 16,4 °C 88 % 1012,6 hPa 0,0 mm 7,7 km/h (2 Bft) W 265 ° 0 min 0,000 mm 0,7 UV-I 81 W/m² 14,4 °C 16,4 °C 12,9 km/h (3 Bft)
22.07.2018 12:57 16,4 °C 89 % 1012,6 hPa 0,0 mm 9,6 km/h (2 Bft) W-NW 283 ° 0 min 0,000 mm 0,7 UV-I 81 W/m² 14,6 °C 16,4 °C 12,9 km/h (3 Bft)
22.07.2018 12:58 16,3 °C 89 % 1012,6 hPa 0,0 mm 9,7 km/h (2 Bft) W 265 ° 0 min 0,000 mm 0,9 UV-I 97 W/m² 14,5 °C 16,3 °C 16,1 km/h (3 Bft)
22.07.2018 12:59 16,3 °C 89 % 1012,6 hPa 0,0 mm 4,9 km/h (1 Bft) W-NW 292 ° 0 min 0,000 mm 1,0 UV-I 114 W/m² 14,5 °C 16,3 °C 11,3 km/h (2 Bft)
22.07.2018 13:00 16,3 °C 89 % 1012,6 hPa 0,0 mm 8,2 km/h (2 Bft) W-NW 283 ° 0 min 0,127 mm 1,0 UV-I 105 W/m² 14,5 °C 16,3 °C 11,3 km/h (2 Bft)
22.07.2018 13:01 16,3 °C 89 % 1012,6 hPa 0,0 mm 7,7 km/h (2 Bft) NW 309 ° 0 min 0,000 mm 1,0 UV-I 105 W/m² 14,5 °C 16,3 °C 14,5 km/h (3 Bft)
22.07.2018 13:02 16,4 °C 90 % 1012,6 hPa 0,0 mm 3,8 km/h (1 Bft) W-NW 291 ° 0 min 0,000 mm 1,0 UV-I 111 W/m² 14,8 °C 16,4 °C 6,4 km/h (2 Bft)
22.07.2018 13:03 16,3 °C 90 % 1012,7 hPa 0,0 mm 2,3 km/h (1 Bft) W-NW 282 ° 0 min 0,000 mm 1,1 UV-I 116 W/m² 14,7 °C 16,3 °C 4,8 km/h (1 Bft)
22.07.2018 13:04 16,4 °C 90 % 1012,6 hPa 0,0 mm 8,6 km/h (2 Bft) NW 304 ° 0 min 0,000 mm 1,1 UV-I 118 W/m² 14,8 °C 16,4 °C 16,1 km/h (3 Bft)
22.07.2018 13:05 16,4 °C 90 % 1012,6 hPa 0,0 mm 6,1 km/h (2 Bft) W 265 ° 0 min 0,000 mm 1,2 UV-I 130 W/m² 14,8 °C 16,4 °C 9,7 km/h (2 Bft)
22.07.2018 13:06 16,4 °C 90 % 1012,7 hPa 0,0 mm 5,4 km/h (1 Bft) W-SW 254 ° 0 min 0,000 mm 1,2 UV-I 142 W/m² 14,8 °C 16,4 °C 12,9 km/h (3 Bft)
22.07.2018 13:07 16,4 °C 90 % 1012,7 hPa 0,0 mm 7,1 km/h (2 Bft) NW 319 ° 0 min 0,000 mm 1,4 UV-I 148 W/m² 14,8 °C 16,4 °C 11,3 km/h (2 Bft)
22.07.2018 13:08 16,4 °C 90 % 1012,7 hPa 0,0 mm 8,7 km/h (2 Bft) NW 314 ° 0 min 0,000 mm 1,4 UV-I 149 W/m² 14,8 °C 16,4 °C 14,5 km/h (3 Bft)
22.07.2018 13:09 16,3 °C 89 % 1012,7 hPa 0,0 mm 8,7 km/h (2 Bft) W-NW 284 ° 0 min 0,000 mm 1,3 UV-I 146 W/m² 14,5 °C 16,3 °C 16,1 km/h (3 Bft)
22.07.2018 13:10 16,3 °C 89 % 1012,7 hPa 0,0 mm 8,0 km/h (2 Bft) W-NW 294 ° 0 min 0,000 mm 1,4 UV-I 148 W/m² 14,5 °C 16,3 °C 16,1 km/h (3 Bft)
22.07.2018 13:11 16,3 °C 89 % 1012,8 hPa 0,0 mm 10,1 km/h (2 Bft) W-NW 296 ° 0 min 0,000 mm 1,4 UV-I 141 W/m² 14,5 °C 16,3 °C 16,1 km/h (3 Bft)
22.07.2018 13:12 16,4 °C 90 % 1012,8 hPa 0,0 mm 6,1 km/h (2 Bft) W-SW 253 ° 0 min 0,000 mm 1,2 UV-I 127 W/m² 14,8 °C 16,4 °C 11,3 km/h (2 Bft)
22.07.2018 13:13 16,3 °C 89 % 1012,7 hPa 0,0 mm 5,4 km/h (1 Bft) W-NW 294 ° 0 min 0,000 mm 1,2 UV-I 127 W/m² 14,5 °C 16,3 °C 8,0 km/h (2 Bft)
22.07.2018 13:14 16,3 °C 89 % 1012,7 hPa 0,0 mm 6,6 km/h (2 Bft) N-NW 329 ° 0 min 0,000 mm 1,0 UV-I 111 W/m² 14,5 °C 16,3 °C 9,7 km/h (2 Bft)
22.07.2018 13:15 16,3 °C 89 % 1012,8 hPa 0,0 mm 11,4 km/h (2 Bft) W-NW 285 ° 0 min 0,000 mm 0,8 UV-I 95 W/m² 14,5 °C 16,3 °C 19,3 km/h (3 Bft)
22.07.2018 13:16 16,2 °C 89 % 1012,8 hPa 0,0 mm 12,8 km/h (3 Bft) W 265 ° 0 min 0,000 mm 1,0 UV-I 105 W/m² 14,4 °C 16,2 °C 16,1 km/h (3 Bft)
22.07.2018 13:17 16,2 °C 89 % 1012,8 hPa 0,0 mm 13,5 km/h (3 Bft) W 262 ° 0 min 0,000 mm 1,2 UV-I 120 W/m² 14,4 °C 16,2 °C 22,5 km/h (4 Bft)
22.07.2018 13:18 16,1 °C 88 % 1012,8 hPa 0,0 mm 15,5 km/h (3 Bft) W-NW 288 ° 0 min 0,000 mm 1,1 UV-I 113 W/m² 14,1 °C 16,1 °C 22,5 km/h (4 Bft)
22.07.2018 13:19 16,1 °C 88 % 1012,8 hPa 0,0 mm 5,3 km/h (1 Bft) W 270 ° 0 min 0,000 mm 1,1 UV-I 116 W/m² 14,1 °C 16,1 °C 9,7 km/h (2 Bft)
22.07.2018 13:20 16,0 °C 88 % 1012,8 hPa 0,0 mm 11,2 km/h (2 Bft) W 269 ° 0 min 0,000 mm 1,2 UV-I 121 W/m² 14,0 °C 16,0 °C 14,5 km/h (3 Bft)
22.07.2018 13:21 15,9 °C 87 % 1012,8 hPa 0,0 mm 15,2 km/h (3 Bft) W-NW 290 ° 0 min 0,000 mm 1,2 UV-I 130 W/m² 13,7 °C 15,9 °C 25,7 km/h (4 Bft)
22.07.2018 13:22 15,9 °C 87 % 1012,8 hPa 0,0 mm 15,7 km/h (3 Bft) W 270 ° 0 min 0,000 mm 1,3 UV-I 137 W/m² 13,7 °C 15,9 °C 25,7 km/h (4 Bft)
22.07.2018 13:23 15,8 °C 87 % 1012,8 hPa 0,0 mm 11,7 km/h (2 Bft) W 261 ° 0 min 0,000 mm 1,3 UV-I 146 W/m² 13,6 °C 15,8 °C 16,1 km/h (3 Bft)
22.07.2018 13:24 15,8 °C 88 % 1012,8 hPa 0,0 mm 6,8 km/h (2 Bft) W 278 ° 0 min 0,000 mm 1,4 UV-I 153 W/m² 13,8 °C 15,8 °C 12,9 km/h (3 Bft)
22.07.2018 13:25 15,8 °C 88 % 1012,8 hPa 0,0 mm 2,9 km/h (1 Bft) W-NW 284 ° 0 min 0,000 mm 1,5 UV-I 158 W/m² 13,8 °C 15,8 °C 6,4 km/h (2 Bft)
22.07.2018 13:26 15,8 °C 89 % 1012,8 hPa 0,0 mm 7,6 km/h (2 Bft) W 264 ° 0 min 0,000 mm 1,5 UV-I 160 W/m² 14,0 °C 15,8 °C 11,3 km/h (2 Bft)
22.07.2018 13:27 15,9 °C 88 % 1012,8 hPa 0,0 mm 7,9 km/h (2 Bft) W-NW 294 ° 0 min 0,000 mm 1,4 UV-I 156 W/m² 13,9 °C 15,9 °C 11,3 km/h (2 Bft)
22.07.2018 13:28 15,9 °C 89 % 1012,8 hPa 0,0 mm 6,4 km/h (2 Bft) W-SW 254 ° 0 min 0,000 mm 1,4 UV-I 153 W/m² 14,1 °C 15,9 °C 11,3 km/h (2 Bft)
22.07.2018 13:29 15,9 °C 89 % 1012,7 hPa 0,0 mm 7,8 km/h (2 Bft) W-SW 244 ° 0 min 0,000 mm 1,4 UV-I 146 W/m² 14,1 °C 15,9 °C 12,9 km/h (3 Bft)
22.07.2018 13:30 15,9 °C 89 % 1012,8 hPa 0,0 mm 5,8 km/h (2 Bft) W 261 ° 0 min 0,000 mm 1,3 UV-I 144 W/m² 14,1 °C 15,9 °C 9,7 km/h (2 Bft)
22.07.2018 13:31 15,9 °C 89 % 1012,7 hPa 0,0 mm 5,6 km/h (1 Bft) W-NW 294 ° 0 min 0,000 mm 1,3 UV-I 144 W/m² 14,1 °C 15,9 °C 12,9 km/h (3 Bft)
22.07.2018 13:32 15,9 °C 89 % 1012,8 hPa 0,0 mm 8,1 km/h (2 Bft) W 277 ° 0 min 0,000 mm 1,3 UV-I 144 W/m² 14,1 °C 15,9 °C 11,3 km/h (2 Bft)
22.07.2018 13:33 15,9 °C 89 % 1012,8 hPa 0,0 mm 6,9 km/h (2 Bft) W-SW 258 ° 0 min 0,000 mm 1,4 UV-I 146 W/m² 14,1 °C 15,9 °C 11,3 km/h (2 Bft)
22.07.2018 13:34 15,9 °C 89 % 1012,8 hPa 0,0 mm 6,4 km/h (2 Bft) W 267 ° 0 min 0,000 mm 1,4 UV-I 148 W/m² 14,1 °C 15,9 °C 9,7 km/h (2 Bft)
22.07.2018 13:35 16,0 °C 90 % 1012,8 hPa 0,0 mm 6,4 km/h (2 Bft) W-SW 257 ° 0 min 0,000 mm 1,4 UV-I 146 W/m² 14,4 °C 16,0 °C 12,9 km/h (3 Bft)
22.07.2018 13:36 16,0 °C 90 % 1012,8 hPa 0,0 mm 9,1 km/h (2 Bft) W 261 ° 0 min 0,000 mm 1,3 UV-I 146 W/m² 14,4 °C 16,0 °C 12,9 km/h (3 Bft)
22.07.2018 13:37 16,0 °C 89 % 1012,8 hPa 0,0 mm 5,0 km/h (1 Bft) W-SW 248 ° 0 min 0,000 mm 1,4 UV-I 148 W/m² 14,2 °C 16,0 °C 8,0 km/h (2 Bft)
22.07.2018 13:38 16,0 °C 89 % 1012,8 hPa 0,0 mm 1,9 km/h (1 Bft) W-SW 248 ° 0 min 0,000 mm 1,4 UV-I 149 W/m² 14,2 °C 16,0 °C 3,2 km/h (1 Bft)
22.07.2018 13:39 16,0 °C 89 % 1012,8 hPa 0,0 mm 3,8 km/h (1 Bft) W-SW 247 ° 0 min 0,000 mm 1,4 UV-I 151 W/m² 14,2 °C 16,0 °C 8,0 km/h (2 Bft)
22.07.2018 13:40 16,1 °C 89 % 1012,8 hPa 0,0 mm 5,1 km/h (1 Bft) W 267 ° 0 min 0,000 mm 1,4 UV-I 153 W/m² 14,3 °C 16,1 °C 8,0 km/h (2 Bft)
22.07.2018 13:41 16,1 °C 90 % 1012,8 hPa 0,0 mm 3,5 km/h (1 Bft) SW 225 ° 0 min 0,000 mm 1,4 UV-I 149 W/m² 14,5 °C 16,1 °C 6,4 km/h (2 Bft)
22.07.2018 13:42 16,1 °C 89 % 1012,8 hPa 0,0 mm 6,6 km/h (2 Bft) W 270 ° 0 min 0,000 mm 1,3 UV-I 142 W/m² 14,3 °C 16,1 °C 9,7 km/h (2 Bft)
22.07.2018 13:43 16,1 °C 89 % 1012,9 hPa 0,0 mm 1,9 km/h (1 Bft) W 270 ° 0 min 0,000 mm 1,3 UV-I 137 W/m² 14,3 °C 16,1 °C 6,4 km/h (2 Bft)
22.07.2018 13:44 16,1 °C 89 % 1012,8 hPa 0,0 mm 3,3 km/h (1 Bft) W-SW 253 ° 0 min 0,000 mm 1,3 UV-I 134 W/m² 14,3 °C 16,1 °C 4,8 km/h (1 Bft)
22.07.2018 13:45 16,2 °C 90 % 1012,8 hPa 0,0 mm 5,6 km/h (1 Bft) SW 219 ° 0 min 0,000 mm 1,3 UV-I 134 W/m² 14,6 °C 16,2 °C 8,0 km/h (2 Bft)
22.07.2018 13:46 16,2 °C 90 % 1012,8 hPa 0,0 mm 4,3 km/h (1 Bft) W 263 ° 0 min 0,000 mm 1,2 UV-I 132 W/m² 14,6 °C 16,2 °C 6,4 km/h (2 Bft)
22.07.2018 13:47 16,2 °C 90 % 1012,8 hPa 0,0 mm 2,8 km/h (1 Bft) W-SW 255 ° 0 min 0,000 mm 1,3 UV-I 132 W/m² 14,6 °C 16,2 °C 4,8 km/h (1 Bft)
22.07.2018 13:48 16,2 °C 90 % 1012,8 hPa 0,0 mm 0,8 km/h (0 Bft) W-SW 255 ° 0 min 0,000 mm 1,2 UV-I 130 W/m² 14,6 °C 16,2 °C 1,6 km/h (1 Bft)
22.07.2018 13:49 16,1 °C 89 % 1012,8 hPa 0,0 mm 1,5 km/h (1 Bft) W-SW 238 ° 0 min 0,000 mm 1,2 UV-I 128 W/m² 14,3 °C 16,1 °C 6,4 km/h (2 Bft)
22.07.2018 13:50 16,2 °C 90 % 1012,8 hPa 0,0 mm 6,3 km/h (2 Bft) W 265 ° 0 min 0,000 mm 1,2 UV-I 125 W/m² 14,6 °C 16,2 °C 8,0 km/h (2 Bft)
22.07.2018 13:51 16,2 °C 90 % 1012,8 hPa 0,0 mm 6,8 km/h (2 Bft) W-SW 254 ° 0 min 0,000 mm 1,1 UV-I 121 W/m² 14,6 °C 16,2 °C 11,3 km/h (2 Bft)
22.07.2018 13:52 16,2 °C 90 % 1012,8 hPa 0,0 mm 6,9 km/h (2 Bft) W-NW 296 ° 0 min 0,000 mm 1,1 UV-I 113 W/m² 14,6 °C 16,2 °C 12,9 km/h (3 Bft)
22.07.2018 13:53 16,2 °C 90 % 1012,9 hPa 0,0 mm 5,6 km/h (1 Bft) W-SW 247 ° 0 min 0,000 mm 1,0 UV-I 107 W/m² 14,6 °C 16,2 °C 11,3 km/h (2 Bft)
22.07.2018 13:54 16,1 °C 90 % 1012,8 hPa 0,0 mm 9,1 km/h (2 Bft) W 272 ° 0 min 0,000 mm 1,0 UV-I 107 W/m² 14,5 °C 16,1 °C 11,3 km/h (2 Bft)
22.07.2018 13:55 16,1 °C 90 % 1012,9 hPa 0,0 mm 4,1 km/h (1 Bft) W-SW 249 ° 0 min 0,000 mm 1,1 UV-I 116 W/m² 14,5 °C 16,1 °C 6,4 km/h (2 Bft)
22.07.2018 13:56 16,1 °C 90 % 1012,8 hPa 0,0 mm 5,2 km/h (1 Bft) W-SW 250 ° 0 min 0,000 mm 1,1 UV-I 118 W/m² 14,5 °C 16,1 °C 11,3 km/h (2 Bft)
22.07.2018 13:57 16,1 °C 90 % 1012,8 hPa 0,0 mm 6,4 km/h (2 Bft) NW 306 ° 0 min 0,000 mm 1,0 UV-I 114 W/m² 14,5 °C 16,1 °C 11,3 km/h (2 Bft)
22.07.2018 13:58 16,1 °C 90 % 1012,8 hPa 0,0 mm 7,9 km/h (2 Bft) W-SW 254 ° 0 min 0,000 mm 0,9 UV-I 100 W/m² 14,5 °C 16,1 °C 11,3 km/h (2 Bft)
22.07.2018 13:59 16,1 °C 90 % 1012,8 hPa 0,0 mm 5,2 km/h (1 Bft) W-NW 290 ° 0 min 0,000 mm 1,0 UV-I 100 W/m² 14,5 °C 16,1 °C 8,0 km/h (2 Bft)
22.07.2018 14:00 16,0 °C 90 % 1012,8 hPa 0,0 mm 5,1 km/h (1 Bft) W-NW 300 ° 0 min 0,000 mm 1,0 UV-I 107 W/m² 14,4 °C 16,0 °C 11,3 km/h (2 Bft)
22.07.2018 14:01 16,0 °C 90 % 1012,9 hPa 0,0 mm 7,0 km/h (2 Bft) NW 304 ° 0 min 0,077 mm 1,1 UV-I 114 W/m² 14,4 °C 16,0 °C 14,5 km/h (3 Bft)
22.07.2018 14:02 15,9 °C 90 % 1012,8 hPa 0,0 mm 6,3 km/h (2 Bft) NW 313 ° 0 min 0,000 mm 1,0 UV-I 109 W/m² 14,3 °C 15,9 °C 8,0 km/h (2 Bft)
22.07.2018 14:03 15,9 °C 91 % 1012,8 hPa 0,0 mm 7,7 km/h (2 Bft) W 268 ° 0 min 0,000 mm 1,0 UV-I 102 W/m² 14,4 °C 15,9 °C 11,3 km/h (2 Bft)
22.07.2018 14:04 15,9 °C 90 % 1012,9 hPa 0,0 mm 6,7 km/h (2 Bft) W-NW 291 ° 0 min 0,000 mm 0,9 UV-I 102 W/m² 14,3 °C 15,9 °C 9,7 km/h (2 Bft)
22.07.2018 14:05 15,9 °C 90 % 1012,9 hPa 0,0 mm 4,6 km/h (1 Bft) W-NW 298 ° 0 min 0,000 mm 1,2 UV-I 118 W/m² 14,3 °C 15,9 °C 8,0 km/h (2 Bft)
22.07.2018 14:06 15,9 °C 91 % 1012,9 hPa 0,0 mm 6,8 km/h (2 Bft) W-NW 293 ° 0 min 0,000 mm 1,3 UV-I 134 W/m² 14,4 °C 15,9 °C 12,9 km/h (3 Bft)
22.07.2018 14:07 15,9 °C 91 % 1012,8 hPa 0,0 mm 5,4 km/h (1 Bft) W 259 ° 0 min 0,000 mm 1,4 UV-I 142 W/m² 14,4 °C 15,9 °C 6,4 km/h (2 Bft)
22.07.2018 14:08 15,9 °C 91 % 1012,9 hPa 0,0 mm 10,3 km/h (2 Bft) W 277 ° 0 min 0,000 mm 1,4 UV-I 146 W/m² 14,4 °C 15,9 °C 19,3 km/h (3 Bft)
22.07.2018 14:09 15,8 °C 90 % 1012,8 hPa 0,0 mm 12,2 km/h (2 Bft) W-SW 239 ° 0 min 0,000 mm 1,4 UV-I 146 W/m² 14,2 °C 15,8 °C 19,3 km/h (3 Bft)
22.07.2018 14:10 15,8 °C 90 % 1012,8 hPa 0,0 mm 4,2 km/h (1 Bft) W 264 ° 0 min 0,000 mm 1,4 UV-I 135 W/m² 14,2 °C 15,8 °C 8,0 km/h (2 Bft)
22.07.2018 14:11 15,8 °C 90 % 1012,8 hPa 0,0 mm 1,7 km/h (1 Bft) W 281 ° 0 min 0,000 mm 1,3 UV-I 130 W/m² 14,2 °C 15,8 °C 3,2 km/h (1 Bft)
22.07.2018 14:12 15,8 °C 90 % 1012,8 hPa 0,0 mm 6,4 km/h (2 Bft) W 270 ° 0 min 0,000 mm 1,2 UV-I 125 W/m² 14,2 °C 15,8 °C 11,3 km/h (2 Bft)
22.07.2018 14:13 15,8 °C 90 % 1012,9 hPa 0,0 mm 14,0 km/h (3 Bft) W-SW 255 ° 0 min 0,000 mm 1,2 UV-I 118 W/m² 14,2 °C 15,8 °C 22,5 km/h (4 Bft)
22.07.2018 14:14 15,8 °C 89 % 1012,9 hPa 0,0 mm 10,0 km/h (2 Bft) W 273 ° 0 min 0,000 mm 1,1 UV-I 114 W/m² 14,0 °C 15,8 °C 16,1 km/h (3 Bft)
22.07.2018 14:15 15,7 °C 90 % 1012,9 hPa 0,0 mm 9,1 km/h (2 Bft) W-SW 254 ° 0 min 0,000 mm 1,1 UV-I 109 W/m² 14,1 °C 15,7 °C 14,5 km/h (3 Bft)
22.07.2018 14:16 15,7 °C 89 % 1012,8 hPa 0,0 mm 8,1 km/h (2 Bft) W-NW 287 ° 0 min 0,000 mm 1,0 UV-I 104 W/m² 13,9 °C 15,7 °C 17,7 km/h (3 Bft)
22.07.2018 14:17 15,7 °C 90 % 1012,9 hPa 0,0 mm 13,2 km/h (3 Bft) W 271 ° 0 min 0,000 mm 1,0 UV-I 102 W/m² 14,1 °C 15,7 °C 16,1 km/h (3 Bft)
22.07.2018 14:18 15,7 °C 90 % 1012,8 hPa 0,0 mm 11,7 km/h (2 Bft) W 270 ° 0 min 0,000 mm 1,0 UV-I 102 W/m² 14,1 °C 15,7 °C 17,7 km/h (3 Bft)
22.07.2018 14:19 15,7 °C 89 % 1012,9 hPa 0,0 mm 10,5 km/h (2 Bft) W-NW 291 ° 0 min 0,000 mm 1,0 UV-I 105 W/m² 13,9 °C 15,7 °C 16,1 km/h (3 Bft)
22.07.2018 14:20 15,7 °C 89 % 1012,8 hPa 0,0 mm 5,1 km/h (1 Bft) W 280 ° 0 min 0,000 mm 1,1 UV-I 109 W/m² 13,9 °C 15,7 °C 8,0 km/h (2 Bft)
22.07.2018 14:21 15,7 °C 89 % 1012,9 hPa 0,0 mm 6,4 km/h (2 Bft) S-SW 207 ° 0 min 0,000 mm 1,1 UV-I 116 W/m² 13,9 °C 15,7 °C 11,3 km/h (2 Bft)
22.07.2018 14:22 15,6 °C 89 % 1012,8 hPa 0,0 mm 5,5 km/h (1 Bft) W 279 ° 0 min 0,000 mm 1,1 UV-I 118 W/m² 13,8 °C 15,6 °C 11,3 km/h (2 Bft)
22.07.2018 14:23 15,6 °C 89 % 1012,9 hPa 0,0 mm 3,4 km/h (1 Bft) W 270 ° 0 min 0,000 mm 1,2 UV-I 118 W/m² 13,8 °C 15,6 °C 4,8 km/h (1 Bft)
22.07.2018 14:24 15,6 °C 89 % 1012,8 hPa 0,0 mm 6,0 km/h (2 Bft) W-SW 246 ° 0 min 0,000 mm 1,2 UV-I 118 W/m² 13,8 °C 15,6 °C 12,9 km/h (3 Bft)
22.07.2018 14:25 15,6 °C 90 % 1012,9 hPa 0,0 mm 8,2 km/h (2 Bft) W 273 ° 0 min 0,000 mm 1,2 UV-I 120 W/m² 14,0 °C 15,6 °C 14,5 km/h (3 Bft)
22.07.2018 14:26 15,6 °C 89 % 1012,8 hPa 0,0 mm 6,1 km/h (2 Bft) W 270 ° 0 min 0,000 mm 1,2 UV-I 121 W/m² 13,8 °C 15,6 °C 12,9 km/h (3 Bft)
22.07.2018 14:27 15,6 °C 89 % 1012,8 hPa 0,0 mm 2,1 km/h (1 Bft) SW 214 ° 0 min 0,000 mm 1,2 UV-I 130 W/m² 13,8 °C 15,6 °C 6,4 km/h (2 Bft)
22.07.2018 14:28 15,6 °C 89 % 1012,8 hPa 0,0 mm 7,6 km/h (2 Bft) W 273 ° 0 min 0,000 mm 1,3 UV-I 135 W/m² 13,8 °C 15,6 °C 12,9 km/h (3 Bft)
22.07.2018 14:29 15,6 °C 89 % 1012,8 hPa 0,0 mm 9,2 km/h (2 Bft) W 259 ° 0 min 0,000 mm 1,4 UV-I 142 W/m² 13,8 °C 15,6 °C 14,5 km/h (3 Bft)
22.07.2018 14:30 15,7 °C 89 % 1012,8 hPa 0,0 mm 8,1 km/h (2 Bft) W 265 ° 0 min 0,000 mm 1,5 UV-I 149 W/m² 13,9 °C 15,7 °C 12,9 km/h (3 Bft)
22.07.2018 14:31 15,7 °C 90 % 1012,8 hPa 0,0 mm 5,6 km/h (1 Bft) W-SW 257 ° 0 min 0,000 mm 1,6 UV-I 156 W/m² 14,1 °C 15,7 °C 14,5 km/h (3 Bft)
22.07.2018 14:32 15,7 °C 90 % 1012,8 hPa 0,0 mm 8,0 km/h (2 Bft) SW 221 ° 0 min 0,000 mm 1,6 UV-I 160 W/m² 14,1 °C 15,7 °C 14,5 km/h (3 Bft)
22.07.2018 14:33 15,8 °C 90 % 1012,8 hPa 0,0 mm 5,6 km/h (1 Bft) W 260 ° 0 min 0,000 mm 1,6 UV-I 165 W/m² 14,2 °C 15,8 °C 12,9 km/h (3 Bft)
22.07.2018 14:34 15,8 °C 90 % 1012,8 hPa 0,0 mm 7,2 km/h (2 Bft) W 266 ° 0 min 0,000 mm 1,7 UV-I 167 W/m² 14,2 °C 15,8 °C 12,9 km/h (3 Bft)
22.07.2018 14:35 15,9 °C 90 % 1012,8 hPa 0,0 mm 7,8 km/h (2 Bft) W-SW 242 ° 0 min 0,000 mm 1,7 UV-I 174 W/m² 14,3 °C 15,9 °C 14,5 km/h (3 Bft)
22.07.2018 14:36 15,9 °C 90 % 1012,8 hPa 0,0 mm 4,7 km/h (1 Bft) W 271 ° 0 min 0,000 mm 1,8 UV-I 178 W/m² 14,3 °C 15,9 °C 9,7 km/h (2 Bft)
22.07.2018 14:37 15,9 °C 90 % 1012,7 hPa 0,0 mm 1,2 km/h (1 Bft) W 271 ° 0 min 0,000 mm 1,8 UV-I 181 W/m² 14,3 °C 15,9 °C 3,2 km/h (1 Bft)
22.07.2018 14:38 15,9 °C 90 % 1012,7 hPa 0,0 mm 4,1 km/h (1 Bft) W-SW 257 ° 0 min 0,000 mm 1,8 UV-I 185 W/m² 14,3 °C 15,9 °C 6,4 km/h (2 Bft)
22.07.2018 14:39 16,0 °C 90 % 1012,7 hPa 0,0 mm 3,2 km/h (1 Bft) W 280 ° 0 min 0,000 mm 1,9 UV-I 190 W/m² 14,4 °C 16,0 °C 6,4 km/h (2 Bft)
22.07.2018 14:40 16,1 °C 90 % 1012,7 hPa 0,0 mm 3,5 km/h (1 Bft) W-SW 247 ° 0 min 0,000 mm 1,9 UV-I 190 W/m² 14,5 °C 16,1 °C 4,8 km/h (1 Bft)
22.07.2018 14:41 16,1 °C 89 % 1012,7 hPa 0,0 mm 4,3 km/h (1 Bft) W-NW 286 ° 0 min 0,000 mm 1,8 UV-I 188 W/m² 14,3 °C 16,1 °C 6,4 km/h (2 Bft)
22.07.2018 14:42 16,1 °C 90 % 1012,7 hPa 0,0 mm 4,4 km/h (1 Bft) SW 214 ° 0 min 0,000 mm 1,8 UV-I 188 W/m² 14,5 °C 16,1 °C 8,0 km/h (2 Bft)
22.07.2018 14:43 16,1 °C 89 % 1012,7 hPa 0,0 mm 5,2 km/h (1 Bft) W 277 ° 0 min 0,000 mm 1,8 UV-I 188 W/m² 14,3 °C 16,1 °C 8,0 km/h (2 Bft)
22.07.2018 14:44 16,2 °C 90 % 1012,7 hPa 0,0 mm 3,7 km/h (1 Bft) W-SW 246 ° 0 min 0,000 mm 1,8 UV-I 188 W/m² 14,6 °C 16,2 °C 8,0 km/h (2 Bft)
22.07.2018 14:45 16,2 °C 89 % 1012,7 hPa 0,0 mm 2,4 km/h (1 Bft) W 278 ° 0 min 0,000 mm 1,8 UV-I 190 W/m² 14,4 °C 16,2 °C 4,8 km/h (1 Bft)
22.07.2018 14:46 16,3 °C 90 % 1012,7 hPa 0,0 mm 5,1 km/h (1 Bft) W-NW 283 ° 0 min 0,000 mm 1,8 UV-I 192 W/m² 14,7 °C 16,3 °C 8,0 km/h (2 Bft)
22.07.2018 14:47 16,3 °C 90 % 1012,7 hPa 0,0 mm 3,0 km/h (1 Bft) W-NW 300 ° 0 min 0,000 mm 1,8 UV-I 193 W/m² 14,7 °C 16,3 °C 6,4 km/h (2 Bft)
22.07.2018 14:48 16,3 °C 89 % 1012,7 hPa 0,0 mm 3,8 km/h (1 Bft) W 263 ° 0 min 0,000 mm 1,8 UV-I 195 W/m² 14,5 °C 16,3 °C 12,9 km/h (3 Bft)
22.07.2018 14:49 16,3 °C 89 % 1012,6 hPa 0,0 mm 5,3 km/h (1 Bft) W-SW 256 ° 0 min 0,000 mm 1,7 UV-I 193 W/m² 14,5 °C 16,3 °C 11,3 km/h (2 Bft)
22.07.2018 14:50 16,4 °C 90 % 1012,7 hPa 0,0 mm 9,5 km/h (2 Bft) W 271 ° 0 min 0,000 mm 1,7 UV-I 192 W/m² 14,8 °C 16,4 °C 16,1 km/h (3 Bft)
22.07.2018 14:51 16,3 °C 89 % 1012,7 hPa 0,0 mm 4,2 km/h (1 Bft) W-SW 248 ° 0 min 0,000 mm 1,7 UV-I 192 W/m² 14,5 °C 16,3 °C 6,4 km/h (2 Bft)
22.07.2018 14:52 16,3 °C 89 % 1012,7 hPa 0,0 mm 9,3 km/h (2 Bft) W 261 ° 0 min 0,000 mm 1,7 UV-I 186 W/m² 14,5 °C 16,3 °C 12,9 km/h (3 Bft)
22.07.2018 14:53 16,3 °C 90 % 1012,7 hPa 0,0 mm 11,4 km/h (2 Bft) SW 215 ° 0 min 0,000 mm 1,7 UV-I 193 W/m² 14,7 °C 16,3 °C 20,9 km/h (4 Bft)
22.07.2018 14:54 16,3 °C 89 % 1012,7 hPa 0,0 mm 8,4 km/h (2 Bft) W 267 ° 0 min 0,000 mm 1,7 UV-I 197 W/m² 14,5 °C 16,3 °C 16,1 km/h (3 Bft)
22.07.2018 14:55 16,3 °C 88 % 1012,7 hPa 0,0 mm 11,3 km/h (2 Bft) S 186 ° 0 min 0,000 mm 1,7 UV-I 197 W/m² 14,3 °C 16,3 °C 16,1 km/h (3 Bft)
22.07.2018 14:56 16,3 °C 89 % 1012,7 hPa 0,0 mm 8,7 km/h (2 Bft) W 267 ° 0 min 0,000 mm 1,7 UV-I 197 W/m² 14,5 °C 16,3 °C 17,7 km/h (3 Bft)
22.07.2018 14:57 16,3 °C 89 % 1012,7 hPa 0,0 mm 12,8 km/h (3 Bft) W-SW 246 ° 0 min 0,000 mm 1,7 UV-I 202 W/m² 14,5 °C 16,3 °C 17,7 km/h (3 Bft)
22.07.2018 14:58 16,3 °C 89 % 1012,7 hPa 0,0 mm 7,6 km/h (2 Bft) W 272 ° 0 min 0,000 mm 1,8 UV-I 207 W/m² 14,5 °C 16,3 °C 16,1 km/h (3 Bft)
22.07.2018 14:59 16,3 °C 89 % 1012,7 hPa 0,0 mm 10,0 km/h (2 Bft) SW 234 ° 0 min 0,000 mm 1,8 UV-I 216 W/m² 14,5 °C 16,3 °C 17,7 km/h (3 Bft)
22.07.2018 15:00 16,3 °C 87 % 1012,8 hPa 0,0 mm 6,2 km/h (2 Bft) W-SW 250 ° 0 min 0,000 mm 1,9 UV-I 225 W/m² 14,1 °C 16,3 °C 16,1 km/h (3 Bft)
22.07.2018 15:01 16,3 °C 88 % 1012,8 hPa 0,0 mm 10,6 km/h (2 Bft) W 265 ° 0 min 0,101 mm 2,0 UV-I 234 W/m² 14,3 °C 16,3 °C 12,9 km/h (3 Bft)
22.07.2018 15:02 16,2 °C 88 % 1012,8 hPa 0,0 mm 9,8 km/h (2 Bft) W-SW 248 ° 0 min 0,000 mm 2,1 UV-I 253 W/m² 14,2 °C 16,2 °C 14,5 km/h (3 Bft)
22.07.2018 15:03 16,3 °C 89 % 1012,8 hPa 0,0 mm 6,4 km/h (2 Bft) W-NW 296 ° 0 min 0,000 mm 2,1 UV-I 264 W/m² 14,5 °C 16,3 °C 6,4 km/h (2 Bft)
22.07.2018 15:04 16,3 °C 88 % 1012,8 hPa 0,0 mm 6,6 km/h (2 Bft) W-SW 255 ° 0 min 0,000 mm 2,3 UV-I 274 W/m² 14,3 °C 16,3 °C 11,3 km/h (2 Bft)
22.07.2018 15:05 16,4 °C 89 % 1012,8 hPa 0,0 mm 6,8 km/h (2 Bft) W-SW 257 ° 0 min 0,000 mm 2,3 UV-I 283 W/m² 14,6 °C 16,4 °C 12,9 km/h (3 Bft)
22.07.2018 15:06 16,4 °C 88 % 1012,8 hPa 0,0 mm 9,9 km/h (2 Bft) W-SW 250 ° 0 min 0,000 mm 2,4 UV-I 292 W/m² 14,4 °C 16,4 °C 16,1 km/h (3 Bft)
22.07.2018 15:07 16,5 °C 89 % 1012,8 hPa 0,0 mm 5,9 km/h (2 Bft) W 277 ° 0 min 0,000 mm 2,4 UV-I 297 W/m² 14,7 °C 16,5 °C 9,7 km/h (2 Bft)
22.07.2018 15:08 16,6 °C 89 % 1012,7 hPa 0,0 mm 9,3 km/h (2 Bft) W-NW 288 ° 0 min 0,000 mm 2,5 UV-I 304 W/m² 14,8 °C 16,6 °C 12,9 km/h (3 Bft)
22.07.2018 15:09 16,6 °C 89 % 1012,7 hPa 0,0 mm 6,6 km/h (2 Bft) W-SW 252 ° 0 min 0,000 mm 2,5 UV-I 308 W/m² 14,8 °C 16,6 °C 11,3 km/h (2 Bft)
22.07.2018 15:10 16,6 °C 88 % 1012,7 hPa 0,0 mm 0,7 km/h (0 Bft) SW 236 ° 0 min 0,000 mm 2,6 UV-I 311 W/m² 14,6 °C 16,6 °C 1,6 km/h (1 Bft)
22.07.2018 15:11 16,7 °C 89 % 1012,7 hPa 0,0 mm 4,2 km/h (1 Bft) W 279 ° 0 min 0,000 mm 2,6 UV-I 315 W/m² 14,9 °C 16,7 °C 9,7 km/h (2 Bft)
22.07.2018 15:12 16,7 °C 88 % 1012,7 hPa 0,0 mm 7,8 km/h (2 Bft) NW 309 ° 0 min 0,000 mm 2,7 UV-I 322 W/m² 14,7 °C 16,7 °C 11,3 km/h (2 Bft)
22.07.2018 15:13 16,7 °C 88 % 1012,7 hPa 0,0 mm 14,5 km/h (3 Bft) W 274 ° 0 min 0,000 mm 2,7 UV-I 327 W/m² 14,7 °C 16,7 °C 19,3 km/h (3 Bft)
22.07.2018 15:14 16,7 °C 88 % 1012,7 hPa 0,0 mm 10,3 km/h (2 Bft) NW 309 ° 0 min 0,000 mm 2,8 UV-I 336 W/m² 14,7 °C 16,7 °C 17,7 km/h (3 Bft)
22.07.2018 15:15 16,7 °C 87 % 1012,6 hPa 0,0 mm 10,7 km/h (2 Bft) W-NW 297 ° 0 min 0,000 mm 2,8 UV-I 339 W/m² 14,5 °C 16,7 °C 16,1 km/h (3 Bft)
22.07.2018 15:16 16,7 °C 88 % 1012,7 hPa 0,0 mm 9,3 km/h (2 Bft) W-SW 246 ° 0 min 0,000 mm 2,9 UV-I 343 W/m² 14,7 °C 16,7 °C 12,9 km/h (3 Bft)
22.07.2018 15:17 16,8 °C 88 % 1012,6 hPa 0,0 mm 6,8 km/h (2 Bft) W-NW 283 ° 0 min 0,000 mm 2,9 UV-I 346 W/m² 14,8 °C 16,8 °C 11,3 km/h (2 Bft)
22.07.2018 15:18 16,8 °C 88 % 1012,6 hPa 0,0 mm 6,6 km/h (2 Bft) W 261 ° 0 min 0,000 mm 2,9 UV-I 350 W/m² 14,8 °C 16,8 °C 9,7 km/h (2 Bft)
22.07.2018 15:19 16,8 °C 87 % 1012,6 hPa 0,0 mm 5,0 km/h (1 Bft) NW 304 ° 0 min 0,000 mm 3,0 UV-I 353 W/m² 14,6 °C 16,8 °C 6,4 km/h (2 Bft)
22.07.2018 15:20 16,8 °C 88 % 1012,6 hPa 0,0 mm 8,6 km/h (2 Bft) W-SW 252 ° 0 min 0,000 mm 3,0 UV-I 360 W/m² 14,8 °C 16,8 °C 14,5 km/h (3 Bft)
22.07.2018 15:21 16,8 °C 88 % 1012,6 hPa 0,0 mm 9,1 km/h (2 Bft) W 273 ° 0 min 0,000 mm 3,1 UV-I 362 W/m² 14,8 °C 16,8 °C 12,9 km/h (3 Bft)
22.07.2018 15:22 16,9 °C 87 % 1012,6 hPa 0,0 mm 7,2 km/h (2 Bft) W-SW 254 ° 0 min 0,000 mm 3,1 UV-I 362 W/m² 14,7 °C 16,9 °C 12,9 km/h (3 Bft)
22.07.2018 15:23 16,9 °C 88 % 1012,6 hPa 0,0 mm 5,6 km/h (1 Bft) W-SW 240 ° 0 min 0,000 mm 3,1 UV-I 360 W/m² 14,9 °C 16,9 °C 9,7 km/h (2 Bft)
22.07.2018 15:24 17,1 °C 88 % 1012,7 hPa 0,0 mm 7,6 km/h (2 Bft) SW 232 ° 0 min 0,000 mm 3,1 UV-I 360 W/m² 15,1 °C 17,1 °C 12,9 km/h (3 Bft)
22.07.2018 15:25 17,1 °C 87 % 1012,6 hPa 0,0 mm 10,1 km/h (2 Bft) W-NW 302 ° 0 min 0,000 mm 3,1 UV-I 360 W/m² 14,9 °C 17,1 °C 12,9 km/h (3 Bft)
22.07.2018 15:26 17,1 °C 87 % 1012,6 hPa 0,0 mm 6,6 km/h (2 Bft) W 267 ° 0 min 0,000 mm 3,1 UV-I 366 W/m² 14,9 °C 17,1 °C 14,5 km/h (3 Bft)
22.07.2018 15:27 17,2 °C 87 % 1012,6 hPa 0,0 mm 6,2 km/h (2 Bft) W-SW 250 ° 0 min 0,000 mm 3,1 UV-I 367 W/m² 15,0 °C 17,2 °C 12,9 km/h (3 Bft)
22.07.2018 15:28 17,2 °C 87 % 1012,6 hPa 0,0 mm 5,7 km/h (1 Bft) W-NW 298 ° 0 min 0,000 mm 3,1 UV-I 369 W/m² 15,0 °C 17,2 °C 11,3 km/h (2 Bft)
22.07.2018 15:29 17,2 °C 87 % 1012,6 hPa 0,0 mm 6,0 km/h (2 Bft) NW 310 ° 0 min 0,000 mm 3,1 UV-I 369 W/m² 15,0 °C 17,2 °C 9,7 km/h (2 Bft)
22.07.2018 15:30 17,2 °C 87 % 1012,6 hPa 0,0 mm 8,8 km/h (2 Bft) W 270 ° 0 min 0,000 mm 3,2 UV-I 371 W/m² 15,0 °C 17,2 °C 14,5 km/h (3 Bft)
22.07.2018 15:31 17,2 °C 87 % 1012,7 hPa 0,0 mm 8,5 km/h (2 Bft) W-NW 296 ° 0 min 0,000 mm 3,2 UV-I 373 W/m² 15,0 °C 17,2 °C 16,1 km/h (3 Bft)
22.07.2018 15:32 17,2 °C 87 % 1012,6 hPa 0,0 mm 12,0 km/h (2 Bft) W-SW 254 ° 0 min 0,000 mm 3,2 UV-I 385 W/m² 15,0 °C 17,2 °C 17,7 km/h (3 Bft)
22.07.2018 15:33 17,2 °C 87 % 1012,7 hPa 0,0 mm 8,8 km/h (2 Bft) S-SW 192 ° 0 min 0,000 mm 3,3 UV-I 397 W/m² 15,0 °C 17,2 °C 12,9 km/h (3 Bft)
22.07.2018 15:34 17,2 °C 86 % 1012,6 hPa 0,0 mm 3,2 km/h (1 Bft) NW 305 ° 0 min 0,000 mm 3,4 UV-I 415 W/m² 14,8 °C 17,2 °C 6,4 km/h (2 Bft)
22.07.2018 15:35 17,3 °C 88 % 1012,6 hPa 0,0 mm 4,4 km/h (1 Bft) NW 304 ° 0 min 0,000 mm 3,6 UV-I 439 W/m² 15,3 °C 17,3 °C 6,4 km/h (2 Bft)
22.07.2018 15:36 17,4 °C 88 % 1012,6 hPa 0,0 mm 6,8 km/h (2 Bft) W 262 ° 0 min 0,000 mm 3,6 UV-I 450 W/m² 15,4 °C 17,4 °C 11,3 km/h (2 Bft)
22.07.2018 15:37 17,7 °C 88 % 1012,6 hPa 0,0 mm 5,7 km/h (1 Bft) NW 306 ° 0 min 0,000 mm 3,7 UV-I 469 W/m² 15,7 °C 17,7 °C 8,0 km/h (2 Bft)
22.07.2018 15:38 17,7 °C 87 % 1012,6 hPa 0,0 mm 5,4 km/h (1 Bft) W-SW 250 ° 0 min 0,000 mm 3,7 UV-I 490 W/m² 15,5 °C 17,7 °C 9,7 km/h (2 Bft)
22.07.2018 15:39 17,7 °C 86 % 1012,6 hPa 0,0 mm 8,7 km/h (2 Bft) W 267 ° 0 min 0,000 mm 3,8 UV-I 475 W/m² 15,3 °C 17,7 °C 14,5 km/h (3 Bft)
22.07.2018 15:40 17,7 °C 86 % 1012,5 hPa 0,0 mm 8,6 km/h (2 Bft) W-NW 289 ° 0 min 0,000 mm 3,8 UV-I 475 W/m² 15,3 °C 17,7 °C 12,9 km/h (3 Bft)
22.07.2018 15:41 17,7 °C 86 % 1012,5 hPa 0,0 mm 6,0 km/h (2 Bft) W-SW 258 ° 0 min 0,000 mm 3,8 UV-I 476 W/m² 15,3 °C 17,7 °C 12,9 km/h (3 Bft)
22.07.2018 15:42 17,7 °C 85 % 1012,5 hPa 0,0 mm 7,4 km/h (2 Bft) W 280 ° 0 min 0,000 mm 3,7 UV-I 462 W/m² 15,1 °C 17,7 °C 12,9 km/h (3 Bft)
22.07.2018 15:43 17,7 °C 86 % 1012,5 hPa 0,0 mm 8,4 km/h (2 Bft) NW 306 ° 0 min 0,000 mm 3,6 UV-I 429 W/m² 15,3 °C 17,7 °C 12,9 km/h (3 Bft)
22.07.2018 15:44 17,7 °C 85 % 1012,5 hPa 0,0 mm 8,6 km/h (2 Bft) W 271 ° 0 min 0,000 mm 3,6 UV-I 422 W/m² 15,1 °C 17,7 °C 14,5 km/h (3 Bft)
22.07.2018 15:45 17,8 °C 86 % 1012,5 hPa 0,0 mm 5,6 km/h (1 Bft) W-NW 282 ° 0 min 0,000 mm 3,5 UV-I 420 W/m² 15,4 °C 17,8 °C 9,7 km/h (2 Bft)
22.07.2018 15:46 17,9 °C 86 % 1012,5 hPa 0,0 mm 5,8 km/h (2 Bft) W 273 ° 0 min 0,000 mm 3,6 UV-I 427 W/m² 15,5 °C 17,9 °C 14,5 km/h (3 Bft)
22.07.2018 15:47 17,9 °C 86 % 1012,5 hPa 0,0 mm 5,6 km/h (1 Bft) W-NW 291 ° 0 min 0,000 mm 3,6 UV-I 424 W/m² 15,5 °C 17,9 °C 12,9 km/h (3 Bft)
22.07.2018 15:48 18,1 °C 86 % 1012,5 hPa 0,0 mm 6,4 km/h (2 Bft) W-NW 294 ° 0 min 0,000 mm 3,6 UV-I 422 W/m² 15,7 °C 18,1 °C 9,7 km/h (2 Bft)
22.07.2018 15:49 18,1 °C 85 % 1012,5 hPa 0,0 mm 3,5 km/h (1 Bft) W-NW 286 ° 0 min 0,000 mm 3,6 UV-I 441 W/m² 15,5 °C 18,1 °C 4,8 km/h (1 Bft)
22.07.2018 15:50 18,2 °C 86 % 1012,5 hPa 0,0 mm 7,7 km/h (2 Bft) W-NW 291 ° 0 min 0,000 mm 3,7 UV-I 452 W/m² 15,8 °C 18,2 °C 14,5 km/h (3 Bft)
22.07.2018 15:51 18,2 °C 84 % 1012,5 hPa 0,0 mm 4,0 km/h (1 Bft) W-NW 284 ° 0 min 0,000 mm 3,7 UV-I 457 W/m² 15,4 °C 18,2 °C 8,0 km/h (2 Bft)
22.07.2018 15:52 18,2 °C 84 % 1012,5 hPa 0,0 mm 5,2 km/h (1 Bft) W-NW 299 ° 0 min 0,000 mm 3,7 UV-I 461 W/m² 15,4 °C 18,2 °C 8,0 km/h (2 Bft)
22.07.2018 15:53 18,2 °C 83 % 1012,5 hPa 0,0 mm 12,7 km/h (3 Bft) W 277 ° 0 min 0,000 mm 3,7 UV-I 455 W/m² 15,3 °C 18,2 °C 17,7 km/h (3 Bft)
22.07.2018 15:54 18,2 °C 83 % 1012,5 hPa 0,0 mm 11,9 km/h (2 Bft) W 270 ° 0 min 0,000 mm 3,7 UV-I 466 W/m² 15,3 °C 18,2 °C 16,1 km/h (3 Bft)
22.07.2018 15:55 18,1 °C 83 % 1012,6 hPa 0,0 mm 10,7 km/h (2 Bft) W 267 ° 0 min 0,000 mm 3,7 UV-I 471 W/m² 15,2 °C 18,1 °C 12,9 km/h (3 Bft)
22.07.2018 15:56 18,1 °C 82 % 1012,5 hPa 0,0 mm 13,3 km/h (3 Bft) W 278 ° 0 min 0,000 mm 3,7 UV-I 464 W/m² 15,0 °C 18,1 °C 16,1 km/h (3 Bft)
22.07.2018 15:57 18,1 °C 82 % 1012,5 hPa 0,0 mm 11,9 km/h (2 Bft) W 264 ° 0 min 0,000 mm 3,6 UV-I 455 W/m² 15,0 °C 18,1 °C 16,1 km/h (3 Bft)
22.07.2018 15:58 18,1 °C 83 % 1012,5 hPa 0,0 mm 13,8 km/h (3 Bft) W 268 ° 0 min 0,000 mm 3,5 UV-I 455 W/m² 15,2 °C 18,1 °C 17,7 km/h (3 Bft)
22.07.2018 15:59 18,1 °C 82 % 1012,6 hPa 0,0 mm 7,2 km/h (2 Bft) W-NW 300 ° 0 min 0,000 mm 3,3 UV-I 411 W/m² 15,0 °C 18,1 °C 11,3 km/h (2 Bft)
22.07.2018 16:00 18,1 °C 82 % 1012,6 hPa 0,0 mm 6,0 km/h (2 Bft) W-NW 284 ° 0 min 0,229 mm 3,2 UV-I 376 W/m² 15,0 °C 18,1 °C 9,7 km/h (2 Bft)
22.07.2018 16:01 18,1 °C 82 % 1012,6 hPa 0,0 mm 6,8 km/h (2 Bft) W 276 ° 0 min 0,000 mm 3,1 UV-I 348 W/m² 15,0 °C 18,1 °C 11,3 km/h (2 Bft)
22.07.2018 16:02 18,0 °C 82 % 1012,6 hPa 0,0 mm 8,3 km/h (2 Bft) W 277 ° 0 min 0,000 mm 2,9 UV-I 332 W/m² 14,9 °C 18,0 °C 11,3 km/h (2 Bft)
22.07.2018 16:03 18,0 °C 82 % 1012,5 hPa 0,0 mm 5,7 km/h (1 Bft) W-NW 300 ° 0 min 0,000 mm 2,9 UV-I 330 W/m² 14,9 °C 18,0 °C 12,9 km/h (3 Bft)
22.07.2018 16:04 18,0 °C 82 % 1012,6 hPa 0,0 mm 9,3 km/h (2 Bft) W 267 ° 0 min 0,000 mm 2,8 UV-I 345 W/m² 14,9 °C 18,0 °C 16,1 km/h (3 Bft)
22.07.2018 16:05 18,0 °C 82 % 1012,6 hPa 0,0 mm 9,5 km/h (2 Bft) W 267 ° 0 min 0,000 mm 2,7 UV-I 322 W/m² 14,9 °C 18,0 °C 16,1 km/h (3 Bft)
22.07.2018 16:06 17,9 °C 82 % 1012,6 hPa 0,0 mm 12,8 km/h (3 Bft) W-SW 252 ° 0 min 0,000 mm 2,6 UV-I 308 W/m² 14,8 °C 17,9 °C 16,1 km/h (3 Bft)
22.07.2018 16:07 17,9 °C 82 % 1012,6 hPa 0,0 mm 10,5 km/h (2 Bft) NW 307 ° 0 min 0,000 mm 2,5 UV-I 287 W/m² 14,8 °C 17,9 °C 14,5 km/h (3 Bft)
22.07.2018 16:08 17,8 °C 80 % 1012,6 hPa 0,0 mm 11,2 km/h (2 Bft) W 269 ° 0 min 0,000 mm 2,2 UV-I 229 W/m² 14,3 °C 17,8 °C 17,7 km/h (3 Bft)
22.07.2018 16:09 17,8 °C 81 % 1012,6 hPa 0,0 mm 10,8 km/h (2 Bft) W 265 ° 0 min 0,000 mm 2,1 UV-I 221 W/m² 14,5 °C 17,8 °C 14,5 km/h (3 Bft)
22.07.2018 16:10 17,7 °C 81 % 1012,6 hPa 0,0 mm 5,4 km/h (1 Bft) W-NW 290 ° 0 min 0,000 mm 2,1 UV-I 251 W/m² 14,4 °C 17,7 °C 9,7 km/h (2 Bft)
22.07.2018 16:11 17,7 °C 82 % 1012,5 hPa 0,0 mm 6,2 km/h (2 Bft) W 259 ° 0 min 0,000 mm 2,0 UV-I 246 W/m² 14,6 °C 17,7 °C 16,1 km/h (3 Bft)
22.07.2018 16:12 17,7 °C 82 % 1012,5 hPa 0,0 mm 11,8 km/h (2 Bft) W 265 ° 0 min 0,000 mm 2,0 UV-I 243 W/m² 14,6 °C 17,7 °C 16,1 km/h (3 Bft)
22.07.2018 16:13 17,8 °C 82 % 1012,6 hPa 0,0 mm 11,6 km/h (2 Bft) W 259 ° 0 min 0,000 mm 2,0 UV-I 246 W/m² 14,7 °C 17,8 °C 16,1 km/h (3 Bft)
22.07.2018 16:14 17,7 °C 81 % 1012,6 hPa 0,0 mm 6,7 km/h (2 Bft) W-NW 303 ° 0 min 0,000 mm 2,0 UV-I 246 W/m² 14,4 °C 17,7 °C 14,5 km/h (3 Bft)
22.07.2018 16:15 17,7 °C 81 % 1012,6 hPa 0,0 mm 9,5 km/h (2 Bft) W 278 ° 0 min 0,000 mm 2,0 UV-I 244 W/m² 14,4 °C 17,7 °C 16,1 km/h (3 Bft)
22.07.2018 16:16 17,7 °C 80 % 1012,6 hPa 0,0 mm 12,5 km/h (3 Bft) W 263 ° 0 min 0,000 mm 2,0 UV-I 239 W/m² 14,2 °C 17,7 °C 17,7 km/h (3 Bft)
22.07.2018 16:17 17,6 °C 80 % 1012,6 hPa 0,0 mm 15,1 km/h (3 Bft) W-NW 288 ° 0 min 0,000 mm 1,8 UV-I 230 W/m² 14,1 °C 17,6 °C 20,9 km/h (4 Bft)
22.07.2018 16:18 17,6 °C 80 % 1012,6 hPa 0,0 mm 7,6 km/h (2 Bft) W-SW 252 ° 0 min 0,000 mm 1,7 UV-I 209 W/m² 14,1 °C 17,6 °C 16,1 km/h (3 Bft)
22.07.2018 16:19 17,6 °C 81 % 1012,6 hPa 0,0 mm 12,7 km/h (3 Bft) W 281 ° 0 min 0,000 mm 1,6 UV-I 197 W/m² 14,3 °C 17,6 °C 17,7 km/h (3 Bft)
22.07.2018 16:20 17,6 °C 80 % 1012,5 hPa 0,0 mm 8,9 km/h (2 Bft) W 268 ° 0 min 0,000 mm 1,4 UV-I 185 W/m² 14,1 °C 17,6 °C 12,9 km/h (3 Bft)
22.07.2018 16:21 17,6 °C 81 % 1012,6 hPa 0,0 mm 10,9 km/h (2 Bft) W-NW 288 ° 0 min 0,000 mm 1,3 UV-I 172 W/m² 14,3 °C 17,6 °C 16,1 km/h (3 Bft)
22.07.2018 16:22 17,5 °C 80 % 1012,6 hPa 0,0 mm 12,5 km/h (3 Bft) W-NW 286 ° 0 min 0,000 mm 1,3 UV-I 162 W/m² 14,0 °C 17,5 °C 20,9 km/h (4 Bft)
22.07.2018 16:23 17,5 °C 80 % 1012,6 hPa 0,0 mm 10,8 km/h (2 Bft) W-NW 288 ° 0 min 0,000 mm 1,2 UV-I 153 W/m² 14,0 °C 17,5 °C 16,1 km/h (3 Bft)
22.07.2018 16:24 17,4 °C 81 % 1012,6 hPa 0,0 mm 11,5 km/h (2 Bft) W-SW 244 ° 0 min 0,000 mm 1,1 UV-I 135 W/m² 14,1 °C 17,4 °C 16,1 km/h (3 Bft)
22.07.2018 16:25 17,3 °C 82 % 1012,6 hPa 0,0 mm 10,3 km/h (2 Bft) W 281 ° 0 min 0,000 mm 1,0 UV-I 125 W/m² 14,2 °C 17,3 °C 16,1 km/h (3 Bft)
22.07.2018 16:26 17,3 °C 82 % 1012,5 hPa 0,0 mm 11,1 km/h (2 Bft) W-SW 251 ° 0 min 0,000 mm 0,9 UV-I 114 W/m² 14,2 °C 17,3 °C 17,7 km/h (3 Bft)
22.07.2018 16:27 17,3 °C 82 % 1012,6 hPa 0,0 mm 12,8 km/h (3 Bft) W-NW 303 ° 0 min 0,000 mm 0,8 UV-I 104 W/m² 14,2 °C 17,3 °C 19,3 km/h (3 Bft)
22.07.2018 16:28 17,2 °C 82 % 1012,5 hPa 0,0 mm 5,9 km/h (2 Bft) W-NW 287 ° 0 min 0,000 mm 0,7 UV-I 95 W/m² 14,1 °C 17,2 °C 8,0 km/h (2 Bft)
22.07.2018 16:29 17,2 °C 83 % 1012,6 hPa 0,0 mm 4,2 km/h (1 Bft) W-SW 256 ° 0 min 0,000 mm 0,7 UV-I 90 W/m² 14,3 °C 17,2 °C 6,4 km/h (2 Bft)
22.07.2018 16:30 17,2 °C 83 % 1012,5 hPa 0,0 mm 7,6 km/h (2 Bft) W 259 ° 0 min 0,000 mm 0,7 UV-I 84 W/m² 14,3 °C 17,2 °C 12,9 km/h (3 Bft)
22.07.2018 16:31 17,2 °C 82 % 1012,6 hPa 0,0 mm 10,9 km/h (2 Bft) W-SW 251 ° 0 min 0,000 mm 0,6 UV-I 83 W/m² 14,1 °C 17,2 °C 17,7 km/h (3 Bft)
22.07.2018 16:32 17,1 °C 82 % 1012,5 hPa 0,0 mm 8,3 km/h (2 Bft) SW 235 ° 0 min 0,000 mm 0,6 UV-I 83 W/m² 14,0 °C 17,1 °C 17,7 km/h (3 Bft)
22.07.2018 16:33 17,1 °C 82 % 1012,5 hPa 0,0 mm 4,0 km/h (1 Bft) W-NW 292 ° 0 min 0,000 mm 0,6 UV-I 83 W/m² 14,0 °C 17,1 °C 8,0 km/h (2 Bft)
22.07.2018 16:34 17,1 °C 83 % 1012,5 hPa 0,0 mm 1,5 km/h (1 Bft) W 264 ° 0 min 0,000 mm 0,6 UV-I 83 W/m² 14,2 °C 17,1 °C 3,2 km/h (1 Bft)
22.07.2018 16:35 17,0 °C 83 % 1012,5 hPa 0,0 mm 5,1 km/h (1 Bft) W-SW 256 ° 0 min 0,000 mm 0,7 UV-I 84 W/m² 14,1 °C 17,0 °C 8,0 km/h (2 Bft)
22.07.2018 16:36 17,0 °C 83 % 1012,5 hPa 0,0 mm 3,4 km/h (1 Bft) W-SW 250 ° 0 min 0,000 mm 0,7 UV-I 84 W/m² 14,1 °C 17,0 °C 8,0 km/h (2 Bft)
22.07.2018 16:37 17,0 °C 83 % 1012,5 hPa 0,0 mm 8,4 km/h (2 Bft) W-NW 285 ° 0 min 0,000 mm 0,7 UV-I 86 W/m² 14,1 °C 17,0 °C 12,9 km/h (3 Bft)
22.07.2018 16:38 17,0 °C 83 % 1012,5 hPa 0,0 mm 5,2 km/h (1 Bft) W 264 ° 0 min 0,000 mm 0,7 UV-I 86 W/m² 14,1 °C 17,0 °C 9,7 km/h (2 Bft)
22.07.2018 16:39 17,0 °C 84 % 1012,6 hPa 0,0 mm 2,1 km/h (1 Bft) W 263 ° 0 min 0,000 mm 0,7 UV-I 86 W/m² 14,3 °C 17,0 °C 4,8 km/h (1 Bft)
22.07.2018 16:40 17,0 °C 83 % 1012,6 hPa 0,0 mm 5,4 km/h (1 Bft) W 261 ° 0 min 0,000 mm 0,7 UV-I 86 W/m² 14,1 °C 17,0 °C 11,3 km/h (2 Bft)
22.07.2018 16:41 17,0 °C 83 % 1012,6 hPa 0,0 mm 2,1 km/h (1 Bft) W 261 ° 0 min 0,000 mm 0,7 UV-I 86 W/m² 14,1 °C 17,0 °C 3,2 km/h (1 Bft)
22.07.2018 16:42 17,0 °C 84 % 1012,6 hPa 0,0 mm 4,7 km/h (1 Bft) W-SW 258 ° 0 min 0,000 mm 0,7 UV-I 84 W/m² 14,3 °C 17,0 °C 4,8 km/h (1 Bft)
22.07.2018 16:43 17,0 °C 84 % 1012,6 hPa 0,0 mm 3,9 km/h (1 Bft) W 273 ° 0 min 0,000 mm 0,7 UV-I 86 W/m² 14,3 °C 17,0 °C 6,4 km/h (2 Bft)
22.07.2018 16:44 17,1 °C 84 % 1012,7 hPa 0,0 mm 5,7 km/h (1 Bft) W-SW 258 ° 0 min 0,000 mm 0,7 UV-I 88 W/m² 14,4 °C 17,1 °C 9,7 km/h (2 Bft)
22.07.2018 16:45 17,1 °C 85 % 1012,7 hPa 0,0 mm 4,5 km/h (1 Bft) SW 234 ° 0 min 0,000 mm 0,7 UV-I 90 W/m² 14,6 °C 17,1 °C 6,4 km/h (2 Bft)
22.07.2018 16:46 17,0 °C 84 % 1012,6 hPa 0,0 mm 3,0 km/h (1 Bft) SW 234 ° 0 min 0,000 mm 0,8 UV-I 93 W/m² 14,3 °C 17,0 °C 6,4 km/h (2 Bft)
22.07.2018 16:47 17,1 °C 84 % 1012,6 hPa 0,0 mm 3,7 km/h (1 Bft) W 259 ° 0 min 0,000 mm 0,8 UV-I 98 W/m² 14,4 °C 17,1 °C 6,4 km/h (2 Bft)
22.07.2018 16:48 17,1 °C 84 % 1012,6 hPa 0,0 mm 3,3 km/h (1 Bft) W 271 ° 0 min 0,000 mm 0,8 UV-I 105 W/m² 14,4 °C 17,1 °C 6,4 km/h (2 Bft)
22.07.2018 16:49 17,1 °C 84 % 1012,6 hPa 0,0 mm 2,9 km/h (1 Bft) W 273 ° 0 min 0,000 mm 0,9 UV-I 111 W/m² 14,4 °C 17,1 °C 6,4 km/h (2 Bft)
22.07.2018 16:50 17,1 °C 84 % 1012,7 hPa 0,0 mm 1,3 km/h (1 Bft) W-NW 282 ° 0 min 0,000 mm 0,9 UV-I 113 W/m² 14,4 °C 17,1 °C 4,8 km/h (1 Bft)
22.07.2018 16:51 17,1 °C 85 % 1012,7 hPa 0,0 mm 5,8 km/h (2 Bft) W 275 ° 0 min 0,000 mm 0,9 UV-I 113 W/m² 14,6 °C 17,1 °C 11,3 km/h (2 Bft)
22.07.2018 16:52 17,2 °C 84 % 1012,6 hPa 0,0 mm 5,8 km/h (2 Bft) W-SW 255 ° 0 min 0,000 mm 0,9 UV-I 113 W/m² 14,5 °C 17,2 °C 9,7 km/h (2 Bft)
22.07.2018 16:53 17,2 °C 84 % 1012,6 hPa 0,0 mm 3,7 km/h (1 Bft) W 269 ° 0 min 0,000 mm 0,9 UV-I 111 W/m² 14,5 °C 17,2 °C 6,4 km/h (2 Bft)
22.07.2018 16:54 17,2 °C 84 % 1012,6 hPa 0,0 mm 3,1 km/h (1 Bft) W 270 ° 0 min 0,000 mm 0,9 UV-I 107 W/m² 14,5 °C 17,2 °C 4,8 km/h (1 Bft)
22.07.2018 16:55 17,2 °C 84 % 1012,7 hPa 0,0 mm 1,7 km/h (1 Bft) W 270 ° 0 min 0,000 mm 0,8 UV-I 105 W/m² 14,5 °C 17,2 °C 3,2 km/h (1 Bft)
22.07.2018 16:56 17,2 °C 84 % 1012,6 hPa 0,0 mm 2,4 km/h (1 Bft) W-SW 251 ° 0 min 0,000 mm 0,8 UV-I 102 W/m² 14,5 °C 17,2 °C 4,8 km/h (1 Bft)
22.07.2018 16:57 17,2 °C 85 % 1012,7 hPa 0,0 mm 1,4 km/h (1 Bft) W-SW 251 ° 0 min 0,000 mm 0,8 UV-I 98 W/m² 14,7 °C 17,2 °C 3,2 km/h (1 Bft)
22.07.2018 16:58 17,2 °C 85 % 1012,7 hPa 0,0 mm 1,3 km/h (1 Bft) W-SW 251 ° 0 min 0,000 mm 0,7 UV-I 95 W/m² 14,7 °C 17,2 °C 3,2 km/h (1 Bft)
22.07.2018 16:59 17,2 °C 84 % 1012,6 hPa 0,0 mm 0,8 km/h (0 Bft) W-SW 251 ° 0 min 0,000 mm 0,7 UV-I 91 W/m² 14,5 °C 17,2 °C 1,6 km/h (1 Bft)
22.07.2018 17:00 17,2 °C 84 % 1012,7 hPa 0,0 mm 0,3 km/h (0 Bft) W-SW 251 ° 0 min 0,101 mm 0,7 UV-I 84 W/m² 14,5 °C 17,2 °C 1,6 km/h (1 Bft)
22.07.2018 17:01 17,2 °C 84 % 1012,6 hPa 0,0 mm 2,8 km/h (1 Bft) W-SW 256 ° 0 min 0,000 mm 0,6 UV-I 79 W/m² 14,5 °C 17,2 °C 4,8 km/h (1 Bft)
22.07.2018 17:02 17,2 °C 84 % 1012,7 hPa 0,0 mm 2,9 km/h (1 Bft) W-SW 255 ° 0 min 0,000 mm 0,6 UV-I 76 W/m² 14,5 °C 17,2 °C 6,4 km/h (2 Bft)
22.07.2018 17:03 17,2 °C 84 % 1012,7 hPa 0,0 mm 0,3 km/h (0 Bft) W-SW 257 ° 0 min 0,000 mm 0,6 UV-I 74 W/m² 14,5 °C 17,2 °C 1,6 km/h (1 Bft)
22.07.2018 17:04 17,2 °C 84 % 1012,7 hPa 0,0 mm 2,6 km/h (1 Bft) W-SW 257 ° 0 min 0,000 mm 0,6 UV-I 72 W/m² 14,5 °C 17,2 °C 4,8 km/h (1 Bft)
22.07.2018 17:05 17,2 °C 84 % 1012,7 hPa 0,0 mm 0,9 km/h (0 Bft) W 259 ° 0 min 0,000 mm 0,5 UV-I 69 W/m² 14,5 °C 17,2 °C 3,2 km/h (1 Bft)
22.07.2018 17:06 17,2 °C 83 % 1012,7 hPa 0,0 mm 0,9 km/h (0 Bft) W 263 ° 0 min 0,000 mm 0,5 UV-I 69 W/m² 14,3 °C 17,2 °C 9,7 km/h (2 Bft)
22.07.2018 17:07 17,2 °C 84 % 1012,7 hPa 0,0 mm 5,1 km/h (1 Bft) W-SW 258 ° 0 min 0,000 mm 0,5 UV-I 69 W/m² 14,5 °C 17,2 °C 9,7 km/h (2 Bft)
22.07.2018 17:08 17,2 °C 84 % 1012,7 hPa 0,0 mm 3,8 km/h (1 Bft) W-SW 257 ° 0 min 0,000 mm 0,5 UV-I 69 W/m² 14,5 °C 17,2 °C 4,8 km/h (1 Bft)
22.07.2018 17:09 17,2 °C 84 % 1012,6 hPa 0,0 mm 7,1 km/h (2 Bft) W-SW 240 ° 0 min 0,000 mm 0,5 UV-I 69 W/m² 14,5 °C 17,2 °C 11,3 km/h (2 Bft)
22.07.2018 17:10 17,1 °C 85 % 1012,7 hPa 0,0 mm 3,0 km/h (1 Bft) W-SW 250 ° 0 min 0,000 mm 0,5 UV-I 70 W/m² 14,6 °C 17,1 °C 4,8 km/h (1 Bft)
22.07.2018 17:11 17,1 °C 85 % 1012,7 hPa 0,0 mm 0,2 km/h (0 Bft) W-SW 250 ° 0 min 0,000 mm 0,5 UV-I 70 W/m² 14,6 °C 17,1 °C 3,2 km/h (1 Bft)
22.07.2018 17:12 17,0 °C 85 % 1012,7 hPa 0,0 mm 0,0 km/h (0 Bft) W-SW 250 ° 0 min 0,000 mm 0,5 UV-I 70 W/m² 14,5 °C 17,0 °C 0,0 km/h (0 Bft)
22.07.2018 17:13 16,9 °C 85 % 1012,7 hPa 0,0 mm 0,1 km/h (0 Bft) W-SW 250 ° 0 min 0,000 mm 0,5 UV-I 70 W/m² 14,4 °C 16,9 °C 1,6 km/h (1 Bft)
22.07.2018 17:14 16,9 °C 86 % 1012,7 hPa 0,0 mm 1,7 km/h (1 Bft) W-SW 250 ° 0 min 0,000 mm 0,5 UV-I 69 W/m² 14,5 °C 16,9 °C 3,2 km/h (1 Bft)
22.07.2018 17:15 16,8 °C 85 % 1012,7 hPa 0,0 mm 0,6 km/h (0 Bft) NW 315 ° 0 min 0,000 mm 0,5 UV-I 69 W/m² 14,3 °C 16,8 °C 3,2 km/h (1 Bft)
22.07.2018 17:16 16,8 °C 85 % 1012,7 hPa 0,0 mm 1,3 km/h (1 Bft) NW 324 ° 0 min 0,000 mm 0,5 UV-I 69 W/m² 14,3 °C 16,8 °C 4,8 km/h (1 Bft)
22.07.2018 17:17 16,9 °C 85 % 1012,6 hPa 0,0 mm 1,7 km/h (1 Bft) W 266 ° 0 min 0,000 mm 0,5 UV-I 65 W/m² 14,4 °C 16,9 °C 3,2 km/h (1 Bft)
22.07.2018 17:18 16,9 °C 86 % 1012,6 hPa 0,0 mm 2,0 km/h (1 Bft) W-SW 249 ° 0 min 0,000 mm 0,5 UV-I 63 W/m² 14,5 °C 16,9 °C 3,2 km/h (1 Bft)
22.07.2018 17:19 16,9 °C 85 % 1012,7 hPa 0,0 mm 3,2 km/h (1 Bft) W 270 ° 0 min 0,000 mm 0,5 UV-I 62 W/m² 14,4 °C 16,9 °C 4,8 km/h (1 Bft)
22.07.2018 17:20 17,0 °C 85 % 1012,7 hPa 0,0 mm 4,5 km/h (1 Bft) W-NW 284 ° 0 min 0,000 mm 0,0 UV-I 60 W/m² 14,5 °C 17,0 °C 9,7 km/h (2 Bft)
22.07.2018 17:21 17,0 °C 84 % 1012,7 hPa 0,0 mm 4,1 km/h (1 Bft) W 267 ° 0 min 0,000 mm 0,0 UV-I 56 W/m² 14,3 °C 17,0 °C 6,4 km/h (2 Bft)
22.07.2018 17:22 17,1 °C 85 % 1012,6 hPa 0,0 mm 3,9 km/h (1 Bft) W 267 ° 0 min 0,000 mm 0,0 UV-I 54 W/m² 14,6 °C 17,1 °C 6,4 km/h (2 Bft)
22.07.2018 17:23 17,0 °C 85 % 1012,6 hPa 0,0 mm 0,3 km/h (0 Bft) W 267 ° 0 min 0,000 mm 0,0 UV-I 49 W/m² 14,5 °C 17,0 °C 1,6 km/h (1 Bft)
22.07.2018 17:24 16,9 °C 86 % 1012,7 hPa 0,0 mm 0,9 km/h (0 Bft) W 266 ° 0 min 0,000 mm 0,0 UV-I 47 W/m² 14,5 °C 16,9 °C 4,8 km/h (1 Bft)
22.07.2018 17:25 16,9 °C 86 % 1012,6 hPa 0,0 mm 1,6 km/h (1 Bft) W 266 ° 0 min 0,000 mm 0,0 UV-I 47 W/m² 14,5 °C 16,9 °C 3,2 km/h (1 Bft)
22.07.2018 17:26 16,8 °C 86 % 1012,7 hPa 0,0 mm 2,2 km/h (1 Bft) W-SW 248 ° 0 min 0,000 mm 0,0 UV-I 46 W/m² 14,4 °C 16,8 °C 3,2 km/h (1 Bft)
22.07.2018 17:27 16,7 °C 87 % 1012,6 hPa 0,0 mm 0,0 km/h (0 Bft) W-SW 248 ° 0 min 0,000 mm 0,0 UV-I 44 W/m² 14,5 °C 16,7 °C 0,0 km/h (0 Bft)
22.07.2018 17:28 16,8 °C 87 % 1012,6 hPa 0,0 mm 2,3 km/h (1 Bft) W 276 ° 0 min 0,000 mm 0,0 UV-I 42 W/m² 14,6 °C 16,8 °C 4,8 km/h (1 Bft)
22.07.2018 17:29 16,8 °C 88 % 1012,6 hPa 0,0 mm 0,1 km/h (0 Bft) W 276 ° 0 min 0,000 mm 0,0 UV-I 40 W/m² 14,8 °C 16,8 °C 1,6 km/h (1 Bft)
22.07.2018 17:30 16,7 °C 87 % 1012,6 hPa 0,0 mm 0,5 km/h (0 Bft) W 276 ° 0 min 0,000 mm 0,0 UV-I 39 W/m² 14,5 °C 16,7 °C 3,2 km/h (1 Bft)
22.07.2018 17:31 16,7 °C 86 % 1012,6 hPa 0,0 mm 0,0 km/h (0 Bft) W 276 ° 0 min 0,000 mm 0,0 UV-I 39 W/m² 14,3 °C 16,7 °C 0,0 km/h (0 Bft)
22.07.2018 17:32 16,7 °C 86 % 1012,7 hPa 0,0 mm 0,0 km/h (0 Bft) W 276 ° 0 min 0,000 mm 0,0 UV-I 37 W/m² 14,3 °C 16,7 °C 0,0 km/h (0 Bft)
22.07.2018 17:33 16,8 °C 86 % 1012,7 hPa 0,0 mm 0,0 km/h (0 Bft) W 276 ° 0 min 0,000 mm 0,0 UV-I 37 W/m² 14,4 °C 16,8 °C 0,0 km/h (0 Bft)
22.07.2018 17:34 16,8 °C 86 % 1012,6 hPa 0,0 mm 0,0 km/h (0 Bft) W 276 ° 0 min 0,000 mm 0,0 UV-I 35 W/m² 14,4 °C 16,8 °C 0,0 km/h (0 Bft)
22.07.2018 17:35 16,8 °C 86 % 1012,7 hPa 0,0 mm 0,0 km/h (0 Bft) W 276 ° 0 min 0,000 mm 0,0 UV-I 35 W/m² 14,4 °C 16,8 °C 0,0 km/h (0 Bft)
22.07.2018 17:36 16,8 °C 85 % 1012,7 hPa 0,0 mm 0,0 km/h (0 Bft) W 276 ° 0 min 0,000 mm 0,0 UV-I 35 W/m² 14,3 °C 16,8 °C 0,0 km/h (0 Bft)
22.07.2018 17:37 16,8 °C 85 % 1012,7 hPa 0,0 mm 0,1 km/h (0 Bft) W 276 ° 0 min 0,000 mm 0,0 UV-I 35 W/m² 14,3 °C 16,8 °C 1,6 km/h (1 Bft)
22.07.2018 17:38 16,8 °C 86 % 1012,7 hPa 0,0 mm 3,3 km/h (1 Bft) W 271 ° 0 min 0,000 mm 0,0 UV-I 37 W/m² 14,4 °C 16,8 °C 4,8 km/h (1 Bft)
22.07.2018 17:39 16,8 °C 85 % 1012,6 hPa 0,0 mm 1,1 km/h (1 Bft) W 271 ° 0 min 0,000 mm 0,0 UV-I 37 W/m² 14,3 °C 16,8 °C 3,2 km/h (1 Bft)
22.07.2018 17:40 16,8 °C 85 % 1012,6 hPa 0,0 mm 2,7 km/h (1 Bft) W 271 ° 0 min 0,000 mm 0,0 UV-I 39 W/m² 14,3 °C 16,8 °C 4,8 km/h (1 Bft)
22.07.2018 17:41 16,8 °C 86 % 1012,6 hPa 0,0 mm 0,1 km/h (0 Bft) W 271 ° 0 min 0,000 mm 0,0 UV-I 40 W/m² 14,4 °C 16,8 °C 1,6 km/h (1 Bft)
22.07.2018 17:42 16,8 °C 86 % 1012,6 hPa 0,0 mm 0,7 km/h (0 Bft) W 271 ° 0 min 0,000 mm 0,0 UV-I 40 W/m² 14,4 °C 16,8 °C 1,6 km/h (1 Bft)
22.07.2018 17:43 16,8 °C 86 % 1012,6 hPa 0,0 mm 0,2 km/h (0 Bft) W 271 ° 0 min 0,000 mm 0,0 UV-I 40 W/m² 14,4 °C 16,8 °C 1,6 km/h (1 Bft)
22.07.2018 17:44 16,8 °C 86 % 1012,6 hPa 0,0 mm 1,1 km/h (1 Bft) W 269 ° 0 min 0,000 mm 0,0 UV-I 42 W/m² 14,4 °C 16,8 °C 4,8 km/h (1 Bft)
22.07.2018 17:45 16,8 °C 86 % 1012,6 hPa 0,0 mm 3,6 km/h (1 Bft) W 266 ° 0 min 0,000 mm 0,0 UV-I 44 W/m² 14,4 °C 16,8 °C 4,8 km/h (1 Bft)
22.07.2018 17:46 16,8 °C 86 % 1012,6 hPa 0,0 mm 1,7 km/h (1 Bft) W 266 ° 0 min 0,000 mm 0,0 UV-I 46 W/m² 14,4 °C 16,8 °C 3,2 km/h (1 Bft)
22.07.2018 17:47 16,8 °C 86 % 1012,7 hPa 0,0 mm 0,0 km/h (0 Bft) W 266 ° 0 min 0,000 mm 0,0 UV-I 47 W/m² 14,4 °C 16,8 °C 0,0 km/h (0 Bft)
22.07.2018 17:48 16,8 °C 86 % 1012,6 hPa 0,0 mm 3,7 km/h (1 Bft) W 263 ° 0 min 0,000 mm 0,0 UV-I 47 W/m² 14,4 °C 16,8 °C 6,4 km/h (2 Bft)
22.07.2018 17:49 16,8 °C 87 % 1012,7 hPa 0,0 mm 3,7 km/h (1 Bft) W 263 ° 0 min 0,000 mm 0,0 UV-I 49 W/m² 14,6 °C 16,8 °C 4,8 km/h (1 Bft)
22.07.2018 17:50 16,8 °C 86 % 1012,6 hPa 0,0 mm 4,0 km/h (1 Bft) W-NW 286 ° 0 min 0,000 mm 0,0 UV-I 49 W/m² 14,4 °C 16,8 °C 6,4 km/h (2 Bft)
22.07.2018 17:51 16,8 °C 86 % 1012,7 hPa 0,0 mm 5,5 km/h (1 Bft) N-NW 338 ° 0 min 0,000 mm 0,0 UV-I 51 W/m² 14,4 °C 16,8 °C 11,3 km/h (2 Bft)
22.07.2018 17:52 16,8 °C 86 % 1012,7 hPa 0,0 mm 3,8 km/h (1 Bft) W 276 ° 0 min 0,000 mm 0,0 UV-I 58 W/m² 14,4 °C 16,8 °C 6,4 km/h (2 Bft)
22.07.2018 17:53 16,8 °C 86 % 1012,7 hPa 0,0 mm 7,1 km/h (2 Bft) W 276 ° 0 min 0,000 mm 0,0 UV-I 62 W/m² 14,4 °C 16,8 °C 14,5 km/h (3 Bft)
22.07.2018 17:54 16,7 °C 86 % 1012,7 hPa 0,0 mm 8,7 km/h (2 Bft) W 273 ° 0 min 0,000 mm 0,0 UV-I 65 W/m² 14,3 °C 16,7 °C 11,3 km/h (2 Bft)
22.07.2018 17:55 16,7 °C 86 % 1012,7 hPa 0,0 mm 6,8 km/h (2 Bft) W-NW 303 ° 0 min 0,000 mm 0,5 UV-I 69 W/m² 14,3 °C 16,7 °C 14,5 km/h (3 Bft)
22.07.2018 17:56 16,6 °C 86 % 1012,7 hPa 0,0 mm 8,6 km/h (2 Bft) W 262 ° 0 min 0,000 mm 0,5 UV-I 72 W/m² 14,2 °C 16,6 °C 12,9 km/h (3 Bft)
22.07.2018 17:57 16,6 °C 86 % 1012,7 hPa 0,0 mm 7,0 km/h (2 Bft) W-NW 293 ° 0 min 0,000 mm 0,5 UV-I 74 W/m² 14,2 °C 16,6 °C 14,5 km/h (3 Bft)
22.07.2018 17:58 16,4 °C 86 % 1012,7 hPa 0,0 mm 7,6 km/h (2 Bft) W 271 ° 0 min 0,000 mm 0,5 UV-I 76 W/m² 14,1 °C 16,4 °C 12,9 km/h (3 Bft)
22.07.2018 17:59 16,3 °C 87 % 1012,7 hPa 0,0 mm 11,7 km/h (2 Bft) W 263 ° 0 min 0,000 mm 0,5 UV-I 76 W/m² 14,1 °C 16,3 °C 17,7 km/h (3 Bft)
22.07.2018 18:00 16,2 °C 87 % 1012,7 hPa 0,0 mm 3,1 km/h (1 Bft) W 280 ° 0 min 0,000 mm 0,5 UV-I 72 W/m² 14,0 °C 16,2 °C 6,4 km/h (2 Bft)
22.07.2018 18:01 16,1 °C 88 % 1012,7 hPa 0,0 mm 0,4 km/h (0 Bft) W 280 ° 0 min 0,026 mm 0,5 UV-I 72 W/m² 14,1 °C 16,1 °C 3,2 km/h (1 Bft)
22.07.2018 18:02 16,1 °C 88 % 1012,7 hPa 0,0 mm 5,0 km/h (1 Bft) W 268 ° 0 min 0,000 mm 0,5 UV-I 72 W/m² 14,1 °C 16,1 °C 6,4 km/h (2 Bft)
22.07.2018 18:03 16,0 °C 89 % 1012,7 hPa 0,0 mm 3,5 km/h (1 Bft) W-SW 255 ° 0 min 0,000 mm 0,5 UV-I 72 W/m² 14,2 °C 16,0 °C 6,4 km/h (2 Bft)
22.07.2018 18:04 15,9 °C 88 % 1012,8 hPa 0,0 mm 5,1 km/h (1 Bft) W-SW 248 ° 0 min 0,000 mm 0,5 UV-I 74 W/m² 13,9 °C 15,9 °C 6,4 km/h (2 Bft)
22.07.2018 18:05 15,9 °C 88 % 1012,7 hPa 0,0 mm 1,5 km/h (1 Bft) W-SW 245 ° 0 min 0,000 mm 0,5 UV-I 77 W/m² 13,9 °C 15,9 °C 4,8 km/h (1 Bft)
22.07.2018 18:06 15,9 °C 88 % 1012,6 hPa 0,0 mm 1,1 km/h (1 Bft) W 277 ° 0 min 0,000 mm 0,5 UV-I 79 W/m² 13,9 °C 15,9 °C 4,8 km/h (1 Bft)
22.07.2018 18:07 15,9 °C 89 % 1012,6 hPa 0,0 mm 4,2 km/h (1 Bft) W 280 ° 0 min 0,000 mm 0,5 UV-I 81 W/m² 14,1 °C 15,9 °C 6,4 km/h (2 Bft)
22.07.2018 18:08 15,9 °C 89 % 1012,7 hPa 0,0 mm 2,5 km/h (1 Bft) W 280 ° 0 min 0,000 mm 0,5 UV-I 81 W/m² 14,1 °C 15,9 °C 4,8 km/h (1 Bft)
22.07.2018 18:09 15,9 °C 89 % 1012,6 hPa 0,0 mm 0,2 km/h (0 Bft) W 280 ° 0 min 0,000 mm 0,5 UV-I 81 W/m² 14,1 °C 15,9 °C 1,6 km/h (1 Bft)
22.07.2018 18:10 15,8 °C 88 % 1012,6 hPa 0,0 mm 6,0 km/h (2 Bft) S 186 ° 0 min 0,000 mm 0,5 UV-I 81 W/m² 13,8 °C 15,8 °C 11,3 km/h (2 Bft)
22.07.2018 18:11 15,9 °C 88 % 1012,5 hPa 0,0 mm 4,2 km/h (1 Bft) S-SW 199 ° 0 min 0,000 mm 0,5 UV-I 79 W/m² 13,9 °C 15,9 °C 9,7 km/h (2 Bft)
22.07.2018 18:12 15,9 °C 88 % 1012,6 hPa 0,0 mm 3,2 km/h (1 Bft) S 188 ° 0 min 0,000 mm 0,5 UV-I 77 W/m² 13,9 °C 15,9 °C 6,4 km/h (2 Bft)
22.07.2018 18:13 15,9 °C 87 % 1012,5 hPa 0,0 mm 6,4 km/h (2 Bft) S-SW 203 ° 0 min 0,000 mm 0,5 UV-I 77 W/m² 13,7 °C 15,9 °C 8,0 km/h (2 Bft)
22.07.2018 18:14 15,9 °C 87 % 1012,5 hPa 0,0 mm 3,9 km/h (1 Bft) S-SW 196 ° 0 min 0,000 mm 0,5 UV-I 77 W/m² 13,7 °C 15,9 °C 8,0 km/h (2 Bft)
22.07.2018 18:15 15,9 °C 87 % 1012,5 hPa 0,0 mm 3,5 km/h (1 Bft) S 191 ° 0 min 0,000 mm 0,5 UV-I 76 W/m² 13,7 °C 15,9 °C 6,4 km/h (2 Bft)
22.07.2018 18:16 15,9 °C 87 % 1012,5 hPa 0,0 mm 4,8 km/h (1 Bft) S-SW 192 ° 0 min 0,000 mm 0,5 UV-I 76 W/m² 13,7 °C 15,9 °C 8,0 km/h (2 Bft)
22.07.2018 18:17 16,0 °C 87 % 1012,5 hPa 0,0 mm 4,4 km/h (1 Bft) S-SW 200 ° 0 min 0,000 mm 0,5 UV-I 76 W/m² 13,8 °C 16,0 °C 8,0 km/h (2 Bft)
22.07.2018 18:18 16,0 °C 87 % 1012,5 hPa 0,0 mm 3,5 km/h (1 Bft) S-SW 200 ° 0 min 0,000 mm 0,5 UV-I 76 W/m² 13,8 °C 16,0 °C 4,8 km/h (1 Bft)
22.07.2018 18:19 16,0 °C 87 % 1012,5 hPa 0,0 mm 5,1 km/h (1 Bft) S-SW 192 ° 0 min 0,000 mm 0,5 UV-I 74 W/m² 13,8 °C 16,0 °C 8,0 km/h (2 Bft)
22.07.2018 18:20 16,1 °C 88 % 1012,5 hPa 0,0 mm 1,7 km/h (1 Bft) W-SW 252 ° 0 min 0,000 mm 0,5 UV-I 72 W/m² 14,1 °C 16,1 °C 4,8 km/h (1 Bft)
22.07.2018 18:21 16,1 °C 88 % 1012,5 hPa 0,0 mm 1,2 km/h (1 Bft) S-SW 206 ° 0 min 0,000 mm 0,5 UV-I 69 W/m² 14,1 °C 16,1 °C 3,2 km/h (1 Bft)
22.07.2018 18:22 16,1 °C 88 % 1012,5 hPa 0,0 mm 1,8 km/h (1 Bft) W-SW 252 ° 0 min 0,000 mm 0,5 UV-I 67 W/m² 14,1 °C 16,1 °C 4,8 km/h (1 Bft)
22.07.2018 18:23 16,1 °C 88 % 1012,5 hPa 0,0 mm 0,0 km/h (0 Bft) W-SW 252 ° 0 min 0,000 mm 0,5 UV-I 67 W/m² 14,1 °C 16,1 °C 0,0 km/h (0 Bft)
22.07.2018 18:24 16,1 °C 88 % 1012,5 hPa 0,0 mm 0,0 km/h (0 Bft) W-SW 252 ° 0 min 0,000 mm 0,5 UV-I 67 W/m² 14,1 °C 16,1 °C 0,0 km/h (0 Bft)
22.07.2018 18:25 16,1 °C 89 % 1012,5 hPa 0,0 mm 0,5 km/h (0 Bft) S-SW 202 ° 0 min 0,000 mm 0,5 UV-I 69 W/m² 14,3 °C 16,1 °C 6,4 km/h (2 Bft)
22.07.2018 18:26 16,1 °C 89 % 1012,5 hPa 0,0 mm 2,4 km/h (1 Bft) SW 219 ° 0 min 0,000 mm 0,5 UV-I 70 W/m² 14,3 °C 16,1 °C 6,4 km/h (2 Bft)
22.07.2018 18:27 16,0 °C 89 % 1012,5 hPa 0,0 mm 3,7 km/h (1 Bft) S-SW 207 ° 0 min 0,000 mm 0,6 UV-I 72 W/m² 14,2 °C 16,0 °C 4,8 km/h (1 Bft)
22.07.2018 18:28 16,0 °C 88 % 1012,5 hPa 0,0 mm 1,7 km/h (1 Bft) S-SW 207 ° 0 min 0,000 mm 0,6 UV-I 74 W/m² 14,0 °C 16,0 °C 4,8 km/h (1 Bft)
22.07.2018 18:29 16,0 °C 88 % 1012,5 hPa 0,0 mm 0,6 km/h (0 Bft) S-SW 207 ° 0 min 0,000 mm 0,6 UV-I 76 W/m² 14,0 °C 16,0 °C 4,8 km/h (1 Bft)
22.07.2018 18:30 16,0 °C 89 % 1012,5 hPa 0,0 mm 1,3 km/h (1 Bft) S-SW 207 ° 0 min 0,000 mm 0,6 UV-I 77 W/m² 14,2 °C 16,0 °C 3,2 km/h (1 Bft)
22.07.2018 18:31 16,0 °C 89 % 1012,5 hPa 0,0 mm 0,2 km/h (0 Bft) S-SW 207 ° 0 min 0,000 mm 0,6 UV-I 77 W/m² 14,2 °C 16,0 °C 1,6 km/h (1 Bft)
22.07.2018 18:32 16,1 °C 89 % 1012,5 hPa 0,0 mm 0,0 km/h (0 Bft) S-SW 207 ° 0 min 0,000 mm 0,6 UV-I 77 W/m² 14,3 °C 16,1 °C 0,0 km/h (0 Bft)
22.07.2018 18:33 16,0 °C 89 % 1012,5 hPa 0,0 mm 0,1 km/h (0 Bft) S-SW 207 ° 0 min 0,000 mm 0,6 UV-I 77 W/m² 14,2 °C 16,0 °C 1,6 km/h (1 Bft)
22.07.2018 18:34 16,1 °C 89 % 1012,5 hPa 0,0 mm 0,2 km/h (0 Bft) S-SW 207 ° 0 min 0,000 mm 0,6 UV-I 77 W/m² 14,3 °C 16,1 °C 1,6 km/h (1 Bft)
22.07.2018 18:35 16,0 °C 90 % 1012,5 hPa 0,0 mm 0,0 km/h (0 Bft) S-SW 207 ° 0 min 0,000 mm 0,6 UV-I 77 W/m² 14,4 °C 16,0 °C 0,0 km/h (0 Bft)
22.07.2018 18:36 16,0 °C 90 % 1012,5 hPa 0,0 mm 0,0 km/h (0 Bft) S-SW 207 ° 0 min 0,000 mm 0,6 UV-I 76 W/m² 14,4 °C 16,0 °C 0,0 km/h (0 Bft)
22.07.2018 18:37 15,9 °C 89 % 1012,5 hPa 0,0 mm 0,2 km/h (0 Bft) S-SW 207 ° 0 min 0,000 mm 0,6 UV-I 76 W/m² 14,1 °C 15,9 °C 1,6 km/h (1 Bft)
22.07.2018 18:38 15,9 °C 88 % 1012,5 hPa 0,0 mm 1,0 km/h (0 Bft) S-SW 207 ° 0 min 0,000 mm 0,6 UV-I 74 W/m² 13,9 °C 15,9 °C 3,2 km/h (1 Bft)
22.07.2018 18:39 16,0 °C 88 % 1012,5 hPa 0,0 mm 2,8 km/h (1 Bft) S 171 ° 0 min 0,000 mm 0,5 UV-I 74 W/m² 14,0 °C 16,0 °C 11,3 km/h (2 Bft)
22.07.2018 18:40 16,0 °C 88 % 1012,5 hPa 0,0 mm 4,6 km/h (1 Bft) S-SW 200 ° 0 min 0,000 mm 0,5 UV-I 76 W/m² 14,0 °C 16,0 °C 8,0 km/h (2 Bft)
22.07.2018 18:41 16,1 °C 87 % 1012,5 hPa 0,0 mm 0,1 km/h (0 Bft) S-SW 200 ° 0 min 0,000 mm 0,5 UV-I 77 W/m² 13,9 °C 16,1 °C 1,6 km/h (1 Bft)
22.07.2018 18:42 16,1 °C 87 % 1012,5 hPa 0,0 mm 0,0 km/h (0 Bft) S-SW 200 ° 0 min 0,000 mm 0,5 UV-I 79 W/m² 13,9 °C 16,1 °C 0,0 km/h (0 Bft)
22.07.2018 18:43 16,2 °C 87 % 1012,5 hPa 0,0 mm 3,4 km/h (1 Bft) S-SW 205 ° 0 min 0,000 mm 0,6 UV-I 83 W/m² 14,0 °C 16,2 °C 6,4 km/h (2 Bft)
22.07.2018 18:44 16,2 °C 87 % 1012,5 hPa 0,0 mm 1,8 km/h (1 Bft) S-SW 205 ° 0 min 0,000 mm 0,6 UV-I 84 W/m² 14,0 °C 16,2 °C 3,2 km/h (1 Bft)
22.07.2018 18:45 16,3 °C 87 % 1012,5 hPa 0,0 mm 2,0 km/h (1 Bft) S-SW 205 ° 0 min 0,000 mm 0,6 UV-I 88 W/m² 14,1 °C 16,3 °C 3,2 km/h (1 Bft)
22.07.2018 18:46 16,3 °C 87 % 1012,5 hPa 0,0 mm 1,5 km/h (1 Bft) S-SW 205 ° 0 min 0,000 mm 0,6 UV-I 91 W/m² 14,1 °C 16,3 °C 3,2 km/h (1 Bft)
22.07.2018 18:47 16,3 °C 87 % 1012,5 hPa 0,0 mm 0,0 km/h (0 Bft) S-SW 205 ° 0 min 0,000 mm 0,6 UV-I 93 W/m² 14,1 °C 16,3 °C 0,0 km/h (0 Bft)
22.07.2018 18:48 16,3 °C 87 % 1012,5 hPa 0,0 mm 0,0 km/h (0 Bft) S-SW 205 ° 0 min 0,000 mm 0,6 UV-I 97 W/m² 14,1 °C 16,3 °C 0,0 km/h (0 Bft)
22.07.2018 18:49 16,4 °C 87 % 1012,5 hPa 0,0 mm 0,0 km/h (0 Bft) S-SW 205 ° 0 min 0,000 mm 0,6 UV-I 100 W/m² 14,2 °C 16,4 °C 0,0 km/h (0 Bft)
22.07.2018 18:50 16,4 °C 88 % 1012,5 hPa 0,0 mm 0,3 km/h (0 Bft) S-SW 205 ° 0 min 0,000 mm 0,6 UV-I 102 W/m² 14,4 °C 16,4 °C 1,6 km/h (1 Bft)
22.07.2018 18:51 16,4 °C 88 % 1012,6 hPa 0,0 mm 0,2 km/h (0 Bft) S-SW 205 ° 0 min 0,000 mm 0,6 UV-I 104 W/m² 14,4 °C 16,4 °C 1,6 km/h (1 Bft)
22.07.2018 18:52 16,3 °C 88 % 1012,5 hPa 0,0 mm 0,2 km/h (0 Bft) S-SW 205 ° 0 min 0,000 mm 0,6 UV-I 104 W/m² 14,3 °C 16,3 °C 1,6 km/h (1 Bft)
22.07.2018 18:53 16,3 °C 88 % 1012,5 hPa 0,0 mm 0,0 km/h (0 Bft) S-SW 205 ° 0 min 0,000 mm 0,6 UV-I 104 W/m² 14,3 °C 16,3 °C 0,0 km/h (0 Bft)
22.07.2018 18:54 16,3 °C 88 % 1012,5 hPa 0,0 mm 0,0 km/h (0 Bft) S-SW 205 ° 0 min 0,000 mm 0,6 UV-I 104 W/m² 14,3 °C 16,3 °C 0,0 km/h (0 Bft)
22.07.2018 18:55 16,3 °C 88 % 1012,5 hPa 0,0 mm 0,0 km/h (0 Bft) S-SW 205 ° 0 min 0,000 mm 0,6 UV-I 102 W/m² 14,3 °C 16,3 °C 0,0 km/h (0 Bft)
22.07.2018 18:56 16,3 °C 88 % 1012,5 hPa 0,0 mm 0,0 km/h (0 Bft) S-SW 205 ° 0 min 0,000 mm 0,6 UV-I 102 W/m² 14,3 °C 16,3 °C 0,0 km/h (0 Bft)
22.07.2018 18:57 16,3 °C 89 % 1012,5 hPa 0,0 mm 0,0 km/h (0 Bft) S-SW 205 ° 0 min 0,000 mm 0,6 UV-I 98 W/m² 14,5 °C 16,3 °C 0,0 km/h (0 Bft)
22.07.2018 18:58 16,3 °C 89 % 1012,5 hPa 0,0 mm 0,6 km/h (0 Bft) S-SW 205 ° 0 min 0,000 mm 0,6 UV-I 97 W/m² 14,5 °C 16,3 °C 1,6 km/h (1 Bft)
22.07.2018 18:59 16,3 °C 88 % 1012,5 hPa 0,0 mm 0,0 km/h (0 Bft) S-SW 205 ° 0 min 0,000 mm 0,6 UV-I 93 W/m² 14,3 °C 16,3 °C 0,0 km/h (0 Bft)
22.07.2018 19:00 16,4 °C 88 % 1012,5 hPa 0,0 mm 0,0 km/h (0 Bft) S-SW 205 ° 0 min 0,000 mm 0,6 UV-I 91 W/m² 14,4 °C 16,4 °C 0,0 km/h (0 Bft)
22.07.2018 19:01 16,5 °C 88 % 1012,5 hPa 0,0 mm 0,0 km/h (0 Bft) S-SW 205 ° 0 min 0,051 mm 0,5 UV-I 88 W/m² 14,5 °C 16,5 °C 0,0 km/h (0 Bft)
22.07.2018 19:02 16,6 °C 88 % 1012,5 hPa 0,0 mm 0,0 km/h (0 Bft) S-SW 205 ° 0 min 0,000 mm 0,5 UV-I 83 W/m² 14,6 °C 16,6 °C 0,0 km/h (0 Bft)
22.07.2018 19:04 16,6 °C 88 % 1012,5 hPa 0,0 mm 0,0 km/h (0 Bft) S-SW 205 ° 0 min 0,000 mm 0,5 UV-I 74 W/m² 14,6 °C 16,6 °C 0,0 km/h (0 Bft)
22.07.2018 19:05 16,6 °C 87 % 1012,6 hPa 0,0 mm 0,0 km/h (0 Bft) S-SW 205 ° 0 min 0,000 mm 0,5 UV-I 72 W/m² 14,4 °C 16,6 °C 0,0 km/h (0 Bft)
22.07.2018 19:06 16,7 °C 88 % 1012,6 hPa 0,0 mm 0,0 km/h (0 Bft) S-SW 205 ° 0 min 0,000 mm 0,0 UV-I 70 W/m² 14,7 °C 16,7 °C 0,0 km/h (0 Bft)
22.07.2018 19:07 16,7 °C 88 % 1012,6 hPa 0,0 mm 0,0 km/h (0 Bft) S-SW 205 ° 0 min 0,000 mm 0,0 UV-I 69 W/m² 14,7 °C 16,7 °C 0,0 km/h (0 Bft)
22.07.2018 19:08 16,7 °C 87 % 1012,6 hPa 0,0 mm 0,0 km/h (0 Bft) S-SW 205 ° 0 min 0,000 mm 0,0 UV-I 65 W/m² 14,5 °C 16,7 °C 0,0 km/h (0 Bft)
22.07.2018 19:09 16,7 °C 87 % 1012,6 hPa 0,0 mm 0,0 km/h (0 Bft) S-SW 205 ° 0 min 0,000 mm 0,0 UV-I 63 W/m² 14,5 °C 16,7 °C 0,0 km/h (0 Bft)
22.07.2018 19:10 16,8 °C 87 % 1012,6 hPa 0,0 mm 0,0 km/h (0 Bft) S-SW 205 ° 0 min 0,000 mm 0,0 UV-I 62 W/m² 14,6 °C 16,8 °C 0,0 km/h (0 Bft)
22.07.2018 19:11 16,8 °C 87 % 1012,6 hPa 0,0 mm 0,0 km/h (0 Bft) S-SW 205 ° 0 min 0,000 mm 0,0 UV-I 60 W/m² 14,6 °C 16,8 °C 0,0 km/h (0 Bft)
22.07.2018 19:12 16,8 °C 87 % 1012,6 hPa 0,0 mm 0,0 km/h (0 Bft) S-SW 205 ° 0 min 0,000 mm 0,0 UV-I 56 W/m² 14,6 °C 16,8 °C 0,0 km/h (0 Bft)
22.07.2018 19:13 16,7 °C 87 % 1012,6 hPa 0,0 mm 0,0 km/h (0 Bft) S-SW 205 ° 0 min 0,000 mm 0,0 UV-I 54 W/m² 14,5 °C 16,7 °C 0,0 km/h (0 Bft)
22.07.2018 19:14 16,7 °C 87 % 1012,6 hPa 0,0 mm 0,0 km/h (0 Bft) S-SW 205 ° 0 min 0,000 mm 0,0 UV-I 47 W/m² 14,5 °C 16,7 °C 0,0 km/h (0 Bft)
22.07.2018 19:15 16,6 °C 86 % 1012,6 hPa 0,0 mm 0,0 km/h (0 Bft) S-SW 205 ° 0 min 0,000 mm 0,0 UV-I 44 W/m² 14,2 °C 16,6 °C 0,0 km/h (0 Bft)
22.07.2018 19:16 16,6 °C 86 % 1012,6 hPa 0,0 mm 0,0 km/h (0 Bft) S-SW 205 ° 0 min 0,000 mm 0,0 UV-I 42 W/m² 14,2 °C 16,6 °C 0,0 km/h (0 Bft)
22.07.2018 19:17 16,6 °C 86 % 1012,6 hPa 0,0 mm 0,0 km/h (0 Bft) S-SW 205 ° 0 min 0,000 mm 0,0 UV-I 39 W/m² 14,2 °C 16,6 °C 0,0 km/h (0 Bft)
22.07.2018 19:18 16,6 °C 86 % 1012,6 hPa 0,0 mm 0,0 km/h (0 Bft) S-SW 205 ° 0 min 0,000 mm 0,0 UV-I 35 W/m² 14,2 °C 16,6 °C 0,0 km/h (0 Bft)
22.07.2018 19:19 16,6 °C 87 % 1012,6 hPa 0,0 mm 0,0 km/h (0 Bft) S-SW 205 ° 0 min 0,000 mm 0,0 UV-I 35 W/m² 14,4 °C 16,6 °C 0,0 km/h (0 Bft)
22.07.2018 19:20 16,6 °C 87 % 1012,6 hPa 0,0 mm 0,0 km/h (0 Bft) S-SW 205 ° 0 min 0,000 mm 0,0 UV-I 30 W/m² 14,4 °C 16,6 °C 0,0 km/h (0 Bft)
22.07.2018 19:21 16,5 °C 86 % 1012,6 hPa 0,0 mm 1,5 km/h (1 Bft) S-SW 196 ° 0 min 0,000 mm 0,0 UV-I 28 W/m² 14,1 °C 16,5 °C 4,8 km/h (1 Bft)
22.07.2018 19:22 16,5 °C 86 % 1012,6 hPa 0,0 mm 0,0 km/h (0 Bft) S-SW 196 ° 0 min 0,000 mm 0,0 UV-I 28 W/m² 14,1 °C 16,5 °C 0,0 km/h (0 Bft)
22.07.2018 19:23 16,4 °C 86 % 1012,6 hPa 0,0 mm 1,1 km/h (1 Bft) S-SW 196 ° 0 min 0,000 mm 0,0 UV-I 28 W/m² 14,1 °C 16,4 °C 3,2 km/h (1 Bft)
22.07.2018 19:24 16,4 °C 86 % 1012,6 hPa 0,0 mm 0,2 km/h (0 Bft) S-SW 196 ° 0 min 0,000 mm 0,0 UV-I 28 W/m² 14,1 °C 16,4 °C 1,6 km/h (1 Bft)
22.07.2018 19:25 16,4 °C 87 % 1012,6 hPa 0,0 mm 2,3 km/h (1 Bft) S-SW 205 ° 0 min 0,000 mm 0,0 UV-I 26 W/m² 14,2 °C 16,4 °C 3,2 km/h (1 Bft)
22.07.2018 19:26 16,4 °C 86 % 1012,6 hPa 0,0 mm 1,9 km/h (1 Bft) W 259 ° 0 min 0,000 mm 0,0 UV-I 26 W/m² 14,1 °C 16,4 °C 4,8 km/h (1 Bft)
22.07.2018 19:27 16,4 °C 85 % 1012,6 hPa 0,0 mm 0,1 km/h (0 Bft) W 259 ° 0 min 0,000 mm 0,0 UV-I 26 W/m² 13,9 °C 16,4 °C 1,6 km/h (1 Bft)
22.07.2018 19:28 16,4 °C 85 % 1012,6 hPa 0,0 mm 1,9 km/h (1 Bft) W-SW 255 ° 0 min 0,000 mm 0,0 UV-I 25 W/m² 13,9 °C 16,4 °C 3,2 km/h (1 Bft)
22.07.2018 19:29 16,4 °C 85 % 1012,6 hPa 0,0 mm 0,4 km/h (0 Bft) W-SW 255 ° 0 min 0,000 mm 0,0 UV-I 25 W/m² 13,9 °C 16,4 °C 1,6 km/h (1 Bft)
22.07.2018 19:30 16,4 °C 85 % 1012,6 hPa 0,0 mm 0,0 km/h (0 Bft) W-SW 255 ° 0 min 0,000 mm 0,0 UV-I 23 W/m² 13,9 °C 16,4 °C 0,0 km/h (0 Bft)
22.07.2018 19:31 16,5 °C 85 % 1012,6 hPa 0,0 mm 1,2 km/h (1 Bft) W-SW 252 ° 0 min 0,000 mm 0,0 UV-I 21 W/m² 14,0 °C 16,5 °C 4,8 km/h (1 Bft)
22.07.2018 19:32 16,5 °C 86 % 1012,6 hPa 0,0 mm 1,9 km/h (1 Bft) W-SW 254 ° 0 min 0,000 mm 0,0 UV-I 19 W/m² 14,1 °C 16,5 °C 4,8 km/h (1 Bft)
22.07.2018 19:33 16,4 °C 86 % 1012,6 hPa 0,0 mm 4,7 km/h (1 Bft) W-SW 257 ° 0 min 0,000 mm 0,0 UV-I 18 W/m² 14,1 °C 16,4 °C 6,4 km/h (2 Bft)
22.07.2018 19:34 16,4 °C 87 % 1012,5 hPa 0,0 mm 0,6 km/h (0 Bft) W-SW 257 ° 0 min 0,000 mm 0,0 UV-I 18 W/m² 14,2 °C 16,4 °C 3,2 km/h (1 Bft)
22.07.2018 19:35 16,3 °C 88 % 1012,6 hPa 0,0 mm 0,9 km/h (0 Bft) W 261 ° 0 min 0,000 mm 0,0 UV-I 16 W/m² 14,3 °C 16,3 °C 6,4 km/h (2 Bft)
22.07.2018 19:36 16,3 °C 87 % 1012,6 hPa 0,0 mm 4,5 km/h (1 Bft) SW 230 ° 0 min 0,000 mm 0,0 UV-I 16 W/m² 14,1 °C 16,3 °C 6,4 km/h (2 Bft)
22.07.2018 19:37 16,2 °C 87 % 1012,6 hPa 0,0 mm 0,1 km/h (0 Bft) SW 230 ° 0 min 0,000 mm 0,0 UV-I 14 W/m² 14,0 °C 16,2 °C 1,6 km/h (1 Bft)
22.07.2018 19:38 16,2 °C 87 % 1012,5 hPa 0,0 mm 0,9 km/h (0 Bft) SW 230 ° 0 min 0,000 mm 0,0 UV-I 14 W/m² 14,0 °C 16,2 °C 3,2 km/h (1 Bft)
22.07.2018 19:39 16,2 °C 87 % 1012,7 hPa 0,0 mm 1,4 km/h (1 Bft) SW 230 ° 0 min 0,000 mm 0,0 UV-I 12 W/m² 14,0 °C 16,2 °C 3,2 km/h (1 Bft)
22.07.2018 19:40 16,2 °C 87 % 1012,6 hPa 0,0 mm 0,4 km/h (0 Bft) SW 230 ° 0 min 0,000 mm 0,0 UV-I 12 W/m² 14,0 °C 16,2 °C 1,6 km/h (1 Bft)
22.07.2018 19:41 16,1 °C 87 % 1012,6 hPa 0,0 mm 0,0 km/h (0 Bft) SW 230 ° 0 min 0,000 mm 0,0 UV-I 12 W/m² 13,9 °C 16,1 °C 0,0 km/h (0 Bft)
22.07.2018 19:42 16,1 °C 88 % 1012,7 hPa 0,0 mm 0,0 km/h (0 Bft) SW 230 ° 0 min 0,000 mm 0,0 UV-I 11 W/m² 14,1 °C 16,1 °C 0,0 km/h (0 Bft)
22.07.2018 19:43 16,1 °C 87 % 1012,6 hPa 0,0 mm 1,8 km/h (1 Bft) SW 230 ° 0 min 0,000 mm 0,0 UV-I 11 W/m² 13,9 °C 16,1 °C 4,8 km/h (1 Bft)
22.07.2018 19:44 16,1 °C 87 % 1012,6 hPa 0,0 mm 0,2 km/h (0 Bft) SW 230 ° 0 min 0,000 mm 0,0 UV-I 11 W/m² 13,9 °C 16,1 °C 3,2 km/h (1 Bft)
22.07.2018 19:45 16,1 °C 86 % 1012,6 hPa 0,0 mm 0,2 km/h (0 Bft) SW 230 ° 0 min 0,000 mm 0,0 UV-I 11 W/m² 13,8 °C 16,1 °C 1,6 km/h (1 Bft)
22.07.2018 19:46 16,1 °C 86 % 1012,6 hPa 0,0 mm 0,5 km/h (0 Bft) W-SW 256 ° 0 min 0,000 mm 0,0 UV-I 11 W/m² 13,8 °C 16,1 °C 1,6 km/h (1 Bft)
22.07.2018 19:47 16,1 °C 86 % 1012,6 hPa 0,0 mm 2,5 km/h (1 Bft) SW 221 ° 0 min 0,000 mm 0,0 UV-I 11 W/m² 13,8 °C 16,1 °C 4,8 km/h (1 Bft)
22.07.2018 19:48 16,1 °C 87 % 1012,6 hPa 0,0 mm 0,5 km/h (0 Bft) SW 221 ° 0 min 0,000 mm 0,0 UV-I 11 W/m² 13,9 °C 16,1 °C 1,6 km/h (1 Bft)
22.07.2018 19:49 16,1 °C 88 % 1012,6 hPa 0,0 mm 0,4 km/h (0 Bft) SW 221 ° 0 min 0,000 mm 0,0 UV-I 11 W/m² 14,1 °C 16,1 °C 1,6 km/h (1 Bft)
22.07.2018 19:50 16,0 °C 87 % 1012,7 hPa 0,0 mm 0,0 km/h (0 Bft) SW 221 ° 0 min 0,000 mm 0,0 UV-I 11 W/m² 13,8 °C 16,0 °C 0,0 km/h (0 Bft)
22.07.2018 19:51 16,0 °C 88 % 1012,7 hPa 0,0 mm 0,0 km/h (0 Bft) SW 221 ° 0 min 0,000 mm 0,0 UV-I 11 W/m² 14,0 °C 16,0 °C 0,0 km/h (0 Bft)
22.07.2018 19:52 15,9 °C 88 % 1012,6 hPa 0,0 mm 0,0 km/h (0 Bft) SW 221 ° 0 min 0,000 mm 0,0 UV-I 11 W/m² 13,9 °C 15,9 °C 0,0 km/h (0 Bft)
22.07.2018 19:53 15,9 °C 88 % 1012,6 hPa 0,0 mm 0,0 km/h (0 Bft) SW 221 ° 0 min 0,000 mm 0,0 UV-I 11 W/m² 13,9 °C 15,9 °C 0,0 km/h (0 Bft)
22.07.2018 19:54 15,8 °C 89 % 1012,6 hPa 0,0 mm 0,0 km/h (0 Bft) SW 221 ° 0 min 0,000 mm 0,0 UV-I 11 W/m² 14,0 °C 15,8 °C 0,0 km/h (0 Bft)
22.07.2018 19:55 15,8 °C 89 % 1012,6 hPa 0,0 mm 0,0 km/h (0 Bft) SW 221 ° 0 min 0,000 mm 0,0 UV-I 11 W/m² 14,0 °C 15,8 °C 0,0 km/h (0 Bft)
22.07.2018 19:56 15,7 °C 89 % 1012,7 hPa 0,0 mm 0,0 km/h (0 Bft) SW 221 ° 0 min 0,000 mm 0,0 UV-I 11 W/m² 13,9 °C 15,7 °C 0,0 km/h (0 Bft)
22.07.2018 19:57 15,7 °C 89 % 1012,6 hPa 0,0 mm 0,0 km/h (0 Bft) SW 221 ° 0 min 0,000 mm 0,0 UV-I 12 W/m² 13,9 °C 15,7 °C 0,0 km/h (0 Bft)
22.07.2018 19:58 15,6 °C 89 % 1012,6 hPa 0,0 mm 0,0 km/h (0 Bft) SW 221 ° 0 min 0,000 mm 0,0 UV-I 12 W/m² 13,8 °C 15,6 °C 0,0 km/h (0 Bft)
22.07.2018 19:59 15,6 °C 89 % 1012,6 hPa 0,0 mm 0,0 km/h (0 Bft) SW 221 ° 0 min 0,000 mm 0,0 UV-I 12 W/m² 13,8 °C 15,6 °C 0,0 km/h (0 Bft)
22.07.2018 20:00 15,6 °C 90 % 1012,6 hPa 0,0 mm 0,0 km/h (0 Bft) SW 221 ° 0 min 0,000 mm 0,0 UV-I 14 W/m² 14,0 °C 15,6 °C 0,0 km/h (0 Bft)
22.07.2018 20:01 15,6 °C 89 % 1012,7 hPa 0,0 mm 0,0 km/h (0 Bft) SW 221 ° 0 min 0,025 mm 0,0 UV-I 14 W/m² 13,8 °C 15,6 °C 0,0 km/h (0 Bft)
22.07.2018 20:02 15,6 °C 89 % 1012,7 hPa 0,0 mm 0,0 km/h (0 Bft) SW 221 ° 0 min 0,000 mm 0,0 UV-I 16 W/m² 13,8 °C 15,6 °C 0,0 km/h (0 Bft)
22.07.2018 20:03 15,6 °C 90 % 1012,7 hPa 0,0 mm 0,0 km/h (0 Bft) SW 221 ° 0 min 0,000 mm 0,0 UV-I 16 W/m² 14,0 °C 15,6 °C 0,0 km/h (0 Bft)
22.07.2018 20:04 15,6 °C 90 % 1012,7 hPa 0,0 mm 0,0 km/h (0 Bft) SW 221 ° 0 min 0,000 mm 0,0 UV-I 16 W/m² 14,0 °C 15,6 °C 0,0 km/h (0 Bft)
22.07.2018 20:05 15,6 °C 90 % 1012,7 hPa 0,0 mm 0,0 km/h (0 Bft) SW 221 ° 0 min 0,000 mm 0,0 UV-I 16 W/m² 14,0 °C 15,6 °C 0,0 km/h (0 Bft)
22.07.2018 20:06 15,6 °C 90 % 1012,7 hPa 0,0 mm 0,0 km/h (0 Bft) SW 221 ° 0 min 0,000 mm 0,0 UV-I 16 W/m² 14,0 °C 15,6 °C 0,0 km/h (0 Bft)
22.07.2018 20:07 15,6 °C 90 % 1012,7 hPa 0,0 mm 0,0 km/h (0 Bft) SW 221 ° 0 min 0,000 mm 0,0 UV-I 16 W/m² 14,0 °C 15,6 °C 0,0 km/h (0 Bft)
22.07.2018 20:08 15,6 °C 90 % 1012,7 hPa 0,0 mm 0,0 km/h (0 Bft) SW 221 ° 0 min 0,000 mm 0,0 UV-I 16 W/m² 14,0 °C 15,6 °C 0,0 km/h (0 Bft)
22.07.2018 20:09 15,6 °C 90 % 1012,8 hPa 0,0 mm 0,0 km/h (0 Bft) SW 221 ° 0 min 0,000 mm 0,0 UV-I 16 W/m² 14,0 °C 15,6 °C 0,0 km/h (0 Bft)
22.07.2018 20:10 15,6 °C 90 % 1012,8 hPa 0,0 mm 0,0 km/h (0 Bft) SW 221 ° 0 min 0,000 mm 0,0 UV-I 16 W/m² 14,0 °C 15,6 °C 0,0 km/h (0 Bft)
22.07.2018 20:11 15,6 °C 90 % 1012,8 hPa 0,0 mm 0,0 km/h (0 Bft) SW 221 ° 0 min 0,000 mm 0,0 UV-I 16 W/m² 14,0 °C 15,6 °C 0,0 km/h (0 Bft)
22.07.2018 20:12 15,6 °C 90 % 1012,8 hPa 0,0 mm 0,0 km/h (0 Bft) SW 221 ° 0 min 0,000 mm 0,0 UV-I 16 W/m² 14,0 °C 15,6 °C 0,0 km/h (0 Bft)
22.07.2018 20:13 15,6 °C 90 % 1012,8 hPa 0,0 mm 0,0 km/h (0 Bft) SW 221 ° 0 min 0,000 mm 0,0 UV-I 14 W/m² 14,0 °C 15,6 °C 0,0 km/h (0 Bft)
22.07.2018 20:14 15,6 °C 90 % 1012,8 hPa 0,0 mm 0,0 km/h (0 Bft) SW 221 ° 0 min 0,000 mm 0,0 UV-I 14 W/m² 14,0 °C 15,6 °C 0,0 km/h (0 Bft)
22.07.2018 20:15 15,6 °C 90 % 1012,9 hPa 0,0 mm 0,0 km/h (0 Bft) SW 221 ° 0 min 0,000 mm 0,0 UV-I 14 W/m² 14,0 °C 15,6 °C 0,0 km/h (0 Bft)
22.07.2018 20:16 15,5 °C 90 % 1012,8 hPa 0,0 mm 0,0 km/h (0 Bft) SW 221 ° 0 min 0,000 mm 0,0 UV-I 12 W/m² 13,9 °C 15,5 °C 0,0 km/h (0 Bft)
22.07.2018 20:17 15,4 °C 90 % 1012,9 hPa 0,0 mm 0,0 km/h (0 Bft) SW 221 ° 0 min 0,000 mm 0,0 UV-I 12 W/m² 13,8 °C 15,4 °C 0,0 km/h (0 Bft)
22.07.2018 20:18 15,4 °C 90 % 1012,9 hPa 0,0 mm 0,0 km/h (0 Bft) SW 221 ° 0 min 0,000 mm 0,0 UV-I 12 W/m² 13,8 °C 15,4 °C 0,0 km/h (0 Bft)
22.07.2018 20:19 15,4 °C 90 % 1012,9 hPa 0,0 mm 0,0 km/h (0 Bft) SW 221 ° 0 min 0,000 mm 0,0 UV-I 11 W/m² 13,8 °C 15,4 °C 0,0 km/h (0 Bft)
22.07.2018 20:20 15,4 °C 90 % 1012,9 hPa 0,0 mm 0,0 km/h (0 Bft) SW 221 ° 0 min 0,000 mm 0,0 UV-I 11 W/m² 13,8 °C 15,4 °C 0,0 km/h (0 Bft)
22.07.2018 20:21 15,4 °C 90 % 1012,9 hPa 0,0 mm 0,0 km/h (0 Bft) SW 221 ° 0 min 0,000 mm 0,0 UV-I 9 W/m² 13,8 °C 15,4 °C 0,0 km/h (0 Bft)
22.07.2018 20:22 15,4 °C 90 % 1012,9 hPa 0,2 mm 0,2 km/h (0 Bft) SW 221 ° 0 min 0,000 mm 0,0 UV-I 9 W/m² 13,8 °C 15,4 °C 1,6 km/h (1 Bft)
22.07.2018 20:23 15,3 °C 91 % 1013,0 hPa 0,0 mm 0,0 km/h (0 Bft) SW 221 ° 0 min 0,000 mm 0,0 UV-I 9 W/m² 13,8 °C 15,3 °C 0,0 km/h (0 Bft)
22.07.2018 20:24 15,3 °C 91 % 1013,0 hPa 0,0 mm 0,0 km/h (0 Bft) SW 221 ° 0 min 0,000 mm 0,0 UV-I 9 W/m² 13,8 °C 15,3 °C 0,0 km/h (0 Bft)
22.07.2018 20:25 15,3 °C 91 % 1012,9 hPa 0,0 mm 0,0 km/h (0 Bft) SW 221 ° 0 min 0,000 mm 0,0 UV-I 9 W/m² 13,8 °C 15,3 °C 0,0 km/h (0 Bft)
22.07.2018 20:26 15,2 °C 91 % 1012,9 hPa 0,0 mm 0,0 km/h (0 Bft) SW 221 ° 0 min 0,000 mm 0,0 UV-I 9 W/m² 13,7 °C 15,2 °C 0,0 km/h (0 Bft)
22.07.2018 20:27 15,2 °C 91 % 1012,9 hPa 0,0 mm 0,2 km/h (0 Bft) SW 221 ° 0 min 0,000 mm 0,0 UV-I 9 W/m² 13,7 °C 15,2 °C 1,6 km/h (1 Bft)
22.07.2018 20:28 15,1 °C 91 % 1012,9 hPa 0,0 mm 0,0 km/h (0 Bft) SW 221 ° 0 min 0,000 mm 0,0 UV-I 7 W/m² 13,6 °C 15,1 °C 0,0 km/h (0 Bft)
22.07.2018 20:29 15,1 °C 91 % 1013,0 hPa 0,0 mm 0,0 km/h (0 Bft) SW 221 ° 0 min 0,000 mm 0,0 UV-I 7 W/m² 13,6 °C 15,1 °C 0,0 km/h (0 Bft)
22.07.2018 20:30 15,1 °C 91 % 1013,0 hPa 0,0 mm 0,0 km/h (0 Bft) SW 221 ° 0 min 0,000 mm 0,0 UV-I 7 W/m² 13,6 °C 15,1 °C 0,0 km/h (0 Bft)
22.07.2018 20:31 15,0 °C 91 % 1013,0 hPa 0,0 mm 0,0 km/h (0 Bft) SW 221 ° 0 min 0,000 mm 0,0 UV-I 7 W/m² 13,5 °C 15,0 °C 0,0 km/h (0 Bft)
22.07.2018 20:32 14,9 °C 91 % 1013,0 hPa 0,0 mm 0,0 km/h (0 Bft) SW 221 ° 0 min 0,000 mm 0,0 UV-I 7 W/m² 13,4 °C 14,9 °C 0,0 km/h (0 Bft)
22.07.2018 20:33 14,9 °C 91 % 1013,1 hPa 0,0 mm 0,0 km/h (0 Bft) SW 221 ° 0 min 0,000 mm 0,0 UV-I 7 W/m² 13,4 °C 14,9 °C 0,0 km/h (0 Bft)
22.07.2018 20:34 14,9 °C 92 % 1013,1 hPa 0,0 mm 0,0 km/h (0 Bft) SW 221 ° 0 min 0,000 mm 0,0 UV-I 7 W/m² 13,6 °C 14,9 °C 0,0 km/h (0 Bft)
22.07.2018 20:35 14,9 °C 92 % 1013,0 hPa 0,0 mm 0,0 km/h (0 Bft) SW 221 ° 0 min 0,000 mm 0,0 UV-I 7 W/m² 13,6 °C 14,9 °C 0,0 km/h (0 Bft)
22.07.2018 20:36 14,9 °C 92 % 1013,1 hPa 0,0 mm 0,0 km/h (0 Bft) SW 221 ° 0 min 0,000 mm 0,0 UV-I 5 W/m² 13,6 °C 14,9 °C 0,0 km/h (0 Bft)
22.07.2018 20:37 14,8 °C 92 % 1013,1 hPa 0,0 mm 0,0 km/h (0 Bft) SW 221 ° 0 min 0,000 mm 0,0 UV-I 5 W/m² 13,5 °C 14,8 °C 0,0 km/h (0 Bft)
22.07.2018 20:38 14,8 °C 92 % 1013,1 hPa 0,0 mm 0,0 km/h (0 Bft) SW 221 ° 0 min 0,000 mm 0,0 UV-I 5 W/m² 13,5 °C 14,8 °C 0,0 km/h (0 Bft)
22.07.2018 20:39 14,8 °C 92 % 1013,1 hPa 0,0 mm 0,0 km/h (0 Bft) SW 221 ° 0 min 0,000 mm 0,0 UV-I 5 W/m² 13,5 °C 14,8 °C 0,0 km/h (0 Bft)
22.07.2018 20:40 14,8 °C 92 % 1013,1 hPa 0,0 mm 0,0 km/h (0 Bft) SW 221 ° 0 min 0,000 mm 0,0 UV-I 5 W/m² 13,5 °C 14,8 °C 0,0 km/h (0 Bft)
22.07.2018 20:41 14,8 °C 92 % 1013,1 hPa 0,0 mm 0,0 km/h (0 Bft) SW 221 ° 0 min 0,000 mm 0,0 UV-I 5 W/m² 13,5 °C 14,8 °C 0,0 km/h (0 Bft)
22.07.2018 20:42 14,8 °C 92 % 1013,1 hPa 0,0 mm 0,0 km/h (0 Bft) SW 221 ° 0 min 0,000 mm 0,0 UV-I 5 W/m² 13,5 °C 14,8 °C 0,0 km/h (0 Bft)
22.07.2018 20:43 14,8 °C 92 % 1013,1 hPa 0,0 mm 0,0 km/h (0 Bft) SW 221 ° 0 min 0,000 mm 0,0 UV-I 5 W/m² 13,5 °C 14,8 °C 0,0 km/h (0 Bft)
22.07.2018 20:44 14,8 °C 92 % 1013,1 hPa 0,0 mm 0,0 km/h (0 Bft) SW 221 ° 0 min 0,000 mm 0,0 UV-I 5 W/m² 13,5 °C 14,8 °C 0,0 km/h (0 Bft)
22.07.2018 20:45 14,8 °C 92 % 1013,1 hPa 0,0 mm 0,0 km/h (0 Bft) SW 221 ° 0 min 0,000 mm 0,0 UV-I 0 W/m² 13,5 °C 14,8 °C 0,0 km/h (0 Bft)
22.07.2018 20:46 14,7 °C 92 % 1013,1 hPa 0,0 mm 0,2 km/h (0 Bft) SW 221 ° 0 min 0,000 mm 0,0 UV-I 0 W/m² 13,4 °C 14,7 °C 1,6 km/h (1 Bft)
22.07.2018 20:47 14,7 °C 92 % 1013,1 hPa 0,0 mm 0,0 km/h (0 Bft) SW 221 ° 0 min 0,000 mm 0,0 UV-I 0 W/m² 13,4 °C 14,7 °C 0,0 km/h (0 Bft)
22.07.2018 20:48 14,7 °C 92 % 1013,1 hPa 0,0 mm 0,0 km/h (0 Bft) SW 221 ° 0 min 0,000 mm 0,0 UV-I 0 W/m² 13,4 °C 14,7 °C 0,0 km/h (0 Bft)
22.07.2018 20:49 14,7 °C 92 % 1013,1 hPa 0,0 mm 0,0 km/h (0 Bft) SW 221 ° 0 min 0,000 mm 0,0 UV-I 0 W/m² 13,4 °C 14,7 °C 0,0 km/h (0 Bft)
22.07.2018 20:50 14,7 °C 92 % 1013,2 hPa 0,0 mm 0,0 km/h (0 Bft) SW 221 ° 0 min 0,000 mm 0,0 UV-I 0 W/m² 13,4 °C 14,7 °C 0,0 km/h (0 Bft)
22.07.2018 20:51 14,7 °C 92 % 1013,2 hPa 0,0 mm 0,0 km/h (0 Bft) SW 221 ° 0 min 0,000 mm 0,0 UV-I 0 W/m² 13,4 °C 14,7 °C 0,0 km/h (0 Bft)
22.07.2018 20:52 14,6 °C 92 % 1013,2 hPa 0,0 mm 0,0 km/h (0 Bft) SW 221 ° 0 min 0,000 mm 0,0 UV-I 0 W/m² 13,3 °C 14,6 °C 0,0 km/h (0 Bft)
22.07.2018 20:53 14,6 °C 92 % 1013,2 hPa 0,0 mm 0,0 km/h (0 Bft) SW 221 ° 0 min 0,000 mm 0,0 UV-I 0 W/m² 13,3 °C 14,6 °C 0,0 km/h (0 Bft)
22.07.2018 20:54 14,6 °C 92 % 1013,2 hPa 0,0 mm 0,0 km/h (0 Bft) SW 221 ° 0 min 0,000 mm 0,0 UV-I 0 W/m² 13,3 °C 14,6 °C 0,0 km/h (0 Bft)
22.07.2018 20:55 14,6 °C 92 % 1013,2 hPa 0,0 mm 0,3 km/h (0 Bft) SW 221 ° 0 min 0,000 mm 0,0 UV-I 0 W/m² 13,3 °C 14,6 °C 1,6 km/h (1 Bft)
22.07.2018 20:56 14,6 °C 92 % 1013,2 hPa 0,0 mm 1,4 km/h (1 Bft) SW 221 ° 0 min 0,000 mm 0,0 UV-I 0 W/m² 13,3 °C 14,6 °C 1,6 km/h (1 Bft)
22.07.2018 20:57 14,6 °C 92 % 1013,2 hPa 0,0 mm 0,6 km/h (0 Bft) SW 221 ° 0 min 0,000 mm 0,0 UV-I 0 W/m² 13,3 °C 14,6 °C 1,6 km/h (1 Bft)
22.07.2018 20:58 14,6 °C 92 % 1013,1 hPa 0,0 mm 1,1 km/h (1 Bft) SW 221 ° 0 min 0,000 mm 0,0 UV-I 0 W/m² 13,3 °C 14,6 °C 1,6 km/h (1 Bft)
22.07.2018 20:59 14,6 °C 92 % 1013,2 hPa 0,0 mm 0,7 km/h (0 Bft) SW 221 ° 0 min 0,000 mm 0,0 UV-I 0 W/m² 13,3 °C 14,6 °C 1,6 km/h (1 Bft)
22.07.2018 21:00 14,6 °C 93 % 1013,1 hPa 0,0 mm 0,0 km/h (0 Bft) SW 221 ° 0 min 0,000 mm 0,0 UV-I 0 W/m² 13,5 °C 14,6 °C 0,0 km/h (0 Bft)
22.07.2018 21:01 14,5 °C 92 % 1013,2 hPa 0,0 mm 0,0 km/h (0 Bft) SW 221 ° 0 min 0,000 mm 0,0 UV-I 0 W/m² 13,2 °C 14,5 °C 0,0 km/h (0 Bft)
22.07.2018 21:02 14,5 °C 92 % 1013,1 hPa 0,0 mm 0,0 km/h (0 Bft) SW 221 ° 0 min 0,000 mm 0,0 UV-I 0 W/m² 13,2 °C 14,5 °C 0,0 km/h (0 Bft)
22.07.2018 21:03 14,5 °C 92 % 1013,1 hPa 0,0 mm 0,1 km/h (0 Bft) SW 221 ° 0 min 0,000 mm 0,0 UV-I 0 W/m² 13,2 °C 14,5 °C 1,6 km/h (1 Bft)
22.07.2018 21:04 14,5 °C 93 % 1013,2 hPa 0,0 mm 1,1 km/h (1 Bft) SW 221 ° 0 min 0,000 mm 0,0 UV-I 0 W/m² 13,4 °C 14,5 °C 3,2 km/h (1 Bft)
22.07.2018 21:05 14,4 °C 93 % 1013,2 hPa 0,0 mm 1,2 km/h (1 Bft) SW 221 ° 0 min 0,000 mm 0,0 UV-I 0 W/m² 13,3 °C 14,4 °C 3,2 km/h (1 Bft)
22.07.2018 21:06 14,4 °C 93 % 1013,2 hPa 0,0 mm 0,0 km/h (0 Bft) SW 221 ° 0 min 0,000 mm 0,0 UV-I 0 W/m² 13,3 °C 14,4 °C 0,0 km/h (0 Bft)
22.07.2018 21:07 14,4 °C 93 % 1013,2 hPa 0,0 mm 0,5 km/h (0 Bft) SW 221 ° 0 min 0,000 mm 0,0 UV-I 0 W/m² 13,3 °C 14,4 °C 3,2 km/h (1 Bft)
22.07.2018 21:08 14,5 °C 92 % 1013,2 hPa 0,0 mm 2,5 km/h (1 Bft) SW 221 ° 0 min 0,000 mm 0,0 UV-I 0 W/m² 13,2 °C 14,5 °C 3,2 km/h (1 Bft)
22.07.2018 21:09 14,5 °C 92 % 1013,2 hPa 0,0 mm 1,3 km/h (1 Bft) SW 221 ° 0 min 0,000 mm 0,0 UV-I 0 W/m² 13,2 °C 14,5 °C 3,2 km/h (1 Bft)
22.07.2018 21:10 14,6 °C 92 % 1013,2 hPa 0,0 mm 1,8 km/h (1 Bft) SW 221 ° 0 min 0,000 mm 0,0 UV-I 0 W/m² 13,3 °C 14,6 °C 3,2 km/h (1 Bft)
22.07.2018 21:11 14,6 °C 92 % 1013,2 hPa 0,0 mm 0,0 km/h (0 Bft) SW 221 ° 0 min 0,000 mm 0,0 UV-I 0 W/m² 13,3 °C 14,6 °C 0,0 km/h (0 Bft)
22.07.2018 21:12 14,6 °C 92 % 1013,2 hPa 0,0 mm 0,3 km/h (0 Bft) SW 221 ° 0 min 0,000 mm 0,0 UV-I 0 W/m² 13,3 °C 14,6 °C 1,6 km/h (1 Bft)
22.07.2018 21:13 14,6 °C 92 % 1013,2 hPa 0,0 mm 0,2 km/h (0 Bft) SW 221 ° 0 min 0,000 mm 0,0 UV-I 0 W/m² 13,3 °C 14,6 °C 1,6 km/h (1 Bft)
22.07.2018 21:14 14,6 °C 92 % 1013,2 hPa 0,0 mm 0,4 km/h (0 Bft) SW 221 ° 0 min 0,000 mm 0,0 UV-I 0 W/m² 13,3 °C 14,6 °C 1,6 km/h (1 Bft)
22.07.2018 21:15 14,6 °C 92 % 1013,2 hPa 0,0 mm 0,0 km/h (0 Bft) SW 221 ° 0 min 0,000 mm 0,0 UV-I 0 W/m² 13,3 °C 14,6 °C 0,0 km/h (0 Bft)
22.07.2018 21:16 14,6 °C 92 % 1013,2 hPa 0,0 mm 0,1 km/h (0 Bft) SW 221 ° 0 min 0,000 mm 0,0 UV-I 0 W/m² 13,3 °C 14,6 °C 1,6 km/h (1 Bft)
22.07.2018 21:17 14,6 °C 92 % 1013,2 hPa 0,0 mm 0,0 km/h (0 Bft) SW 221 ° 0 min 0,000 mm 0,0 UV-I 0 W/m² 13,3 °C 14,6 °C 0,0 km/h (0 Bft)
22.07.2018 21:18 14,5 °C 92 % 1013,3 hPa 0,0 mm 0,0 km/h (0 Bft) SW 221 ° 0 min 0,000 mm 0,0 UV-I 0 W/m² 13,2 °C 14,5 °C 0,0 km/h (0 Bft)
22.07.2018 21:19 14,5 °C 92 % 1013,3 hPa 0,0 mm 0,0 km/h (0 Bft) SW 221 ° 0 min 0,000 mm 0,0 UV-I 0 W/m² 13,2 °C 14,5 °C 0,0 km/h (0 Bft)
22.07.2018 21:20 14,4 °C 93 % 1013,3 hPa 0,0 mm 0,0 km/h (0 Bft) SW 221 ° 0 min 0,000 mm 0,0 UV-I 0 W/m² 13,3 °C 14,4 °C 0,0 km/h (0 Bft)
22.07.2018 21:21 14,5 °C 93 % 1013,3 hPa 0,0 mm 0,0 km/h (0 Bft) SW 221 ° 0 min 0,000 mm 0,0 UV-I 0 W/m² 13,4 °C 14,5 °C 0,0 km/h (0 Bft)
22.07.2018 21:22 14,4 °C 93 % 1013,3 hPa 0,0 mm 0,0 km/h (0 Bft) SW 221 ° 0 min 0,000 mm 0,0 UV-I 0 W/m² 13,3 °C 14,4 °C 0,0 km/h (0 Bft)
22.07.2018 21:23 14,4 °C 93 % 1013,3 hPa 0,0 mm 0,0 km/h (0 Bft) SW 221 ° 0 min 0,000 mm 0,0 UV-I 0 W/m² 13,3 °C 14,4 °C 0,0 km/h (0 Bft)
22.07.2018 21:24 14,4 °C 93 % 1013,3 hPa 0,0 mm 0,0 km/h (0 Bft) SW 221 ° 0 min 0,000 mm 0,0 UV-I 0 W/m² 13,3 °C 14,4 °C 0,0 km/h (0 Bft)
22.07.2018 21:25 14,4 °C 93 % 1013,3 hPa 0,0 mm 0,0 km/h (0 Bft) SW 221 ° 0 min 0,000 mm 0,0 UV-I 0 W/m² 13,3 °C 14,4 °C 0,0 km/h (0 Bft)
22.07.2018 21:26 14,5 °C 93 % 1013,3 hPa 0,2 mm 0,0 km/h (0 Bft) SW 221 ° 0 min 0,000 mm 0,0 UV-I 0 W/m² 13,4 °C 14,5 °C 0,0 km/h (0 Bft)
22.07.2018 21:27 14,4 °C 93 % 1013,4 hPa 0,0 mm 0,0 km/h (0 Bft) SW 221 ° 0 min 0,000 mm 0,0 UV-I 0 W/m² 13,3 °C 14,4 °C 0,0 km/h (0 Bft)
22.07.2018 21:28 14,4 °C 93 % 1013,4 hPa 0,0 mm 0,0 km/h (0 Bft) SW 221 ° 0 min 0,000 mm 0,0 UV-I 0 W/m² 13,3 °C 14,4 °C 0,0 km/h (0 Bft)
22.07.2018 21:29 14,4 °C 93 % 1013,3 hPa 0,0 mm 0,0 km/h (0 Bft) SW 221 ° 0 min 0,000 mm 0,0 UV-I 0 W/m² 13,3 °C 14,4 °C 0,0 km/h (0 Bft)
22.07.2018 21:30 14,4 °C 93 % 1013,4 hPa 0,0 mm 0,0 km/h (0 Bft) SW 221 ° 0 min 0,000 mm 0,0 UV-I 0 W/m² 13,3 °C 14,4 °C 0,0 km/h (0 Bft)
22.07.2018 21:31 14,4 °C 93 % 1013,3 hPa 0,0 mm 0,0 km/h (0 Bft) SW 221 ° 0 min 0,000 mm 0,0 UV-I 0 W/m² 13,3 °C 14,4 °C 0,0 km/h (0 Bft)
22.07.2018 21:32 14,4 °C 93 % 1013,4 hPa 0,0 mm 0,0 km/h (0 Bft) SW 221 ° 0 min 0,000 mm 0,0 UV-I 0 W/m² 13,3 °C 14,4 °C 0,0 km/h (0 Bft)
22.07.2018 21:33 14,4 °C 93 % 1013,4 hPa 0,0 mm 0,0 km/h (0 Bft) SW 221 ° 0 min 0,000 mm 0,0 UV-I 0 W/m² 13,3 °C 14,4 °C 0,0 km/h (0 Bft)
22.07.2018 21:34 14,5 °C 93 % 1013,4 hPa 0,0 mm 0,0 km/h (0 Bft) SW 221 ° 0 min 0,000 mm 0,0 UV-I 0 W/m² 13,4 °C 14,5 °C 0,0 km/h (0 Bft)
22.07.2018 21:35 14,4 °C 93 % 1013,5 hPa 0,0 mm 0,0 km/h (0 Bft) SW 221 ° 0 min 0,000 mm 0,0 UV-I 0 W/m² 13,3 °C 14,4 °C 0,0 km/h (0 Bft)
22.07.2018 21:36 14,4 °C 93 % 1013,4 hPa 0,0 mm 0,0 km/h (0 Bft) SW 221 ° 0 min 0,000 mm 0,0 UV-I 0 W/m² 13,3 °C 14,4 °C 0,0 km/h (0 Bft)
22.07.2018 21:37 14,4 °C 93 % 1013,5 hPa 0,2 mm 0,0 km/h (0 Bft) SW 221 ° 0 min 0,000 mm 0,0 UV-I 0 W/m² 13,3 °C 14,4 °C 0,0 km/h (0 Bft)
22.07.2018 21:38 14,4 °C 93 % 1013,5 hPa 0,0 mm 0,0 km/h (0 Bft) SW 221 ° 0 min 0,000 mm 0,0 UV-I 0 W/m² 13,3 °C 14,4 °C 0,0 km/h (0 Bft)
22.07.2018 21:39 14,4 °C 93 % 1013,5 hPa 0,0 mm 0,0 km/h (0 Bft) SW 221 ° 0 min 0,000 mm 0,0 UV-I 0 W/m² 13,3 °C 14,4 °C 0,0 km/h (0 Bft)
22.07.2018 21:40 14,3 °C 93 % 1013,5 hPa 0,0 mm 0,0 km/h (0 Bft) SW 221 ° 0 min 0,000 mm 0,0 UV-I 0 W/m² 13,2 °C 14,3 °C 0,0 km/h (0 Bft)
22.07.2018 21:41 14,3 °C 93 % 1013,5 hPa 0,0 mm 0,0 km/h (0 Bft) SW 221 ° 0 min 0,000 mm 0,0 UV-I 0 W/m² 13,2 °C 14,3 °C 0,0 km/h (0 Bft)
22.07.2018 21:42 14,3 °C 93 % 1013,5 hPa 0,0 mm 0,0 km/h (0 Bft) SW 221 ° 0 min 0,000 mm 0,0 UV-I 0 W/m² 13,2 °C 14,3 °C 0,0 km/h (0 Bft)
22.07.2018 21:43 14,3 °C 93 % 1013,5 hPa 0,0 mm 0,0 km/h (0 Bft) SW 221 ° 0 min 0,000 mm 0,0 UV-I 0 W/m² 13,2 °C 14,3 °C 0,0 km/h (0 Bft)
22.07.2018 21:44 14,3 °C 93 % 1013,5 hPa 0,0 mm 0,0 km/h (0 Bft) SW 221 ° 0 min 0,000 mm 0,0 UV-I 0 W/m² 13,2 °C 14,3 °C 0,0 km/h (0 Bft)
22.07.2018 21:45 14,3 °C 93 % 1013,5 hPa 0,0 mm 0,0 km/h (0 Bft) SW 221 ° 0 min 0,000 mm 0,0 UV-I 0 W/m² 13,2 °C 14,3 °C 0,0 km/h (0 Bft)
22.07.2018 21:46 14,3 °C 93 % 1013,5 hPa 0,0 mm 0,0 km/h (0 Bft) SW 222 ° 0 min 0,000 mm 0,0 UV-I 0 W/m² 13,2 °C 14,3 °C 0,0 km/h (0 Bft)
22.07.2018 21:47 14,3 °C 93 % 1013,6 hPa 0,0 mm 0,0 km/h (0 Bft) SW 221 ° 0 min 0,000 mm 0,0 UV-I 0 W/m² 13,2 °C 14,3 °C 0,0 km/h (0 Bft)
22.07.2018 21:48 14,3 °C 93 % 1013,6 hPa 0,0 mm 0,0 km/h (0 Bft) SW 221 ° 0 min 0,000 mm 0,0 UV-I 0 W/m² 13,2 °C 14,3 °C 0,0 km/h (0 Bft)
22.07.2018 21:49 14,3 °C 93 % 1013,6 hPa 0,0 mm 0,0 km/h (0 Bft) SW 221 ° 0 min 0,000 mm 0,0 UV-I 0 W/m² 13,2 °C 14,3 °C 0,0 km/h (0 Bft)
22.07.2018 21:50 14,3 °C 93 % 1013,6 hPa 0,0 mm 0,7 km/h (0 Bft) SW 221 ° 0 min 0,000 mm 0,0 UV-I 0 W/m² 13,2 °C 14,3 °C 3,2 km/h (1 Bft)
22.07.2018 21:51 14,3 °C 93 % 1013,6 hPa 0,0 mm 0,0 km/h (0 Bft) SW 221 ° 0 min 0,000 mm 0,0 UV-I 0 W/m² 13,2 °C 14,3 °C 0,0 km/h (0 Bft)
22.07.2018 21:52 14,3 °C 93 % 1013,6 hPa 0,0 mm 0,0 km/h (0 Bft) SW 221 ° 0 min 0,000 mm 0,0 UV-I 0 W/m² 13,2 °C 14,3 °C 0,0 km/h (0 Bft)
22.07.2018 21:53 14,3 °C 93 % 1013,6 hPa 0,0 mm 0,0 km/h (0 Bft) SW 221 ° 0 min 0,000 mm 0,0 UV-I 0 W/m² 13,2 °C 14,3 °C 0,0 km/h (0 Bft)
22.07.2018 21:54 14,3 °C 93 % 1013,6 hPa 0,0 mm 0,0 km/h (0 Bft) SW 221 ° 0 min 0,000 mm 0,0 UV-I 0 W/m² 13,2 °C 14,3 °C 0,0 km/h (0 Bft)
22.07.2018 21:55 14,3 °C 93 % 1013,7 hPa 0,0 mm 0,0 km/h (0 Bft) SW 221 ° 0 min 0,000 mm 0,0 UV-I 0 W/m² 13,2 °C 14,3 °C 0,0 km/h (0 Bft)
22.07.2018 21:56 14,3 °C 93 % 1013,6 hPa 0,0 mm 0,0 km/h (0 Bft) SW 221 ° 0 min 0,000 mm 0,0 UV-I 0 W/m² 13,2 °C 14,3 °C 0,0 km/h (0 Bft)
22.07.2018 21:57 14,3 °C 93 % 1013,6 hPa 0,0 mm 0,0 km/h (0 Bft) SW 221 ° 0 min 0,000 mm 0,0 UV-I 0 W/m² 13,2 °C 14,3 °C 0,0 km/h (0 Bft)
22.07.2018 21:58 14,3 °C 93 % 1013,6 hPa 0,0 mm 0,0 km/h (0 Bft) SW 221 ° 0 min 0,000 mm 0,0 UV-I 0 W/m² 13,2 °C 14,3 °C 0,0 km/h (0 Bft)
22.07.2018 21:59 14,3 °C 93 % 1013,6 hPa 0,0 mm 0,8 km/h (0 Bft) SW 221 ° 0 min 0,000 mm 0,0 UV-I 0 W/m² 13,2 °C 14,3 °C 3,2 km/h (1 Bft)
22.07.2018 22:00 14,3 °C 93 % 1013,6 hPa 0,0 mm 0,0 km/h (0 Bft) SW 221 ° 0 min 0,000 mm 0,0 UV-I 0 W/m² 13,2 °C 14,3 °C 0,0 km/h (0 Bft)
22.07.2018 22:01 14,3 °C 93 % 1013,6 hPa 0,0 mm 0,0 km/h (0 Bft) SW 221 ° 0 min 0,000 mm 0,0 UV-I 0 W/m² 13,2 °C 14,3 °C 0,0 km/h (0 Bft)
22.07.2018 22:02 14,3 °C 93 % 1013,7 hPa 0,0 mm 0,0 km/h (0 Bft) SW 221 ° 0 min 0,000 mm 0,0 UV-I 0 W/m² 13,2 °C 14,3 °C 0,0 km/h (0 Bft)
22.07.2018 22:03 14,3 °C 93 % 1013,7 hPa 0,0 mm 0,0 km/h (0 Bft) SW 221 ° 0 min 0,000 mm 0,0 UV-I 0 W/m² 13,2 °C 14,3 °C 0,0 km/h (0 Bft)
22.07.2018 22:04 14,3 °C 93 % 1013,6 hPa 0,0 mm 0,0 km/h (0 Bft) SW 221 ° 0 min 0,000 mm 0,0 UV-I 0 W/m² 13,2 °C 14,3 °C 0,0 km/h (0 Bft)
22.07.2018 22:05 14,3 °C 93 % 1013,7 hPa 0,0 mm 0,0 km/h (0 Bft) SW 221 ° 0 min 0,000 mm 0,0 UV-I 0 W/m² 13,2 °C 14,3 °C 0,0 km/h (0 Bft)
22.07.2018 22:06 14,3 °C 93 % 1013,7 hPa 0,0 mm 0,0 km/h (0 Bft) SW 221 ° 0 min 0,000 mm 0,0 UV-I 0 W/m² 13,2 °C 14,3 °C 0,0 km/h (0 Bft)
22.07.2018 22:07 14,3 °C 93 % 1013,7 hPa 0,0 mm 0,0 km/h (0 Bft) SW 221 ° 0 min 0,000 mm 0,0 UV-I 0 W/m² 13,2 °C 14,3 °C 0,0 km/h (0 Bft)
22.07.2018 22:08 14,2 °C 93 % 1013,7 hPa 0,0 mm 0,0 km/h (0 Bft) SW 221 ° 0 min 0,000 mm 0,0 UV-I 0 W/m² 13,1 °C 14,2 °C 0,0 km/h (0 Bft)
22.07.2018 22:09 14,2 °C 93 % 1013,7 hPa 0,0 mm 0,0 km/h (0 Bft) SW 221 ° 0 min 0,000 mm 0,0 UV-I 0 W/m² 13,1 °C 14,2 °C 0,0 km/h (0 Bft)
22.07.2018 22:10 14,2 °C 93 % 1013,7 hPa 0,0 mm 0,0 km/h (0 Bft) SW 221 ° 0 min 0,000 mm 0,0 UV-I 0 W/m² 13,1 °C 14,2 °C 0,0 km/h (0 Bft)
22.07.2018 22:11 14,2 °C 93 % 1013,7 hPa 0,0 mm 0,0 km/h (0 Bft) SW 221 ° 0 min 0,000 mm 0,0 UV-I 0 W/m² 13,1 °C 14,2 °C 0,0 km/h (0 Bft)
22.07.2018 22:12 14,2 °C 94 % 1013,7 hPa 0,0 mm 0,0 km/h (0 Bft) SW 221 ° 0 min 0,000 mm 0,0 UV-I 0 W/m² 13,2 °C 14,2 °C 0,0 km/h (0 Bft)
22.07.2018 22:13 14,2 °C 93 % 1013,7 hPa 0,0 mm 0,0 km/h (0 Bft) SW 221 ° 0 min 0,000 mm 0,0 UV-I 0 W/m² 13,1 °C 14,2 °C 0,0 km/h (0 Bft)
22.07.2018 22:14 14,2 °C 94 % 1013,7 hPa 0,0 mm 0,0 km/h (0 Bft) SW 221 ° 0 min 0,000 mm 0,0 UV-I 0 W/m² 13,2 °C 14,2 °C 0,0 km/h (0 Bft)
22.07.2018 22:15 14,2 °C 94 % 1013,7 hPa 0,0 mm 0,0 km/h (0 Bft) SW 221 ° 0 min 0,000 mm 0,0 UV-I 0 W/m² 13,2 °C 14,2 °C 0,0 km/h (0 Bft)
22.07.2018 22:16 14,2 °C 94 % 1013,7 hPa 0,0 mm 0,0 km/h (0 Bft) SW 221 ° 0 min 0,000 mm 0,0 UV-I 0 W/m² 13,2 °C 14,2 °C 0,0 km/h (0 Bft)
22.07.2018 22:17 14,2 °C 94 % 1013,7 hPa 0,0 mm 0,0 km/h (0 Bft) SW 221 ° 0 min 0,000 mm 0,0 UV-I 0 W/m² 13,2 °C 14,2 °C 0,0 km/h (0 Bft)
22.07.2018 22:18 14,2 °C 94 % 1013,8 hPa 0,0 mm 0,0 km/h (0 Bft) SW 221 ° 0 min 0,000 mm 0,0 UV-I 0 W/m² 13,2 °C 14,2 °C 0,0 km/h (0 Bft)
22.07.2018 22:19 14,2 °C 94 % 1013,8 hPa 0,0 mm 0,5 km/h (0 Bft) SW 221 ° 0 min 0,000 mm 0,0 UV-I 0 W/m² 13,2 °C 14,2 °C 3,2 km/h (1 Bft)
22.07.2018 22:20 14,2 °C 94 % 1013,8 hPa 0,0 mm 0,0 km/h (0 Bft) SW 221 ° 0 min 0,000 mm 0,0 UV-I 0 W/m² 13,2 °C 14,2 °C 0,0 km/h (0 Bft)
22.07.2018 22:21 14,2 °C 94 % 1013,7 hPa 0,2 mm 0,6 km/h (0 Bft) SW 221 ° 0 min 0,000 mm 0,0 UV-I 0 W/m² 13,2 °C 14,2 °C 3,2 km/h (1 Bft)
22.07.2018 22:22 14,2 °C 94 % 1013,7 hPa 0,0 mm 2,1 km/h (1 Bft) S-SW 200 ° 0 min 0,000 mm 0,0 UV-I 0 W/m² 13,2 °C 14,2 °C 3,2 km/h (1 Bft)
22.07.2018 22:23 14,1 °C 94 % 1013,8 hPa 0,0 mm 0,8 km/h (0 Bft) S-SW 200 ° 0 min 0,000 mm 0,0 UV-I 0 W/m² 13,1 °C 14,1 °C 1,6 km/h (1 Bft)
22.07.2018 22:24 14,2 °C 94 % 1013,8 hPa 0,0 mm 0,0 km/h (0 Bft) S-SW 200 ° 0 min 0,000 mm 0,0 UV-I 0 W/m² 13,2 °C 14,2 °C 0,0 km/h (0 Bft)
22.07.2018 22:25 14,1 °C 94 % 1013,8 hPa 0,0 mm 0,0 km/h (0 Bft) S-SW 200 ° 0 min 0,000 mm 0,0 UV-I 0 W/m² 13,1 °C 14,1 °C 0,0 km/h (0 Bft)
22.07.2018 22:26 14,2 °C 94 % 1013,8 hPa 0,0 mm 0,0 km/h (0 Bft) S-SW 200 ° 0 min 0,000 mm 0,0 UV-I 0 W/m² 13,2 °C 14,2 °C 0,0 km/h (0 Bft)
22.07.2018 22:27 14,2 °C 94 % 1013,7 hPa 0,0 mm 0,0 km/h (0 Bft) S-SW 200 ° 0 min 0,000 mm 0,0 UV-I 0 W/m² 13,2 °C 14,2 °C 0,0 km/h (0 Bft)
22.07.2018 22:28 14,1 °C 94 % 1013,8 hPa 0,0 mm 0,0 km/h (0 Bft) S-SW 200 ° 0 min 0,000 mm 0,0 UV-I 0 W/m² 13,1 °C 14,1 °C 0,0 km/h (0 Bft)
22.07.2018 22:29 14,1 °C 94 % 1013,8 hPa 0,0 mm 0,0 km/h (0 Bft) S-SW 200 ° 0 min 0,000 mm 0,0 UV-I 0 W/m² 13,1 °C 14,1 °C 0,0 km/h (0 Bft)
22.07.2018 22:30 14,1 °C 94 % 1013,8 hPa 0,0 mm 0,0 km/h (0 Bft) S-SW 200 ° 0 min 0,000 mm 0,0 UV-I 0 W/m² 13,1 °C 14,1 °C 0,0 km/h (0 Bft)
22.07.2018 22:31 14,1 °C 94 % 1013,8 hPa 0,0 mm 0,0 km/h (0 Bft) S-SW 200 ° 0 min 0,000 mm 0,0 UV-I 0 W/m² 13,1 °C 14,1 °C 0,0 km/h (0 Bft)
22.07.2018 22:32 14,1 °C 94 % 1013,8 hPa 0,0 mm 0,0 km/h (0 Bft) S-SW 200 ° 0 min 0,000 mm 0,0 UV-I 0 W/m² 13,1 °C 14,1 °C 0,0 km/h (0 Bft)
22.07.2018 22:33 14,1 °C 94 % 1013,8 hPa 0,0 mm 0,5 km/h (0 Bft) S-SW 200 ° 0 min 0,000 mm 0,0 UV-I 0 W/m² 13,1 °C 14,1 °C 3,2 km/h (1 Bft)
22.07.2018 22:34 14,1 °C 94 % 1013,8 hPa 0,0 mm 2,0 km/h (1 Bft) S-SW 200 ° 0 min 0,000 mm 0,0 UV-I 0 W/m² 13,1 °C 14,1 °C 3,2 km/h (1 Bft)
22.07.2018 22:35 14,1 °C 94 % 1013,9 hPa 0,0 mm 0,0 km/h (0 Bft) S-SW 200 ° 0 min 0,000 mm 0,0 UV-I 0 W/m² 13,1 °C 14,1 °C 0,0 km/h (0 Bft)
22.07.2018 22:36 14,1 °C 94 % 1013,9 hPa 0,0 mm 0,0 km/h (0 Bft) S-SW 200 ° 0 min 0,000 mm 0,0 UV-I 0 W/m² 13,1 °C 14,1 °C 0,0 km/h (0 Bft)
22.07.2018 22:37 14,1 °C 94 % 1013,9 hPa 0,0 mm 0,0 km/h (0 Bft) S-SW 200 ° 0 min 0,000 mm 0,0 UV-I 0 W/m² 13,1 °C 14,1 °C 0,0 km/h (0 Bft)
22.07.2018 22:38 14,1 °C 94 % 1013,9 hPa 0,0 mm 0,0 km/h (0 Bft) S-SW 200 ° 0 min 0,000 mm 0,0 UV-I 0 W/m² 13,1 °C 14,1 °C 0,0 km/h (0 Bft)
22.07.2018 22:39 14,2 °C 94 % 1013,9 hPa 0,0 mm 0,0 km/h (0 Bft) S-SW 200 ° 0 min 0,000 mm 0,0 UV-I 0 W/m² 13,2 °C 14,2 °C 0,0 km/h (0 Bft)
22.07.2018 22:40 14,2 °C 94 % 1013,8 hPa 0,0 mm 0,0 km/h (0 Bft) S-SW 200 ° 0 min 0,000 mm 0,0 UV-I 0 W/m² 13,2 °C 14,2 °C 0,0 km/h (0 Bft)
22.07.2018 22:41 14,2 °C 94 % 1013,9 hPa 0,0 mm 0,0 km/h (0 Bft) S-SW 200 ° 0 min 0,000 mm 0,0 UV-I 0 W/m² 13,2 °C 14,2 °C 0,0 km/h (0 Bft)
22.07.2018 22:42 14,2 °C 94 % 1013,8 hPa 0,0 mm 0,0 km/h (0 Bft) S-SW 200 ° 0 min 0,000 mm 0,0 UV-I 0 W/m² 13,2 °C 14,2 °C 0,0 km/h (0 Bft)
22.07.2018 22:43 14,2 °C 94 % 1013,8 hPa 0,0 mm 0,0 km/h (0 Bft) S-SW 200 ° 0 min 0,000 mm 0,0 UV-I 0 W/m² 13,2 °C 14,2 °C 0,0 km/h (0 Bft)
22.07.2018 22:44 14,2 °C 94 % 1013,8 hPa 0,0 mm 0,0 km/h (0 Bft) S-SW 200 ° 0 min 0,000 mm 0,0 UV-I 0 W/m² 13,2 °C 14,2 °C 0,0 km/h (0 Bft)
22.07.2018 22:45 14,2 °C 94 % 1013,8 hPa 0,0 mm 0,0 km/h (0 Bft) S-SW 200 ° 0 min 0,000 mm 0,0 UV-I 0 W/m² 13,2 °C 14,2 °C 0,0 km/h (0 Bft)
22.07.2018 22:46 14,2 °C 94 % 1013,8 hPa 0,0 mm 0,0 km/h (0 Bft) S-SW 200 ° 0 min 0,000 mm 0,0 UV-I 0 W/m² 13,2 °C 14,2 °C 0,0 km/h (0 Bft)
22.07.2018 22:47 14,2 °C 94 % 1013,8 hPa 0,0 mm 0,0 km/h (0 Bft) S-SW 200 ° 0 min 0,000 mm 0,0 UV-I 0 W/m² 13,2 °C 14,2 °C 0,0 km/h (0 Bft)
22.07.2018 22:48 14,2 °C 94 % 1013,8 hPa 0,0 mm 0,0 km/h (0 Bft) S-SW 200 ° 0 min 0,000 mm 0,0 UV-I 0 W/m² 13,2 °C 14,2 °C 0,0 km/h (0 Bft)
22.07.2018 22:49 14,2 °C 94 % 1013,8 hPa 0,0 mm 0,0 km/h (0 Bft) S-SW 200 ° 0 min 0,000 mm 0,0 UV-I 0 W/m² 13,2 °C 14,2 °C 0,0 km/h (0 Bft)
22.07.2018 22:50 14,2 °C 94 % 1013,8 hPa 0,0 mm 0,0 km/h (0 Bft) S-SW 200 ° 0 min 0,000 mm 0,0 UV-I 0 W/m² 13,2 °C 14,2 °C 0,0 km/h (0 Bft)
22.07.2018 22:51 14,2 °C 94 % 1013,8 hPa 0,0 mm 0,0 km/h (0 Bft) S-SW 200 ° 0 min 0,000 mm 0,0 UV-I 0 W/m² 13,2 °C 14,2 °C 0,0 km/h (0 Bft)
22.07.2018 22:52 14,2 °C 94 % 1013,8 hPa 0,0 mm 0,0 km/h (0 Bft) S-SW 200 ° 0 min 0,000 mm 0,0 UV-I 0 W/m² 13,2 °C 14,2 °C 0,0 km/h (0 Bft)
22.07.2018 22:53 14,2 °C 94 % 1013,8 hPa 0,0 mm 0,0 km/h (0 Bft) S-SW 200 ° 0 min 0,000 mm 0,0 UV-I 0 W/m² 13,2 °C 14,2 °C 0,0 km/h (0 Bft)
22.07.2018 22:54 14,2 °C 94 % 1013,7 hPa 0,0 mm 0,0 km/h (0 Bft) S-SW 200 ° 0 min 0,000 mm 0,0 UV-I 0 W/m² 13,2 °C 14,2 °C 0,0 km/h (0 Bft)
22.07.2018 22:55 14,2 °C 94 % 1013,7 hPa 0,0 mm 0,0 km/h (0 Bft) S-SW 200 ° 0 min 0,000 mm 0,0 UV-I 0 W/m² 13,2 °C 14,2 °C 0,0 km/h (0 Bft)
22.07.2018 22:56 14,2 °C 94 % 1013,8 hPa 0,0 mm 0,0 km/h (0 Bft) S-SW 200 ° 0 min 0,000 mm 0,0 UV-I 0 W/m² 13,2 °C 14,2 °C 0,0 km/h (0 Bft)
22.07.2018 22:57 14,2 °C 94 % 1013,7 hPa 0,0 mm 0,0 km/h (0 Bft) S-SW 200 ° 0 min 0,000 mm 0,0 UV-I 0 W/m² 13,2 °C 14,2 °C 0,0 km/h (0 Bft)
22.07.2018 22:58 14,2 °C 94 % 1013,8 hPa 0,0 mm 0,0 km/h (0 Bft) S-SW 200 ° 0 min 0,000 mm 0,0 UV-I 0 W/m² 13,2 °C 14,2 °C 0,0 km/h (0 Bft)
22.07.2018 22:59 14,2 °C 94 % 1013,8 hPa 0,0 mm 0,0 km/h (0 Bft) S-SW 200 ° 0 min 0,000 mm 0,0 UV-I 0 W/m² 13,2 °C 14,2 °C 0,0 km/h (0 Bft)
22.07.2018 23:00 14,2 °C 94 % 1013,7 hPa 0,0 mm 0,0 km/h (0 Bft) S-SW 200 ° 0 min 0,000 mm 0,0 UV-I 0 W/m² 13,2 °C 14,2 °C 0,0 km/h (0 Bft)
22.07.2018 23:01 14,2 °C 94 % 1013,8 hPa 0,0 mm 0,0 km/h (0 Bft) S-SW 200 ° 0 min 0,000 mm 0,0 UV-I 0 W/m² 13,2 °C 14,2 °C 0,0 km/h (0 Bft)
22.07.2018 23:03 14,2 °C 94 % 1013,8 hPa 0,0 mm 0,0 km/h (0 Bft) S-SW 200 ° 0 min 0,000 mm 0,0 UV-I 0 W/m² 13,2 °C 14,2 °C 0,0 km/h (0 Bft)
22.07.2018 23:04 14,2 °C 94 % 1013,8 hPa 0,0 mm 0,0 km/h (0 Bft) S-SW 200 ° 0 min 0,000 mm 0,0 UV-I 0 W/m² 13,2 °C 14,2 °C 0,0 km/h (0 Bft)
22.07.2018 23:05 14,3 °C 94 % 1013,8 hPa 0,0 mm 0,0 km/h (0 Bft) S-SW 200 ° 0 min 0,000 mm 0,0 UV-I 0 W/m² 13,3 °C 14,3 °C 0,0 km/h (0 Bft)
22.07.2018 23:06 14,3 °C 94 % 1013,8 hPa 0,0 mm 0,0 km/h (0 Bft) S-SW 200 ° 0 min 0,000 mm 0,0 UV-I 0 W/m² 13,3 °C 14,3 °C 0,0 km/h (0 Bft)
22.07.2018 23:07 14,3 °C 94 % 1013,8 hPa 0,0 mm 0,0 km/h (0 Bft) S-SW 200 ° 0 min 0,000 mm 0,0 UV-I 0 W/m² 13,3 °C 14,3 °C 0,0 km/h (0 Bft)
22.07.2018 23:08 14,2 °C 94 % 1013,8 hPa 0,0 mm 0,0 km/h (0 Bft) S-SW 200 ° 0 min 0,000 mm 0,0 UV-I 0 W/m² 13,2 °C 14,2 °C 0,0 km/h (0 Bft)
22.07.2018 23:09 14,2 °C 94 % 1013,9 hPa 0,0 mm 0,0 km/h (0 Bft) S-SW 200 ° 0 min 0,000 mm 0,0 UV-I 0 W/m² 13,2 °C 14,2 °C 0,0 km/h (0 Bft)
22.07.2018 23:10 14,2 °C 94 % 1013,9 hPa 0,0 mm 0,0 km/h (0 Bft) S-SW 200 ° 0 min 0,000 mm 0,0 UV-I 0 W/m² 13,2 °C 14,2 °C 0,0 km/h (0 Bft)
22.07.2018 23:11 14,2 °C 94 % 1013,9 hPa 0,0 mm 0,0 km/h (0 Bft) S-SW 200 ° 0 min 0,000 mm 0,0 UV-I 0 W/m² 13,2 °C 14,2 °C 0,0 km/h (0 Bft)
22.07.2018 23:12 14,2 °C 94 % 1013,9 hPa 0,0 mm 0,0 km/h (0 Bft) S-SW 200 ° 0 min 0,000 mm 0,0 UV-I 0 W/m² 13,2 °C 14,2 °C 0,0 km/h (0 Bft)
22.07.2018 23:13 14,3 °C 94 % 1014,0 hPa 0,0 mm 0,0 km/h (0 Bft) S-SW 200 ° 0 min 0,000 mm 0,0 UV-I 0 W/m² 13,3 °C 14,3 °C 0,0 km/h (0 Bft)
22.07.2018 23:14 14,2 °C 94 % 1014,0 hPa 0,0 mm 0,0 km/h (0 Bft) S-SW 200 ° 0 min 0,000 mm 0,0 UV-I 0 W/m² 13,2 °C 14,2 °C 0,0 km/h (0 Bft)
22.07.2018 23:15 14,2 °C 94 % 1014,0 hPa 0,0 mm 0,0 km/h (0 Bft) S-SW 200 ° 0 min 0,000 mm 0,0 UV-I 0 W/m² 13,2 °C 14,2 °C 0,0 km/h (0 Bft)
22.07.2018 23:16 14,3 °C 94 % 1014,0 hPa 0,0 mm 0,0 km/h (0 Bft) S-SW 200 ° 0 min 0,000 mm 0,0 UV-I 0 W/m² 13,3 °C 14,3 °C 0,0 km/h (0 Bft)
22.07.2018 23:17 14,3 °C 94 % 1014,1 hPa 0,0 mm 0,0 km/h (0 Bft) S-SW 200 ° 0 min 0,000 mm 0,0 UV-I 0 W/m² 13,3 °C 14,3 °C 0,0 km/h (0 Bft)
22.07.2018 23:18 14,2 °C 94 % 1014,1 hPa 0,0 mm 0,0 km/h (0 Bft) S-SW 200 ° 0 min 0,000 mm 0,0 UV-I 0 W/m² 13,2 °C 14,2 °C 0,0 km/h (0 Bft)
22.07.2018 23:19 14,3 °C 94 % 1014,1 hPa 0,0 mm 0,0 km/h (0 Bft) S-SW 200 ° 0 min 0,000 mm 0,0 UV-I 0 W/m² 13,3 °C 14,3 °C 0,0 km/h (0 Bft)
22.07.2018 23:20 14,3 °C 94 % 1014,1 hPa 0,0 mm 0,0 km/h (0 Bft) S-SW 200 ° 0 min 0,000 mm 0,0 UV-I 0 W/m² 13,3 °C 14,3 °C 0,0 km/h (0 Bft)
22.07.2018 23:21 14,3 °C 94 % 1014,1 hPa 0,2 mm 0,0 km/h (0 Bft) S-SW 200 ° 0 min 0,000 mm 0,0 UV-I 0 W/m² 13,3 °C 14,3 °C 0,0 km/h (0 Bft)
22.07.2018 23:22 14,3 °C 94 % 1014,1 hPa 0,0 mm 0,9 km/h (0 Bft) S-SW 200 ° 0 min 0,000 mm 0,0 UV-I 0 W/m² 13,3 °C 14,3 °C 3,2 km/h (1 Bft)
22.07.2018 23:23 14,2 °C 94 % 1014,1 hPa 0,0 mm 0,8 km/h (0 Bft) S-SW 200 ° 0 min 0,000 mm 0,0 UV-I 0 W/m² 13,2 °C 14,2 °C 3,2 km/h (1 Bft)
22.07.2018 23:24 14,2 °C 94 % 1014,1 hPa 0,0 mm 2,8 km/h (1 Bft) S-SW 200 ° 0 min 0,000 mm 0,0 UV-I 0 W/m² 13,2 °C 14,2 °C 3,2 km/h (1 Bft)
22.07.2018 23:25 14,2 °C 94 % 1014,0 hPa 0,2 mm 3,1 km/h (1 Bft) S-SW 200 ° 0 min 0,000 mm 0,0 UV-I 0 W/m² 13,2 °C 14,2 °C 3,2 km/h (1 Bft)
22.07.2018 23:26 14,3 °C 94 % 1014,1 hPa 0,0 mm 2,3 km/h (1 Bft) S-SW 200 ° 0 min 0,000 mm 0,0 UV-I 0 W/m² 13,3 °C 14,3 °C 3,2 km/h (1 Bft)
22.07.2018 23:27 14,2 °C 94 % 1014,1 hPa 0,0 mm 1,7 km/h (1 Bft) S-SW 200 ° 0 min 0,000 mm 0,0 UV-I 0 W/m² 13,2 °C 14,2 °C 3,2 km/h (1 Bft)
22.07.2018 23:28 14,2 °C 94 % 1014,1 hPa 0,0 mm 2,7 km/h (1 Bft) S-SW 200 ° 0 min 0,000 mm 0,0 UV-I 0 W/m² 13,2 °C 14,2 °C 4,8 km/h (1 Bft)
22.07.2018 23:29 14,3 °C 94 % 1014,1 hPa 0,2 mm 3,3 km/h (1 Bft) S-SW 200 ° 0 min 0,000 mm 0,0 UV-I 0 W/m² 13,3 °C 14,3 °C 4,8 km/h (1 Bft)
22.07.2018 23:30 14,2 °C 94 % 1014,1 hPa 0,0 mm 3,9 km/h (1 Bft) S 190 ° 0 min 0,000 mm 0,0 UV-I 0 W/m² 13,2 °C 14,2 °C 4,8 km/h (1 Bft)
22.07.2018 23:31 14,2 °C 94 % 1014,1 hPa 0,0 mm 2,9 km/h (1 Bft) S 186 ° 0 min 0,000 mm 0,0 UV-I 0 W/m² 13,2 °C 14,2 °C 4,8 km/h (1 Bft)
22.07.2018 23:32 14,2 °C 94 % 1014,1 hPa 0,0 mm 0,4 km/h (0 Bft) S 186 ° 0 min 0,000 mm 0,0 UV-I 0 W/m² 13,2 °C 14,2 °C 1,6 km/h (1 Bft)
22.07.2018 23:33 14,2 °C 94 % 1014,1 hPa 0,0 mm 1,0 km/h (0 Bft) S 186 ° 0 min 0,000 mm 0,0 UV-I 0 W/m² 13,2 °C 14,2 °C 3,2 km/h (1 Bft)
22.07.2018 23:34 14,2 °C 94 % 1014,1 hPa 0,0 mm 0,4 km/h (0 Bft) S 186 ° 0 min 0,000 mm 0,0 UV-I 0 W/m² 13,2 °C 14,2 °C 1,6 km/h (1 Bft)
22.07.2018 23:35 14,3 °C 94 % 1014,1 hPa 0,2 mm 1,3 km/h (1 Bft) S 186 ° 0 min 0,000 mm 0,0 UV-I 0 W/m² 13,3 °C 14,3 °C 3,2 km/h (1 Bft)
22.07.2018 23:36 14,3 °C 94 % 1014,1 hPa 0,0 mm 0,7 km/h (0 Bft) S 186 ° 0 min 0,000 mm 0,0 UV-I 0 W/m² 13,3 °C 14,3 °C 1,6 km/h (1 Bft)
22.07.2018 23:37 14,2 °C 94 % 1014,1 hPa 0,0 mm 0,3 km/h (0 Bft) S 186 ° 0 min 0,000 mm 0,0 UV-I 0 W/m² 13,2 °C 14,2 °C 1,6 km/h (1 Bft)
22.07.2018 23:38 14,2 °C 94 % 1014,1 hPa 0,0 mm 0,1 km/h (0 Bft) S 186 ° 0 min 0,000 mm 0,0 UV-I 0 W/m² 13,2 °C 14,2 °C 1,6 km/h (1 Bft)
22.07.2018 23:39 14,2 °C 94 % 1014,0 hPa 0,0 mm 0,0 km/h (0 Bft) S 186 ° 0 min 0,000 mm 0,0 UV-I 0 W/m² 13,2 °C 14,2 °C 0,0 km/h (0 Bft)
22.07.2018 23:40 14,3 °C 94 % 1014,0 hPa 0,0 mm 0,0 km/h (0 Bft) S 186 ° 0 min 0,000 mm 0,0 UV-I 0 W/m² 13,3 °C 14,3 °C 0,0 km/h (0 Bft)
22.07.2018 23:41 14,3 °C 94 % 1014,0 hPa 0,2 mm 0,0 km/h (0 Bft) S 186 ° 0 min 0,000 mm 0,0 UV-I 0 W/m² 13,3 °C 14,3 °C 0,0 km/h (0 Bft)
22.07.2018 23:42 14,2 °C 94 % 1014,1 hPa 0,0 mm 0,0 km/h (0 Bft) S 186 ° 0 min 0,000 mm 0,0 UV-I 0 W/m² 13,2 °C 14,2 °C 0,0 km/h (0 Bft)
22.07.2018 23:43 14,2 °C 94 % 1014,1 hPa 0,0 mm 0,0 km/h (0 Bft) S 186 ° 0 min 0,000 mm 0,0 UV-I 0 W/m² 13,2 °C 14,2 °C 0,0 km/h (0 Bft)
22.07.2018 23:44 14,2 °C 94 % 1014,1 hPa 0,0 mm 0,0 km/h (0 Bft) S 186 ° 0 min 0,000 mm 0,0 UV-I 0 W/m² 13,2 °C 14,2 °C 0,0 km/h (0 Bft)
22.07.2018 23:45 14,2 °C 94 % 1014,1 hPa 0,0 mm 0,0 km/h (0 Bft) S 186 ° 0 min 0,000 mm 0,0 UV-I 0 W/m² 13,2 °C 14,2 °C 0,0 km/h (0 Bft)
22.07.2018 23:46 14,2 °C 94 % 1014,1 hPa 0,0 mm 0,0 km/h (0 Bft) S 186 ° 0 min 0,000 mm 0,0 UV-I 0 W/m² 13,2 °C 14,2 °C 0,0 km/h (0 Bft)
22.07.2018 23:47 14,3 °C 94 % 1014,1 hPa 0,0 mm 0,0 km/h (0 Bft) S 186 ° 0 min 0,000 mm 0,0 UV-I 0 W/m² 13,3 °C 14,3 °C 0,0 km/h (0 Bft)
22.07.2018 23:48 14,2 °C 94 % 1014,1 hPa 0,0 mm 0,0 km/h (0 Bft) S 186 ° 0 min 0,000 mm 0,0 UV-I 0 W/m² 13,2 °C 14,2 °C 0,0 km/h (0 Bft)
22.07.2018 23:49 14,2 °C 94 % 1014,1 hPa 0,0 mm 0,0 km/h (0 Bft) S 186 ° 0 min 0,000 mm 0,0 UV-I 0 W/m² 13,2 °C 14,2 °C 0,0 km/h (0 Bft)
22.07.2018 23:50 14,2 °C 94 % 1014,1 hPa 0,0 mm 0,0 km/h (0 Bft) S 186 ° 0 min 0,000 mm 0,0 UV-I 0 W/m² 13,2 °C 14,2 °C 0,0 km/h (0 Bft)
22.07.2018 23:51 14,2 °C 94 % 1014,1 hPa 0,0 mm 0,0 km/h (0 Bft) S 186 ° 0 min 0,000 mm 0,0 UV-I 0 W/m² 13,2 °C 14,2 °C 0,0 km/h (0 Bft)
22.07.2018 23:52 14,2 °C 94 % 1014,1 hPa 0,0 mm 0,0 km/h (0 Bft) S 186 ° 0 min 0,000 mm 0,0 UV-I 0 W/m² 13,2 °C 14,2 °C 0,0 km/h (0 Bft)
22.07.2018 23:53 14,2 °C 94 % 1014,1 hPa 0,0 mm 0,0 km/h (0 Bft) S 186 ° 0 min 0,000 mm 0,0 UV-I 0 W/m² 13,2 °C 14,2 °C 0,0 km/h (0 Bft)
22.07.2018 23:54 14,2 °C 94 % 1014,1 hPa 0,0 mm 0,0 km/h (0 Bft) S 186 ° 0 min 0,000 mm 0,0 UV-I 0 W/m² 13,2 °C 14,2 °C 0,0 km/h (0 Bft)
22.07.2018 23:55 14,2 °C 94 % 1014,1 hPa 0,0 mm 0,0 km/h (0 Bft) S 186 ° 0 min 0,000 mm 0,0 UV-I 0 W/m² 13,2 °C 14,2 °C 0,0 km/h (0 Bft)
22.07.2018 23:56 14,2 °C 94 % 1014,1 hPa 0,0 mm 0,0 km/h (0 Bft) S 186 ° 0 min 0,000 mm 0,0 UV-I 0 W/m² 13,2 °C 14,2 °C 0,0 km/h (0 Bft)
22.07.2018 23:57 14,2 °C 94 % 1014,1 hPa 0,0 mm 0,0 km/h (0 Bft) S 186 ° 0 min 0,000 mm 0,0 UV-I 0 W/m² 13,2 °C 14,2 °C 0,0 km/h (0 Bft)
22.07.2018 23:58 14,2 °C 94 % 1014,1 hPa 0,0 mm 0,0 km/h (0 Bft) S 186 ° 0 min 0,000 mm 0,0 UV-I 0 W/m² 13,2 °C 14,2 °C 0,0 km/h (0 Bft)
22.07.2018 23:59 14,2 °C 94 % 1014,1 hPa 0,0 mm 0,7 km/h (0 Bft) S 186 ° 0 min 0,000 mm 0,0 UV-I 0 W/m² 13,2 °C 14,2 °C 1,6 km/h (1 Bft)
_ Min-Zeit 07:02 16:23 05:40 - 23:58 - - - - - - 07:02 07:02 23:58
Minimum _ 13,8 °C 80 % 1010,9 hPa - 0,0 km/h (0 Bft) - - - - - - 12,7 °C 13,8 °C 0,0 km/h (0 Bft)
_ Max-Zeit 15:54 23:59 23:59 23:41 13:22 - - 23:59 16:00 15:41 15:38 15:50 15:54 13:22
Maximum _ 18,2 °C 94 % 1014,1 hPa 0,2 mm 15,7 km/h
W (3 Bft)
- - 0 min 0,229 mm 3,8 UV-I 490 W/m² 15,8 °C 18,2 °C 25,7 km/h
W-NW (4 Bft)
Durchschnitt _ 15,3 °C 90 % 1012,2 hPa #5,6 mm 3,0 km/h (1 Bft) W - #0 min. #1,016 mm 1,3 UV-I 71 W/m² 13,7 °C 15,3 °C 5,6 km/h (1 Bft)